GFSGL_2pvu_pres_000.txt.gz
Presure
162 171 174 181 184 186 178 176 179 177 168 177 188 200 198 197 184 199 245 264 250 235 217 247 258 230 254 235 230 196 223 225 232 222 124 161 112 225 222 242 477 489 478
164 182 179 187 182 184 179 177 177 181 179 190 185 172 191 201 218 276 264 155 228 217 254 249 189 229 228 214 223 224 225 206 210 153 213 229 243 502 491 482 472 465 456
182 190 183 184 181 181 178 173 175 182 177 177 193 195 203 233 274 259 213 214 230 168 247 265 222 167 219 220 212 214 207 222 226 234 517 500 494 483 474 458 448 427 407
191 184 177 173 179 173 173 188 180 180 188 192 200 210 190 197 177 163 217 246 248 251 187 152 201 216 204 170 214 215 230 262 476 492 483 471 463 443 440 420 389 388 465
178 173 176 178 174 186 176 178 183 188 192 200 149 269 250 237 214 237 251 242 242 147 157 211 204 208 210 217 231 257 359 493 475 453 442 444 423 411 399 385 445 454 443
173 181 173 172 176 178 180 187 182 195 200 216 268 236 225 224 244 246 282 203 147 211 207 207 206 214 225 241 350 470 473 453 443 486 496 492 477 434 392 488 444 424 342
170 174 177 179 171 183 186 184 193 146 217 134 209 154 249 247 236 271 146 213 201 205 203 218 224 234 311 361 482 461 463 493 496 503 539 545 547 522 481 433 347 347 364
178 181 177 155 184 142 192 189 136 225 240 231 215 244 246 247 215 216 197 204 181 208 223 232 273 313 360 472 470 502 492 502 509 514 522 510 482 455 384 333 357 329 329
179 183 183 183 187 191 184 209 245 227 216 223 247 238 278 234 177 195 199 199 215 224 229 300 322 349 466 496 492 474 559 555 541 491 465 443 413 339 380 326 326 329 331
181 127 131 193 189 203 215 249 236 206 240 246 247 268 201 170 152 194 209 221 227 278 299 321 341 455 491 479 459 576 558 459 439 416 410 348 341 347 330 326 332 336 336
175 194 188 194 206 231 232 231 223 247 240 266 207 177 201 198 202 217 220 234 294 303 316 397 444 475 478 449 464 429 439 404 391 350 333 349 326 319 329 324 330 328 327
190 197 205 232 243 167 213 245 155 258 260 155 201 194 194 206 216 219 246 292 312 316 416 438 456 542 574 499 428 499 392 354 337 337 330 318 309 316 315 317 320 316 319
202 225 242 151 209 228 245 262 254 190 195 199 165 194 210 216 223 268 292 307 316 429 434 438 482 495 460 461 423 363 341 326 340 324 311 324 319 321 315 307 304 302 299
232 133 161 219 248 249 256 233 213 196 143 196 199 210 215 230 287 298 302 320 368 433 436 481 444 445 442 380 360 333 350 328 315 309 314 316 314 316 308 307 303 298 299
222 214 249 256 261 238 215 181 160 196 169 202 208 218 249 293 296 304 317 416 436 439 487 444 438 399 372 359 335 381 324 308 304 313 314 308 302 301 299 302 296 306 289
222 252 254 245 215 198 162 157 197 192 212 215 230 284 294 297 302 317 460 433 436 493 446 498 418 366 354 355 345 316 305 300 311 311 311 301 293 291 297 290 298 300 291
164 243 215 194 186 154 153 188 184 206 213 235 291 291 295 295 310 417 434 431 497 453 532 390 361 354 348 324 312 315 316 309 314 300 303 297 289 286 293 289 286 291 294
214 191 184 181 190 152 184 183 205 233 274 292 280 291 292 305 462 434 436 501 454 469 386 359 351 338 315 311 304 298 299 299 302 304 301 301 291 284 288 290 283 287 294
187 188 150 152 160 193 200 223 235 266 279 286 288 289 297 460 443 439 506 464 479 380 361 345 327 319 303 301 294 292 290 288 286 285 291 295 291 298 294 285 283 283 277
186 175 189 158 202 211 233 236 271 279 284 286 288 293 343 443 439 459 463 477 375 360 348 331 307 298 297 292 291 284 289 286 285 268 282 282 281 280 293 289 288 281 279
188 190 167 208 215 235 230 277 284 282 287 293 302 351 443 455 384 474 474 386 361 343 315 304 297 291 293 285 291 291 276 262 287 267 268 269 267 271 268 263 263 280 282
160 173 208 220 229 234 281 282 282 284 296 348 342 439 441 381 496 471 377 360 338 309 304 294 290 288 300 291 283 287 283 366 403 383 406 392 353 315 254 250 260 268 275
195 219 226 229 241 277 273 282 289 311 330 402 438 410 361 531 456 377 357 335 310 302 293 283 291 304 286 298 338 366 367 397 354 406 404 403 396 376 339 342 263 263 272
223 228 228 248 274 275 277 287 319 291 443 441 409 361 506 451 380 354 330 310 298 290 283 291 294 279 370 365 384 399 402 407 412 399 385 382 382 388 383 389 359 292 270
226 228 247 273 272 271 300 305 302 437 441 416 359 481 520 437 357 329 309 297 287 277 287 308 295 254 356 368 406 397 397 392 390 393 394 392 391 390 388 388 383 409 396
231 248 266 272 274 301 306 326 431 439 415 511 487 509 444 360 332 308 299 287 270 283 293 302 292 254 357 349 340 334 338 343 346 349 350 353 361 377 386 387 391 418 422

GFSGL_2pvu_pres_003.txt.gz
Presure
213 209 200 190 189 186 179 171 183 179 185 186 182 172 171 173 177 189 189 193 203 235 265 232 230 153 236 253 280 216 219 220 224 213 209 151 155 231 242 192 426 499 490
218 205 207 188 191 184 174 179 191 189 178 179 171 174 173 180 186 188 193 204 231 258 217 258 254 242 281 212 220 154 211 211 221 237 239 142 322 488 490 483 472 463 460
211 208 180 187 181 177 182 196 186 174 173 172 177 180 189 181 189 189 209 232 257 220 262 246 255 229 207 200 203 208 213 143 236 254 353 394 489 508 510 505 493 487 473
207 192 179 193 156 194 182 179 182 172 175 183 175 191 185 193 190 211 232 199 200 238 255 270 212 215 197 184 217 232 233 256 340 356 488 516 504 491 509 535 524 493 490
208 190 191 186 184 175 177 175 173 183 177 187 185 192 185 141 210 231 245 226 258 248 275 216 210 174 216 197 234 251 313 337 467 491 504 485 577 572 562 534 552 544 500
170 189 185 180 174 176 172 181 178 184 190 125 193 183 182 207 215 223 242 259 262 227 214 169 171 164 227 236 268 317 344 461 488 498 592 581 575 565 514 482 462 447 413
182 181 174 174 181 179 181 178 189 182 190 193 182 197 210 211 218 253 271 271 209 209 204 217 223 229 243 311 320 371 450 508 593 515 493 475 446 443 433 427 398 378 357
175 180 180 182 181 179 185 135 178 177 191 180 205 221 226 223 260 268 233 207 184 161 218 222 229 276 308 325 375 464 606 595 483 437 426 412 434 370 354 390 424 375 331
176 183 181 181 184 190 135 178 194 188 192 204 203 213 230 259 272 205 157 189 176 221 224 230 297 301 323 366 453 497 573 462 502 407 374 354 340 397 345 325 325 328 333
183 185 179 187 188 170 190 191 189 204 164 199 216 246 270 249 152 204 153 210 216 217 256 292 300 319 357 453 485 469 460 448 386 358 352 393 343 324 317 317 316 321 321
183 187 186 177 177 193 181 161 205 207 231 224 262 268 220 191 158 195 213 218 230 260 293 300 314 368 448 502 458 457 400 361 347 339 355 332 322 328 321 316 319 310 307
184 177 190 192 178 182 179 177 247 219 242 261 197 206 203 145 164 217 224 241 287 296 304 315 412 446 498 462 430 377 351 333 349 334 319 325 314 325 312 306 304 306 301
192 191 187 198 142 212 243 222 227 265 261 225 202 193 145 165 216 224 242 299 298 301 310 463 445 489 477 412 371 346 328 347 327 312 319 308 318 307 310 309 308 302 304
190 194 133 151 249 152 222 184 279 237 207 198 170 149 202 214 229 254 288 302 300 316 356 443 482 478 404 373 359 330 336 320 304 310 309 313 305 300 295 295 291 305 302
127 203 139 144 220 277 183 234 214 201 159 146 155 206 217 233 305 285 299 299 332 383 446 481 467 451 376 363 363 327 319 320 314 313 308 310 302 291 290 294 302 298 295
171 133 144 285 279 216 214 170 158 183 146 189 211 221 243 287 294 304 300 351 477 438 486 470 445 375 357 346 310 314 305 303 296 296 301 300 301 294 290 297 295 290 298
128 142 269 226 210 207 181 191 181 151 206 219 228 264 280 290 301 300 367 468 436 490 505 439 372 351 344 311 310 305 301 299 294 287 288 295 300 300 294 295 295 286 294
175 222 208 205 189 189 192 184 150 205 222 227 271 277 289 296 323 476 455 423 438 497 398 370 355 341 306 299 300 291 291 280 283 286 280 279 278 292 293 300 296 292 282
184 203 195 195 189 197 210 147 208 223 235 279 279 288 295 318 451 450 412 443 484 397 368 351 323 308 298 296 292 299 298 303 292 277 269 261 271 283 278 282 297 292 287
199 196 186 197 202 201 206 224 225 236 273 277 284 292 291 474 446 408 353 473 396 357 336 312 304 297 296 302 305 297 280 295 296 292 304 372 342 268 268 277 266 274 288
185 193 201 204 203 206 223 228 239 273 278 280 296 340 474 445 454 527 468 386 351 326 310 304 297 302 303 300 306 361 360 357 416 420 419 420 372 393 339 267 258 268 272
200 196 202 204 178 218 234 246 278 275 281 300 311 465 439 458 519 473 386 347 319 310 301 296 308 313 301 361 355 390 417 422 407 393 390 390 392 364 391 352 268 262 261
201 204 211 211 221 237 236 277 270 283 298 296 465 436 507 490 490 384 341 314 303 297 288 301 304 314 359 412 404 399 394 396 401 398 392 393 392 387 390 385 345 290 267
204 213 225 226 227 235 273 272 284 290 306 466 438 457 498 520 384 340 314 301 294 283 303 303 287 255 359 350 345 341 349 371 366 367 371 374 375 376 383 395 397 350 296
205 227 218 226 238 271 276 279 288 346 463 442 428 506 517 383 343 313 302 291 281 300 296 276 256 248 382 380 376 361 358 356 355 351 345 346 388 383 386 398 416 415 432
219 218 226 242 269 275 281 292 368 465 436 406 491 515 435 351 316 302 292 278 308 294 292 256 253 235 328 325 329 325 324 333 334 342 347 345 355 377 382 391 429 436 422

GFSGL_2pvu_pres_006.txt.gz
Presure
181 173 168 170 171 176 210 209 206 201 197 192 193 185 188 192 192 184 176 179 189 185 199 189 200 213 235 156 248 286 271 237 225 209 212 226 236 192 205 169 376 493 509
188 178 181 163 171 179 206 212 208 206 199 197 180 186 189 180 178 172 189 189 158 202 137 190 177 223 217 268 270 248 221 167 216 230 238 238 267 327 351 474 591 611 600
191 173 172 167 175 182 201 214 205 205 186 192 196 183 174 177 175 191 141 193 198 126 205 214 219 227 268 251 201 218 210 221 235 248 270 330 330 514 633 603 590 591 584
188 172 174 171 183 199 214 202 187 179 189 184 177 173 180 186 194 166 200 193 161 208 223 207 251 276 254 198 189 201 225 240 253 280 337 392 635 593 466 458 466 474 476
188 172 174 186 183 192 196 189 171 185 180 177 174 181 191 175 189 201 178 197 205 228 213 273 272 235 167 186 214 230 244 267 319 341 488 532 483 441 434 445 452 447 438
190 181 181 184 187 189 178 185 182 180 173 183 184 165 190 182 200 189 204 210 261 219 273 257 217 213 204 222 235 244 271 331 347 516 505 517 420 416 441 402 350 445 447
182 181 170 175 181 184 166 183 183 180 184 151 192 190 186 191 194 168 221 249 246 269 241 161 196 185 227 235 250 280 316 343 515 498 485 412 397 360 368 394 355 341 330
182 181 174 178 181 183 188 183 182 188 189 190 193 199 183 200 209 255 224 275 259 183 180 191 214 223 239 260 309 312 401 509 477 449 407 374 355 352 344 335 315 325 328
178 173 163 183 185 183 174 188 185 192 184 200 191 167 208 222 247 278 271 231 164 181 199 215 226 238 296 308 328 444 510 469 428 392 356 351 359 339 324 328 325 323 326
177 169 174 171 173 186 187 189 187 199 194 178 207 215 260 226 276 244 222 126 183 193 214 228 250 303 307 387 472 506 493 418 380 348 340 354 329 333 323 323 308 308 311
163 169 173 180 188 188 189 185 196 153 194 174 210 237 285 261 226 217 179 182 215 215 229 265 298 320 420 465 496 517 409 387 379 359 339 326 322 313 317 311 312 304 299
175 179 186 189 191 183 199 158 176 142 151 248 268 267 189 218 179 186 210 213 218 228 288 295 318 444 461 494 487 407 383 383 359 335 322 312 314 316 306 294 297 292 296
133 187 191 181 198 188 177 206 142 150 216 273 240 215 215 197 163 216 204 215 246 286 292 314 464 454 410 481 405 372 370 362 310 330 312 318 315 312 306 296 296 297 299
189 188 197 186 181 201 134 142 218 281 248 221 216 193 200 211 214 203 207 288 286 288 394 467 446 386 491 402 366 357 343 319 316 316 315 306 299 303 304 300 297 298 294
194 193 204 158 230 148 140 230 252 223 200 203 194 159 212 210 209 232 285 290 293 448 466 434 407 475 400 367 360 342 321 306 311 307 300 299 299 300 301 303 292 293 289
206 208 244 235 132 141 237 185 213 204 197 197 208 214 216 216 276 298 286 291 360 459 419 494 457 389 364 351 347 318 305 304 292 292 288 288 290 282 289 295 291 300 287
255 226 203 135 271 223 212 209 190 200 203 212 218 218 226 292 288 288 288 311 452 539 494 442 383 359 349 339 314 305 295 293 296 300 290 294 292 280 285 277 290 301 290
201 208 274 250 216 207 185 193 197 203 208 211 219 231 284 289 289 294 342 451 528 496 431 375 351 328 316 307 298 299 304 308 308 308 301 308 285 274 267 272 285 288 300
286 248 200 204 199 193 194 200 204 214 207 222 237 284 293 286 296 357 492 534 496 410 362 340 320 309 301 303 316 308 335 365 364 389 419 395 401 373 332 299 270 277 290
210 206 195 195 196 198 202 206 212 228 223 244 286 294 283 296 357 439 513 487 391 352 329 318 306 302 311 312 410 415 419 427 430 412 398 400 403 407 394 346 307 279 266
193 195 199 195 201 199 210 213 214 234 250 289 291 287 299 475 436 511 478 378 344 327 313 306 305 311 298 296 296 362 234 389 405 404 397 392 389 390 393 376 276 286 256
199 191 198 199 197 205 209 217 228 251 291 292 290 293 452 432 518 482 373 337 323 311 304 305 307 320 379 308 237 366 363 357 354 372 382 381 381 387 389 395 393 366 271
194 200 195 207 206 203 218 231 253 290 291 289 294 479 442 513 516 375 337 322 309 301 309 307 289 342 349 296 338 345 343 352 357 359 377 389 384 384 400 408 409 357 294
199 205 207 210 199 216 232 253 290 290 290 296 557 446 473 521 385 340 322 309 300 304 295 272 311 325 239 339 348 344 346 346 342 348 361 371 374 378 388 429 443 413 349
209 205 209 220 221 233 253 291 289 293 295 533 504 507 506 418 347 324 311 301 294 295 280 279 324 334 328 333 338 326 326 331 326 330 341 356 381 382 398 433 438 448 369
205 199 218 230 238 251 293 286 292 303 506 497 496 490 503 359 326 311 300 289 293 285 271 255 294 301 318 313 313 312 298 306 312 318 320 324 356 393 411 439 430 424 446

GFSGL_2pvu_pres_009.txt.gz
Presure
211 236 232 213 202 201 189 186 178 172 168 170 171 191 208 212 209 199 178 196 191 186 174 179 188 188 196 198 202 214 223 266 238 265 247 223 162 224 222 191 251 349 166
213 219 233 217 202 205 192 183 178 173 177 168 172 205 205 203 196 178 189 184 184 173 183 194 192 200 199 206 216 234 260 279 259 147 168 216 163 231 282 345 517 522 506
216 208 230 218 205 204 192 184 179 169 173 178 174 203 207 205 184 182 186 180 177 188 194 196 197 194 211 175 256 283 263 189 199 214 210 185 262 333 532 525 511 452 439
217 208 227 220 213 198 192 188 181 173 176 174 188 192 193 172 183 183 181 185 193 192 203 194 197 188 231 245 231 235 224 207 191 228 243 303 337 527 515 466 431 433 379
218 204 226 220 211 197 186 187 181 171 171 180 186 180 181 175 187 184 192 193 194 197 191 205 224 260 228 141 228 198 175 215 238 254 315 383 528 496 433 407 377 363 373
218 203 225 216 200 191 187 189 174 177 176 172 175 182 193 191 190 193 192 200 162 194 212 238 237 267 137 216 207 163 228 239 272 323 491 529 493 422 389 359 361 357 340
215 201 221 205 193 186 185 185 182 182 172 181 190 189 184 192 191 196 177 197 203 227 260 239 149 223 204 207 221 226 239 305 317 499 523 480 414 385 353 347 340 341 344
205 220 209 193 183 186 177 181 186 173 175 184 183 185 190 192 185 193 181 217 262 246 191 138 204 190 214 218 231 266 305 320 521 504 491 410 384 370 352 332 324 324 330
219 213 194 181 185 172 185 182 183 182 181 184 188 192 197 196 168 181 167 246 271 218 143 174 206 214 232 232 280 304 317 521 487 495 405 385 381 360 333 314 318 319 315
213 187 186 176 172 172 185 180 177 183 184 190 194 153 187 145 222 218 274 250 216 138 202 211 207 229 242 308 306 342 521 488 458 398 376 378 347 335 313 320 315 311 302
182 183 178 175 172 182 163 181 183 186 192 198 195 193 144 150 281 251 236 188 200 208 180 214 229 252 309 310 405 513 492 427 388 369 378 340 314 325 309 327 317 304 299
183 176 172 178 179 182 184 185 191 196 195 132 200 142 156 206 213 215 206 203 214 208 224 234 285 310 314 528 514 479 406 384 368 373 340 311 325 321 319 313 309 307 298
175 172 181 183 186 185 191 192 194 186 128 151 159 155 163 215 212 201 203 217 206 221 235 301 306 322 526 493 455 396 373 361 356 336 317 314 306 306 301 307 309 309 299
183 182 185 187 191 190 193 184 203 143 251 205 154 202 205 203 201 206 214 216 224 239 298 304 348 522 473 434 387 369 356 347 342 327 306 302 289 293 292 285 285 296 303
186 190 190 191 192 186 204 219 255 220 229 250 214 209 201 200 206 212 224 225 248 304 312 453 513 453 411 383 369 358 348 332 326 302 296 296 294 295 291 283 288 280 294
192 194 190 195 204 216 252 219 269 230 229 214 202 203 203 207 215 222 219 303 305 314 539 493 430 395 367 352 332 318 307 304 305 307 307 305 306 313 317 305 296 290 285
184 203 206 217 243 211 284 260 231 214 203 202 201 206 211 218 228 230 302 302 311 468 459 405 379 355 334 318 305 308 314 323 324 451 442 424 421 434 375 300 304 262 285
208 228 235 208 269 201 231 215 204 194 201 171 206 211 218 228 300 301 300 307 433 457 394 370 346 323 308 308 319 317 348 250 386 425 415 406 401 407 418 432 371 279 266
241 236 252 153 195 218 197 206 198 202 199 205 206 217 230 305 300 300 309 443 458 392 366 339 318 305 317 309 378 331 243 306 366 383 401 401 395 391 394 407 377 406 286
252 221 150 212 193 205 193 202 185 203 204 211 222 270 306 302 308 310 423 483 394 366 337 318 305 317 313 359 344 285 363 370 369 365 388 392 388 389 392 399 381 399 295
226 174 198 201 194 196 202 182 206 200 212 226 272 297 304 315 310 425 498 393 366 337 319 303 315 315 358 366 242 245 364 358 362 369 375 381 388 388 395 413 400 414 299
164 197 201 194 198 203 201 214 193 216 229 277 302 307 318 316 504 525 397 365 338 320 303 306 330 284 367 361 316 341 333 331 333 353 367 381 378 381 396 422 423 376 296
195 193 196 194 200 204 219 185 219 240 298 305 311 323 408 509 520 405 366 339 321 304 296 323 299 325 243 323 322 322 317 317 321 328 357 386 392 399 420 446 447 360 293
191 200 192 202 204 220 209 216 255 297 310 312 325 455 538 504 417 367 342 321 306 294 292 317 319 329 323 316 318 314 307 308 312 323 341 379 417 435 427 445 425 358 289
195 194 199 215 218 223 222 262 295 308 309 336 621 492 656 452 373 344 322 306 289 297 322 317 316 263 317 308 296 301 299 309 306 322 334 364 421 385 425 420 427 364 288
204 189 221 213 217 236 281 298 305 305 334 521 618 691 501 379 348 323 306 284 305 269 258 310 312 295 306 306 297 289 296 295 310 312 317 357 402 440 412 431 343 308 286

GFSGL_2pvu_pres_012.txt.gz
Presure
245 249 242 235 219 215 212 231 227 215 210 199 200 197 183 184 180 168 175 181 174 198 198 193 180 183 185 188 191 193 198 200 197 204 229 282 251 257 209 220 157 208 244
240 248 242 240 227 214 209 230 228 222 213 210 196 200 189 182 180 174 176 179 196 197 192 184 182 190 191 193 191 200 199 210 224 299 267 252 208 213 220 234 251 267 340
238 234 246 233 228 216 207 206 229 227 217 210 198 200 193 183 188 179 174 181 189 176 185 188 196 192 195 195 182 208 220 223 262 137 167 187 155 226 238 255 315 381 503
232 239 239 249 229 217 215 207 231 231 218 210 205 195 196 186 184 178 177 186 168 183 194 188 195 195 176 204 211 236 251 141 215 219 206 224 234 242 295 339 525 480 441
228 240 245 251 249 227 218 215 211 228 221 212 198 195 185 180 181 184 180 188 179 188 194 195 195 201 194 230 231 265 227 204 211 221 229 240 249 323 485 509 460 421 395
234 231 239 244 253 237 222 215 216 227 217 206 197 188 185 188 185 178 188 182 189 194 195 199 154 216 237 257 223 140 216 180 230 238 244 311 329 533 486 431 405 386 355
223 225 229 237 247 261 224 207 230 219 211 199 185 181 186 182 185 185 186 193 194 197 190 157 218 255 173 195 194 208 216 231 242 256 324 392 518 488 425 392 380 364 345
228 233 239 243 247 266 218 202 223 215 200 180 181 173 180 190 178 189 194 193 201 159 155 187 191 215 180 184 205 229 227 242 294 330 522 507 456 410 389 379 355 331 325
173 249 254 247 263 264 200 219 216 191 180 171 177 184 175 187 192 191 197 194 152 219 162 181 202 205 213 206 221 234 241 313 344 509 488 427 395 380 383 349 331 319 308
251 249 264 269 254 203 217 219 180 176 167 180 180 185 188 190 192 134 196 166 194 232 168 237 206 213 211 222 238 247 321 518 485 451 403 384 376 390 359 323 329 314 315
269 259 246 209 216 221 194 183 172 145 181 186 189 187 186 194 171 206 219 167 266 247 225 206 211 219 224 240 275 332 493 464 409 385 369 365 357 347 324 327 319 319 306
215 210 218 223 186 181 181 179 178 186 189 184 187 192 152 203 214 200 245 258 238 205 211 214 216 227 240 314 390 468 432 396 379 366 364 355 357 341 313 315 300 300 291
224 224 189 183 184 180 177 187 190 183 187 192 194 201 209 220 257 260 243 209 202 210 208 217 228 241 326 461 436 403 378 357 334 325 317 312 307 306 303 302 307 298 293
190 188 180 185 186 187 189 185 190 191 195 200 204 212 251 184 246 227 207 207 212 205 215 228 278 324 455 417 387 350 331 319 312 310 316 317 316 317 318 312 311 304 309
184 187 187 187 189 190 186 187 198 201 199 209 250 263 247 232 210 199 210 210 204 216 230 323 323 458 410 380 346 328 317 318 334 342 381 267 308 379 372 429 374 313 303
181 188 191 191 192 195 200 196 202 208 180 244 248 234 210 199 183 211 199 215 219 237 329 366 455 407 372 339 323 317 331 378 388 388 255 250 249 410 407 413 430 442 374
192 191 196 199 201 193 202 220 224 154 247 235 209 170 198 177 207 209 221 225 318 334 546 448 402 364 334 319 307 335 367 369 331 251 253 376 367 401 394 390 402 426 372
198 200 198 195 219 260 189 157 246 232 218 213 157 200 188 204 211 217 246 321 340 498 444 399 359 332 317 318 356 382 349 362 251 361 366 374 383 393 392 394 390 406 389
196 221 258 240 136 243 154 229 222 213 165 199 186 212 216 227 223 296 321 340 545 440 394 352 327 312 329 386 375 318 253 338 335 341 356 371 380 381 391 396 405 407 394
243 151 245 250 240 178 226 221 209 203 196 182 213 224 196 192 307 317 463 540 441 390 350 323 307 308 348 349 339 301 326 328 329 344 356 376 387 385 386 395 412 413 395
241 229 138 259 232 222 216 200 204 198 166 218 223 222 310 305 320 539 524 441 390 348 322 306 301 327 322 321 283 321 320 317 322 356 370 389 414 413 416 424 439 417 377
243 136 161 179 228 199 203 203 211 216 223 218 260 312 304 326 648 530 445 390 350 322 302 294 291 320 317 309 310 308 312 314 319 364 378 420 430 419 429 444 447 393 302
235 235 190 221 206 212 197 216 174 218 234 301 311 308 330 522 643 459 390 349 323 301 307 297 311 317 310 316 308 294 299 306 326 367 390 428 397 425 435 439 376 324 276
222 208 211 212 218 213 224 221 218 250 300 306 308 341 701 691 458 389 349 322 298 305 289 314 277 313 307 307 319 306 292 298 335 352 389 430 419 416 423 380 335 282 266
214 216 216 217 222 216 213 253 264 296 304 307 361 701 686 451 381 347 314 297 309 283 275 317 246 298 296 307 311 310 300 300 294 344 367 412 445 434 359 350 295 274 264
214 217 214 217 173 248 250 267 295 303 307 351 688 524 458 377 340 311 295 306 298 265 318 242 310 293 295 290 288 308 298 304 327 331 353 376 424 345 345 304 282 274 271

GFSGL_2pvu_pres_015.txt.gz
Presure
220 230 222 236 254 243 254 250 248 240 233 220 227 229 229 227 225 216 210 205 195 198 197 188 182 186 184 181 179 190 188 182 188 192 201 210 215 237 244 281 191 150 192
216 231 222 228 229 251 248 246 243 246 233 224 224 221 236 233 227 218 214 209 208 205 199 197 183 184 183 180 188 189 183 185 167 206 212 227 234 280 169 211 195 228 240
242 226 222 226 244 242 240 241 242 239 243 230 224 218 214 232 230 223 218 211 208 206 197 196 183 182 189 183 187 184 180 203 214 221 239 241 193 259 202 222 220 247 249
234 230 225 237 249 239 239 236 240 243 239 230 224 217 212 208 233 228 221 216 210 202 198 183 186 188 184 189 186 199 208 162 212 228 220 269 201 225 227 241 245 258 459
236 225 231 257 239 230 229 235 234 240 250 240 230 223 216 204 236 230 223 215 208 197 182 185 183 188 186 194 203 213 206 229 205 245 263 211 217 228 243 250 328 523 460
218 214 235 235 235 236 225 235 241 241 242 253 246 229 221 207 236 227 223 214 182 179 180 183 188 187 200 203 180 227 227 178 263 259 221 228 238 248 263 516 493 430 405
206 222 209 233 229 227 224 225 228 229 236 243 256 239 216 203 232 225 217 178 178 184 181 185 186 149 136 174 216 181 212 232 230 229 229 238 248 492 481 424 399 390 380
208 215 218 229 220 224 224 227 234 236 240 243 259 253 206 206 225 188 176 184 183 183 191 197 150 213 224 189 210 265 231 215 241 224 237 253 470 427 406 390 377 379 379
234 219 230 216 222 227 228 236 244 240 249 267 263 208 214 223 177 184 181 183 190 193 201 207 214 222 218 266 234 222 216 230 233 240 283 433 412 398 384 381 362 370 346
216 215 216 224 227 166 241 243 258 265 255 248 214 219 180 186 179 182 187 193 200 195 211 223 222 241 260 197 221 217 228 237 242 431 402 377 356 347 335 328 365 354 328
215 220 228 236 248 263 270 258 244 223 216 206 178 177 179 182 189 192 198 198 209 217 220 229 261 253 217 220 221 231 238 272 422 394 368 349 336 326 326 328 326 321 309
243 273 282 269 248 235 220 215 196 188 189 185 183 186 189 191 197 199 208 214 192 218 261 254 216 213 211 227 233 241 377 412 387 362 343 332 332 374 396 394 376 279 265
241 233 224 215 216 222 206 189 186 187 185 186 189 192 197 201 207 210 177 218 261 192 202 217 210 217 231 234 246 441 403 376 351 332 330 397 394 399 401 398 257 423 441
218 219 222 216 180 187 187 184 182 188 193 193 198 203 206 211 221 221 262 234 242 196 213 212 225 229 241 338 427 397 365 339 326 366 393 390 384 386 368 250 414 414 418
225 218 194 189 185 184 187 191 194 196 200 202 204 209 213 220 254 245 240 190 215 207 213 225 237 275 458 416 386 351 332 379 389 371 360 357 360 299 380 392 403 407 404
189 185 186 190 191 193 197 200 201 200 170 209 212 245 241 242 239 229 200 213 205 223 233 240 383 450 409 374 343 330 381 360 354 347 345 325 354 360 377 384 400 401 397
191 192 195 196 200 202 201 201 203 228 273 265 243 241 183 228 214 215 214 222 230 234 325 513 443 398 361 334 331 344 336 340 325 328 339 334 368 369 382 388 389 401 396
193 198 202 201 201 208 242 250 241 252 267 245 220 173 228 212 211 218 229 225 259 373 537 436 390 354 331 321 334 326 324 318 320 323 331 380 385 407 413 403 394 400 399
204 208 227 200 210 258 282 201 244 249 242 205 232 221 217 225 227 225 278 326 454 539 434 382 349 325 318 334 324 319 317 308 311 340 366 409 431 417 420 433 418 411 417
203 229 241 271 279 242 196 217 228 232 225 214 219 224 224 214 293 320 324 627 541 423 375 342 323 323 322 324 293 318 330 327 315 342 408 434 407 419 432 434 453 462 402
237 252 277 155 233 236 231 222 211 217 219 222 220 219 263 306 322 342 545 545 418 366 336 318 317 325 324 308 310 331 318 318 315 365 417 429 417 412 436 442 423 377 304
283 256 151 231 216 214 214 217 214 221 216 196 264 300 266 322 381 695 529 414 359 328 311 318 317 323 314 308 305 305 322 319 337 361 394 415 431 424 405 391 354 293 279
225 209 140 213 210 211 219 217 214 215 257 295 295 272 320 357 684 483 401 351 322 308 323 299 315 319 248 299 299 294 316 309 329 354 389 411 429 382 360 325 290 278 265
215 204 206 213 218 220 212 213 222 278 290 290 307 325 347 579 466 393 343 319 305 324 292 279 321 320 299 295 307 295 282 304 324 353 381 382 354 346 307 287 276 264 286
207 215 215 211 213 213 212 252 286 275 287 305 322 372 572 479 393 342 318 305 308 309 279 270 309 317 318 295 313 301 279 305 315 348 369 335 340 313 289 277 271 265 297
212 210 214 218 189 205 263 285 286 282 304 321 517 701 541 401 343 317 306 292 319 291 274 266 289 314 315 308 300 304 280 281 303 324 357 362 365 298 286 276 271 283 333

GFSGL_2pvu_pres_018.txt.gz
Presure
224 216 223 223 223 230 233 224 216 196 235 230 251 258 251 259 254 240 230 226 216 229 228 231 232 226 224 218 216 215 216 212 205 200 191 183 192 193 153 182 158 231 245
233 226 226 220 229 234 227 219 222 223 232 259 252 245 245 244 254 244 237 231 228 223 226 227 234 233 230 228 220 216 212 216 204 195 184 189 195 191 146 183 239 255 180
253 252 248 235 237 229 221 217 215 220 224 250 239 239 242 240 240 241 243 237 231 223 221 216 227 241 239 234 229 221 216 195 190 192 193 196 157 164 226 244 246 215 235
251 254 244 251 236 219 232 235 228 224 230 248 237 240 237 232 234 242 250 250 238 234 222 214 206 236 244 236 230 222 188 190 194 193 205 172 223 235 227 212 220 234 238
237 237 187 241 207 240 235 228 223 238 252 234 225 225 235 238 238 238 245 251 255 255 233 219 208 228 243 234 190 190 192 192 139 205 215 226 237 256 221 194 234 240 250
225 257 235 235 239 227 224 213 235 228 230 233 232 221 226 232 234 236 241 244 258 265 243 216 213 230 234 188 192 191 194 135 215 220 234 252 277 214 237 234 244 255 385
249 224 228 228 223 230 233 226 246 232 233 216 223 226 229 241 237 242 242 254 270 265 220 216 230 186 192 192 192 201 210 215 229 246 260 217 231 235 242 250 305 389 365
230 237 230 216 204 205 221 206 227 213 219 225 230 232 237 240 241 250 265 253 249 218 224 205 191 189 193 199 207 214 221 236 248 252 218 237 236 248 256 410 387 365 343
238 218 210 208 206 228 216 224 229 217 226 233 236 242 246 253 251 239 228 220 225 196 187 191 192 197 209 214 220 236 241 274 221 226 238 242 252 268 393 377 359 345 333
204 212 213 246 207 212 225 216 217 227 239 242 251 259 230 218 218 224 198 183 190 191 194 203 207 216 224 236 242 274 213 219 235 236 249 260 394 373 360 349 413 421 422
212 209 207 211 215 217 223 225 239 245 265 250 214 211 221 194 188 184 191 192 194 201 176 216 223 233 239 266 202 222 229 238 244 251 324 377 359 365 397 386 376 381 406
208 209 213 215 217 221 232 250 271 209 209 215 223 189 182 187 186 192 199 204 211 215 220 230 246 261 255 246 231 236 243 248 312 388 363 361 380 365 356 355 352 366 380
215 215 215 224 241 282 217 206 218 221 188 189 184 183 189 195 199 205 211 217 220 261 256 202 254 246 233 232 244 243 265 401 372 349 362 356 351 340 340 354 349 383 381
260 288 269 206 207 212 215 216 212 185 184 184 189 196 201 205 183 223 261 268 262 205 250 244 233 240 241 243 255 424 389 360 349 349 344 338 327 324 357 366 397 389 386
207 209 212 214 215 213 198 183 185 187 192 199 203 208 227 252 260 245 222 246 208 240 231 235 233 241 256 453 413 378 349 344 343 341 336 332 320 371 412 416 419 415 405
216 213 216 218 184 187 189 190 198 204 211 235 178 271 260 251 227 242 235 228 229 227 223 238 318 519 446 402 368 345 346 340 331 339 339 324 373 437 437 435 440 439 424
222 223 188 191 191 202 205 215 223 245 271 268 136 221 236 175 189 199 226 217 227 237 337 360 506 441 394 354 334 340 334 323 335 267 352 376 451 425 417 433 427 449 427
197 212 215 214 213 214 233 239 256 263 247 135 228 192 218 224 225 216 227 258 312 339 577 492 430 379 342 329 338 329 322 318 252 342 366 423 433 439 424 436 447 464 430
205 204 220 234 238 240 262 273 246 229 223 216 213 222 226 215 224 259 292 319 341 597 477 414 366 331 324 340 330 321 316 260 326 354 403 435 451 421 426 443 428 395 359
239 254 261 276 287 279 232 222 214 174 213 218 224 213 216 241 296 294 323 362 563 454 396 344 325 310 334 330 326 310 253 307 319 370 415 433 409 408 393 374 332 306 294
268 270 259 226 218 213 212 209 162 217 215 215 226 234 289 297 312 321 360 520 433 380 335 320 306 324 297 284 319 254 313 296 339 375 404 366 368 378 316 298 288 282 272
220 215 211 213 209 203 199 215 214 215 224 229 243 284 303 319 324 355 506 429 376 330 317 307 314 289 328 323 317 312 314 290 335 370 351 351 332 303 288 284 276 271 335
206 209 208 175 172 174 210 214 215 226 234 246 296 308 318 332 358 519 439 383 332 315 301 321 307 283 325 302 311 310 303 282 327 360 338 336 302 290 281 275 269 334 340
211 194 147 159 211 210 210 220 230 225 238 302 303 321 356 422 541 453 390 337 319 304 293 311 302 278 243 321 224 312 298 282 319 347 371 330 294 286 275 272 265 352 324
137 153 162 217 214 213 221 224 237 150 305 320 335 406 673 532 473 399 337 318 304 292 306 315 327 242 325 323 205 297 298 286 310 334 367 340 293 282 275 271 294 330 308
156 188 214 213 213 153 229 238 200 258 323 364 624 578 647 510 403 336 313 300 299 303 286 299 307 323 320 336 296 317 302 293 300 320 348 362 293 285 277 270 333 325 313

GFSGL_2pvu_pres_021.txt.gz
Presure
261 253 240 235 231 227 181 211 205 213 220 213 221 232 242 221 222 212 226 253 247 246 255 254 251 254 257 253 241 237 227 234 234 233 238 244 241 239 237 234 233 228 199
264 274 264 258 248 241 222 216 216 217 219 216 234 227 232 217 230 220 225 250 244 242 239 242 246 245 252 256 261 246 245 231 228 220 216 217 247 251 253 246 213 195 194
247 257 261 257 250 240 221 214 217 222 227 233 221 228 213 231 226 222 250 250 235 231 236 241 244 247 246 251 259 264 267 245 233 224 217 219 240 253 247 197 194 202 171
347 246 261 252 230 217 220 225 235 240 224 232 222 216 232 224 224 254 239 237 235 232 229 230 238 240 241 250 252 263 273 270 265 228 218 239 241 199 197 169 207 214 224
200 234 242 244 238 232 230 240 222 230 236 223 216 232 217 224 236 239 235 229 226 229 239 243 257 256 257 270 275 184 257 255 233 230 228 201 199 204 213 214 225 246 284
329 246 101 223 224 259 231 243 237 228 215 228 225 218 230 224 225 226 223 225 236 239 251 260 263 263 251 244 240 234 226 228 213 198 195 204 213 219 231 256 293 191 219
224 223 225 232 224 230 238 203 219 225 223 214 234 225 213 230 218 217 232 236 248 261 263 233 227 225 231 229 214 206 199 201 204 210 217 226 241 265 273 207 218 254 265
246 234 214 217 248 222 218 219 221 229 241 201 204 223 219 214 227 245 259 267 238 222 223 233 220 205 194 194 200 202 204 216 223 231 267 282 252 229 248 257 266 341 378
225 216 206 227 217 220 227 215 222 212 207 213 216 219 229 235 245 255 219 211 226 208 197 193 189 200 202 207 211 219 225 275 278 276 217 256 248 258 266 382 383 381 378
216 204 221 226 227 225 200 215 216 213 200 214 246 230 231 241 209 217 222 190 194 191 195 203 207 212 215 230 266 269 265 241 255 234 247 255 281 404 391 375 378 369 354
224 231 227 222 213 215 209 201 205 213 224 227 231 211 220 219 222 195 190 189 194 202 206 212 233 270 262 259 252 208 236 233 242 251 331 402 384 369 361 364 358 360 352
241 233 235 221 238 198 215 216 217 227 222 215 233 218 197 182 187 190 197 201 204 223 261 263 257 250 216 226 234 234 236 255 445 413 392 367 354 360 351 352 354 358 420
241 231 216 228 224 221 225 230 220 223 231 190 182 185 184 188 194 200 205 263 265 253 247 235 217 227 237 216 237 254 473 427 403 375 350 350 348 346 355 378 431 452 443
215 216 218 219 224 222 223 228 234 183 184 187 187 190 193 202 240 256 136 248 231 235 231 222 237 174 241 266 441 458 413 388 359 342 344 339 339 345 410 447 440 426 426
246 249 248 247 246 241 229 204 190 186 188 189 202 224 241 271 257 162 227 231 220 228 227 232 229 271 355 504 443 404 372 346 330 344 332 330 316 435 445 448 444 443 449
211 212 211 209 207 196 189 183 188 212 223 229 236 266 255 230 224 222 219 224 227 221 236 260 326 353 483 427 389 358 332 327 341 330 325 307 438 458 430 439 457 464 465
207 197 192 192 213 212 213 224 233 236 237 284 254 224 220 217 217 224 225 223 236 254 306 328 359 469 418 370 343 320 339 339 308 323 318 430 389 417 420 407 405 384 375
215 213 210 210 231 235 239 246 263 291 235 219 212 216 213 221 219 221 214 244 263 326 332 362 451 404 352 328 309 340 289 290 325 316 399 368 381 382 351 332 319 312 302
251 279 280 270 267 261 248 230 213 212 218 213 194 217 215 215 226 244 255 325 327 339 371 438 393 344 319 304 323 286 305 308 318 295 356 365 346 317 307 300 294 288 281
235 229 226 222 221 220 219 215 214 206 161 212 212 211 214 229 255 310 327 333 365 476 430 390 344 319 301 319 294 278 270 320 308 365 347 336 309 301 291 286 281 273 331
225 220 219 215 213 211 214 191 168 212 204 217 124 222 232 260 319 329 365 570 485 426 389 346 318 303 293 315 281 256 320 210 298 362 344 315 299 290 286 278 273 343 330
215 221 213 210 208 208 201 196 182 198 214 214 225 228 262 197 345 590 630 491 425 385 343 315 304 292 317 278 286 337 216 216 297 355 383 312 294 286 276 275 286 332 320
213 217 198 205 202 143 158 212 214 216 218 182 218 252 331 432 503 375 431 426 383 336 310 302 303 320 275 315 322 350 319 282 295 346 374 310 291 288 282 277 346 318 326
218 211 210 206 145 160 214 218 215 219 136 242 242 357 505 615 724 499 428 376 323 307 298 321 296 267 323 324 316 350 322 307 295 333 360 333 293 286 280 275 329 313 282
244 215 163 204 162 229 229 215 221 230 223 262 454 662 631 683 500 417 332 314 305 307 301 280 275 326 244 329 361 307 300 306 295 319 346 362 296 287 281 280 327 309 321
242 145 152 163 193 225 213 220 225 220 245 319 391 369 494 342 326 312 302 315 288 279 306 262 334 333 322 310 295 301 322 308 297 307 329 347 301 287 282 353 316 313 324

GFSGL_2pvu_pres_024.txt.gz
Presure
253 242 253 247 243 228 220 215 212 206 209 212 213 213 219 213 203 212 220 217 235 222 225 236 238 238 259 256 245 237 241 242 242 250 249 246 248 251 257 262 263 262 259
136 327 321 307 265 257 243 239 220 211 209 215 214 219 217 220 217 207 215 237 226 226 235 233 229 243 240 242 241 236 234 238 240 251 252 244 256 255 261 265 269 275 269
128 201 320 323 334 274 256 252 242 233 228 226 227 229 226 222 190 221 234 224 227 230 225 237 236 232 232 231 237 241 245 263 273 282 272 269 263 260 261 260 261 258 254
336 339 329 325 339 248 285 252 244 238 241 242 240 210 221 193 225 231 223 230 230 224 222 224 231 226 230 239 264 270 278 259 249 239 234 232 234 237 234 229 222 224 206
421 361 321 390 278 247 269 245 245 244 243 233 225 211 180 225 225 235 229 232 225 202 219 221 220 238 253 261 256 231 225 233 232 220 216 213 212 203 198 200 204 205 207
410 333 126 94 152 225 230 240 238 229 225 222 234 220 183 227 231 227 230 227 204 221 218 237 253 271 234 218 218 216 208 209 206 198 193 195 202 207 214 275 266 254 246
322 325 301 275 290 227 239 236 230 225 240 220 228 187 222 225 219 237 200 203 215 240 239 238 228 221 230 213 203 198 192 197 208 216 238 273 268 254 245 244 233 253 294
274 276 224 236 229 238 225 218 229 211 196 193 220 206 213 225 253 191 225 236 239 232 213 225 220 207 194 194 194 201 210 246 264 261 253 244 236 238 247 277 343 410 405
257 200 232 234 225 226 206 214 204 172 226 216 214 221 227 234 215 228 232 228 218 237 215 197 190 193 208 204 232 243 254 245 238 238 239 231 245 312 429 420 403 385 372
226 202 209 222 222 214 212 205 212 205 216 214 234 204 215 226 237 217 219 232 204 192 192 193 201 204 258 155 249 238 230 234 233 243 244 311 416 408 397 381 370 360 364
227 219 219 197 221 239 239 226 224 234 235 202 212 216 219 220 212 217 197 190 185 203 202 203 210 144 178 233 227 228 230 235 240 275 372 419 391 370 355 349 362 357 443
218 216 223 222 224 219 235 235 237 211 214 214 224 221 211 224 194 189 193 197 203 222 242 270 238 219 224 227 227 235 242 266 314 445 405 378 356 341 353 351 410 459 451
228 229 238 229 228 250 218 214 217 216 222 229 214 209 190 188 196 200 206 225 238 258 233 212 222 222 223 228 242 256 307 358 431 391 361 345 325 354 343 459 410 443 453
233 231 234 232 232 226 227 228 225 226 231 195 186 189 202 202 212 223 236 247 218 217 219 221 221 222 152 253 290 334 379 421 366 347 330 336 347 342 394 416 420 436 451
247 241 241 237 239 239 241 225 224 194 199 202 208 209 213 227 238 248 203 144 217 221 216 216 230 244 282 313 352 438 406 358 338 324 316 298 338 382 400 368 353 347 341
213 217 220 219 202 194 193 214 210 206 205 207 228 241 250 250 220 139 216 213 214 215 223 240 261 310 332 375 443 388 350 332 319 330 293 303 396 379 339 326 315 304 302
197 200 218 219 215 210 208 204 233 244 252 289 266 222 211 215 140 215 220 214 217 161 249 302 318 355 462 425 374 344 329 312 317 301 278 319 364 339 317 307 297 289 285
209 205 203 213 254 250 246 240 230 219 215 205 214 209 146 181 209 218 212 220 136 259 321 358 507 453 409 367 341 321 305 320 304 288 292 255 350 316 305 295 286 282 277
240 246 234 233 225 222 222 219 218 215 214 219 193 199 207 219 217 215 185 209 330 360 435 385 381 402 359 338 319 302 316 306 291 323 207 337 340 309 300 289 279 276 331
237 235 232 225 225 218 222 220 200 204 200 209 211 217 221 205 198 241 337 559 628 554 377 419 395 356 335 316 297 323 322 332 337 315 288 384 336 301 294 287 278 266 322
235 230 226 224 222 225 214 205 209 144 212 164 206 225 212 150 137 397 622 737 535 465 425 381 348 327 304 310 329 279 341 320 326 230 301 379 333 300 292 279 272 327 325
227 232 231 232 233 229 228 231 215 160 211 234 217 199 214 165 362 361 738 507 450 397 349 327 307 314 306 277 332 332 295 359 318 324 300 372 331 297 287 284 286 321 315
224 223 243 253 251 247 225 237 154 197 221 198 148 234 224 334 371 338 320 311 307 303 299 291 288 285 309 327 330 234 342 339 314 317 303 357 336 295 290 283 338 314 325
218 217 234 246 244 235 222 153 209 238 180 134 215 252 274 391 359 326 311 297 297 294 292 316 304 311 266 329 325 319 308 303 320 315 303 347 343 296 286 280 334 318 330
226 232 235 196 238 147 185 215 221 220 228 243 244 281 337 373 346 321 309 295 290 285 294 283 260 246 243 312 338 301 295 297 317 315 302 334 341 294 284 322 321 329 334
218 223 227 232 234 188 223 221 218 237 217 225 267 305 393 357 335 317 306 299 284 288 337 289 304 253 233 264 316 315 294 291 297 312 304 310 335 297 278 311 325 335 316

GFSGL_2pvu_pres_027.txt.gz
Presure
121 167 261 261 260 259 255 250 241 233 225 221 225 220 206 206 209 206 210 204 211 211 207 215 225 220 221 235 230 232 221 225 233 232 230 229 252 271 284 265 259 258 259
281 283 269 126 133 266 243 239 243 235 229 233 226 215 213 207 204 210 203 205 207 207 216 225 228 227 236 230 236 225 212 217 220 228 266 258 248 244 240 231 229 228 232
306 318 309 294 155 282 281 283 280 284 246 237 234 233 217 214 200 204 205 210 214 152 226 226 212 225 228 237 232 212 212 216 228 252 237 227 224 228 224 219 209 207 205
406 386 319 312 265 265 277 283 293 210 292 285 240 199 232 227 224 224 215 154 222 233 192 220 233 228 238 225 207 209 232 231 261 225 231 228 220 209 204 196 189 193 195
347 350 355 358 306 156 218 275 188 281 199 193 261 256 236 235 230 191 226 179 206 224 225 231 231 241 242 207 212 223 218 254 218 218 217 202 195 193 198 244 251 246 193
415 374 352 348 348 344 343 329 311 234 156 152 280 246 231 229 234 232 219 214 215 227 222 229 239 215 202 219 216 242 235 221 218 194 195 194 285 253 241 154 240 237 244
365 422 423 432 414 364 360 346 339 196 307 278 239 239 234 224 206 190 216 227 236 249 242 214 215 204 238 241 246 211 209 194 196 249 261 248 172 179 240 234 258 271 316
299 295 310 320 312 287 273 255 247 244 238 236 231 227 180 194 212 216 217 249 205 222 225 231 229 234 236 216 200 189 193 242 248 200 225 232 233 236 253 268 291 453 412
278 256 251 251 230 230 239 225 235 232 217 228 213 194 213 222 204 235 238 212 213 222 223 215 227 206 194 199 223 233 239 220 145 223 228 226 242 257 270 330 428 387 363
243 232 238 194 196 226 216 161 221 238 215 224 224 222 216 234 240 205 210 217 220 211 221 200 198 196 211 226 234 238 241 172 224 223 237 248 259 281 436 410 369 347 378
242 232 217 230 206 228 222 251 218 214 205 238 233 217 219 228 231 240 234 217 215 206 194 211 214 224 230 236 234 216 218 217 224 237 243 257 305 418 388 356 340 364 419
224 238 229 227 217 225 219 227 206 233 201 215 228 216 218 224 217 218 213 193 196 209 213 224 229 235 238 203 216 217 222 226 237 246 272 360 409 374 349 327 355 397 366
239 227 227 232 234 226 225 240 209 236 226 244 212 213 221 215 198 184 200 204 215 220 228 234 207 209 203 216 219 222 228 242 260 303 432 397 365 340 325 347 382 351 335
242 245 229 235 227 236 225 225 229 224 222 220 227 226 195 195 205 212 217 227 231 238 165 169 195 211 214 217 226 240 255 288 429 416 380 356 332 323 352 351 351 326 313
236 237 235 235 236 236 239 243 206 203 198 197 203 205 207 219 229 236 239 226 210 176 211 207 209 218 178 234 269 311 472 437 398 374 348 327 323 343 332 342 251 313 302
212 211 212 215 208 198 195 204 215 211 206 207 224 240 248 254 223 208 206 196 201 209 223 210 217 228 376 507 493 447 366 386 366 342 320 319 337 344 318 214 321 306 293
221 220 217 201 202 203 204 234 245 248 244 234 219 206 209 210 206 207 202 207 225 231 125 219 406 394 518 461 372 396 381 355 332 309 326 339 337 330 219 343 310 298 289
209 210 220 219 246 237 233 229 218 216 215 212 213 216 198 204 164 204 214 231 216 148 425 380 469 485 450 416 390 364 339 317 324 337 348 341 338 310 278 330 303 290 284
221 222 247 240 234 228 225 222 222 223 223 223 210 175 215 204 188 141 144 187 243 405 376 338 433 431 396 350 325 314 321 337 343 346 322 337 322 301 365 315 297 290 279
214 223 226 222 219 221 222 224 259 262 254 251 186 240 229 192 151 210 141 324 240 366 340 328 316 311 299 297 332 336 345 337 308 329 357 328 306 372 340 303 291 286 278
220 218 221 221 217 217 215 221 239 238 238 192 243 213 213 171 233 237 292 386 370 344 323 306 300 325 342 354 341 274 339 331 347 318 325 321 302 364 327 299 288 278 321
222 222 218 219 218 218 220 233 234 242 241 172 228 219 247 224 258 295 341 382 352 330 315 300 296 322 341 331 257 243 332 345 301 305 329 313 310 357 313 293 284 333 325
216 224 223 221 223 223 219 222 234 238 198 220 233 228 229 254 164 310 347 366 341 321 310 302 293 349 323 311 252 238 323 346 299 295 314 312 312 349 305 289 315 323 341
223 219 217 223 226 229 233 225 233 192 180 164 223 233 252 279 299 323 376 354 333 315 306 296 299 324 306 304 300 236 324 324 308 293 297 312 311 337 292 283 317 336 307
222 223 220 224 227 227 229 232 144 172 175 226 246 246 276 291 302 324 373 343 327 314 303 292 298 320 304 297 290 233 309 321 319 297 291 318 308 335 282 290 330 326 295
222 225 221 225 223 224 192 143 198 199 235 227 255 272 282 298 310 337 365 339 324 316 303 289 294 318 309 293 275 282 305 314 320 305 289 317 308 327 279 302 342 296 291

GFSGL_2pvu_pres_030.txt.gz
Presure
262 228 261 210 111 256 261 265 244 174 267 258 253 252 249 246 243 239 232 224 215 209 203 206 206 204 208 205 207 211 218 143 239 224 235 241 228 220 215 218 232 243 227
282 173 280 279 278 272 271 137 231 240 213 242 243 242 242 240 238 234 230 223 213 206 210 213 211 178 171 204 180 219 221 232 239 236 241 238 224 212 220 236 223 218 221
456 417 411 310 297 304 300 287 275 267 264 126 243 235 227 221 224 227 227 227 220 215 204 200 192 204 193 186 226 227 242 248 238 240 223 223 221 221 226 254 244 222 246
377 384 423 385 371 323 294 291 300 291 274 267 177 257 217 198 239 223 223 225 221 219 218 209 220 169 226 226 226 244 245 232 237 226 222 212 233 261 250 231 203 193 208
405 381 353 356 355 366 395 311 289 286 157 255 289 135 196 282 258 264 282 254 178 218 220 225 166 221 195 215 240 235 243 231 216 216 230 241 242 215 195 218 224 231 223
349 423 386 354 349 358 367 362 387 309 290 279 241 187 151 253 177 281 283 263 251 230 160 224 226 219 246 239 235 214 217 212 226 231 225 220 189 197 251 226 228 147 222
309 357 436 419 354 349 347 360 374 357 348 260 183 171 265 265 262 281 151 173 231 215 219 223 231 234 230 235 206 215 228 229 220 204 198 238 242 237 229 226 232 233 238
287 291 303 302 297 298 307 334 342 345 315 319 307 327 322 308 249 198 195 195 184 216 229 206 232 247 227 222 239 231 245 209 213 229 238 241 242 229 232 230 235 238 240
221 253 263 266 268 268 264 268 267 266 262 232 252 242 220 232 218 229 222 207 229 235 239 237 209 233 242 224 223 198 213 226 230 240 242 218 228 228 233 234 238 244 254
202 230 223 255 251 210 236 184 183 227 218 238 171 230 229 180 227 190 231 234 241 215 228 243 218 221 207 198 215 227 228 236 237 216 225 228 230 231 241 239 248 266 334
234 239 219 222 250 249 246 229 230 246 240 207 238 212 243 239 247 236 215 210 218 222 216 221 195 204 214 229 229 237 231 183 218 225 227 231 237 239 241 278 335 379 361
243 232 254 233 225 237 216 213 227 214 223 238 249 224 226 215 222 224 227 225 222 225 203 211 216 225 229 234 232 182 215 219 230 227 229 237 239 287 415 389 370 353 347
230 230 230 228 228 238 245 236 227 237 233 245 222 220 223 214 220 220 203 210 211 211 217 226 235 244 222 182 207 216 221 227 229 235 239 429 420 369 381 360 342 341 356
228 232 236 229 229 230 232 229 231 229 228 230 241 207 207 209 212 211 206 218 229 240 239 213 182 214 211 206 213 203 227 234 241 451 388 373 391 368 346 327 344 356 332
207 224 213 213 213 212 206 213 206 206 211 206 205 205 213 230 240 241 236 223 215 219 186 174 210 205 219 223 231 230 252 451 422 403 391 371 347 328 314 352 359 332 387
226 223 219 214 210 209 199 208 214 229 233 233 232 228 223 219 219 216 216 219 208 145 203 210 203 222 233 238 241 355 327 391 387 354 331 313 325 350 351 356 334 377 351
219 202 204 220 222 237 238 236 232 231 231 230 227 226 226 225 226 229 218 236 249 241 234 206 226 217 377 360 337 321 316 305 308 345 350 347 351 335 355 329 367 360 320
206 202 220 220 213 228 230 227 224 222 223 217 240 250 251 249 222 239 154 193 205 193 131 229 331 373 355 335 317 307 325 360 361 359 345 341 353 353 333 317 374 327 304
214 205 208 221 222 221 222 223 221 223 222 216 217 223 225 184 155 227 222 219 188 171 315 358 374 352 335 321 306 305 341 331 282 260 327 312 310 333 318 358 343 310 297
204 207 212 220 224 224 224 222 222 220 222 221 217 217 226 230 217 222 214 222 247 315 326 386 357 337 325 314 322 328 319 335 295 248 241 305 330 325 321 356 315 298 292
204 209 205 219 217 216 223 225 223 225 225 228 232 178 148 163 232 236 281 239 313 318 336 368 345 326 318 307 334 313 308 298 323 243 234 303 301 317 336 341 300 291 323
206 204 206 212 217 224 225 221 224 224 225 150 206 173 230 236 243 257 292 305 311 324 381 358 337 321 310 297 329 310 301 289 288 250 332 306 295 312 337 313 292 315 342
195 205 205 215 218 221 224 227 226 226 193 226 173 237 232 252 270 294 308 314 320 356 368 349 333 316 304 292 314 311 301 290 282 307 329 316 295 312 338 299 299 328 326
204 204 216 220 215 219 226 227 227 227 202 233 231 198 258 262 283 308 279 311 335 378 360 341 331 315 302 286 299 311 303 287 243 316 323 326 299 309 328 293 312 341 299
206 212 214 212 220 223 225 228 228 226 228 170 177 250 258 277 296 270 309 323 393 370 354 339 329 315 300 287 296 306 294 274 334 332 325 335 302 308 319 296 329 297 296
214 214 214 216 222 227 228 222 228 231 221 238 251 264 263 297 269 288 315 407 389 365 350 338 327 310 292 295 301 307 328 345 195 344 335 338 307 315 293 312 335 299 303

GFSGL_2pvu_pres_033.txt.gz
Presure
214 176 272 275 275 277 184 281 276 274 271 169 229 172 268 270 272 270 257 247 240 239 239 236 219 218 228 225 215 213 212 210 197 176 206 198 191 228 231 242 252 226 239
267 277 278 280 301 303 334 315 306 299 278 268 260 255 248 240 236 235 241 260 250 241 234 228 219 230 224 207 222 218 216 216 152 162 212 229 234 244 236 249 240 229 225
288 306 303 315 335 360 356 358 358 345 331 297 281 259 245 244 246 234 233 227 228 224 229 223 222 225 224 227 214 165 186 152 194 232 217 243 245 247 247 226 228 218 230
298 251 305 370 365 361 373 243 425 381 367 358 294 279 269 248 241 245 241 235 163 220 222 225 188 219 220 163 193 163 213 183 160 217 232 228 241 234 213 218 226 248 193
244 292 323 462 420 402 377 351 337 350 355 344 318 313 280 126 113 162 154 147 139 232 213 235 221 219 201 185 219 216 180 225 226 236 234 245 233 216 223 226 222 222 245
276 290 247 464 410 380 352 338 356 352 357 346 330 320 307 267 269 281 131 171 202 155 260 259 275 162 168 172 169 238 236 227 235 225 244 213 218 235 224 202 248 244 210
269 222 297 307 311 317 342 335 336 350 348 374 350 331 320 259 254 264 272 234 164 260 223 271 260 247 185 197 214 190 229 237 238 210 235 235 211 231 240 251 215 222 231
208 244 230 283 275 252 286 332 315 328 300 297 352 337 334 282 265 216 234 275 207 242 173 234 221 183 236 202 234 237 237 225 218 224 228 214 244 251 231 217 226 226 234
231 221 233 198 236 269 278 274 274 276 280 277 278 278 275 280 331 299 305 256 190 240 228 227 239 217 225 233 223 208 225 224 230 216 239 247 239 221 221 227 231 241 237
220 214 233 233 206 193 237 190 261 209 248 275 203 232 206 255 257 259 254 243 237 218 239 243 238 218 215 219 223 222 215 223 232 239 212 161 215 227 229 235 240 240 250
240 237 242 239 236 240 237 222 231 230 230 223 228 218 217 214 213 222 223 217 221 217 228 224 218 219 222 225 223 225 235 239 240 165 215 219 227 235 239 242 249 253 331
229 237 239 239 228 232 238 232 237 235 237 234 231 235 231 224 224 225 236 227 212 212 206 206 209 214 221 233 239 243 228 158 206 219 227 236 225 241 246 257 384 389 376
250 235 239 241 233 215 213 218 221 223 224 222 219 219 214 211 213 207 206 212 211 212 225 236 239 240 230 222 224 157 218 226 236 136 256 240 248 260 407 385 370 354 339
238 233 233 222 223 222 214 212 213 212 213 218 217 218 217 223 233 235 235 232 228 225 222 222 221 223 228 157 169 221 261 258 232 239 269 354 346 327 313 311 352 361 360
228 237 228 219 210 212 216 228 233 235 242 238 233 228 231 230 227 226 225 226 231 235 243 249 207 151 167 247 247 245 241 237 274 355 336 324 318 340 368 359 358 344 345
223 223 213 209 204 223 219 216 242 241 235 232 228 224 225 221 217 222 225 226 228 228 228 148 220 186 239 237 238 246 238 331 343 330 319 308 349 354 352 292 373 352 322
223 213 204 211 209 216 207 227 226 224 226 227 228 227 225 220 219 219 224 225 222 146 145 153 232 244 245 241 385 363 350 336 325 310 313 343 340 378 265 248 320 332 369
212 207 211 217 209 212 219 224 225 227 228 228 228 224 224 222 220 225 228 209 184 162 240 240 242 302 334 389 365 344 333 321 308 328 327 320 338 383 250 237 330 348 351
210 210 225 209 207 211 210 210 216 225 227 227 219 223 222 226 228 210 214 191 189 241 304 296 290 329 382 370 344 329 322 313 320 321 313 306 330 337 237 305 323 357 321
209 205 203 211 207 207 207 210 215 223 220 222 225 227 189 227 213 227 144 235 282 296 295 279 326 364 377 355 331 321 315 307 318 316 308 299 291 340 315 305 317 344 310
214 203 212 209 212 203 208 211 220 224 215 224 226 229 158 231 149 206 139 247 301 307 277 303 366 383 363 345 326 317 310 302 302 317 311 299 283 335 312 306 331 322 295
215 209 209 203 200 208 209 214 217 213 222 226 233 216 227 231 205 229 265 291 315 278 282 342 397 374 356 342 328 317 312 297 299 307 309 294 306 331 312 309 336 303 321
204 206 202 209 210 213 213 215 218 223 217 224 227 173 224 233 229 259 281 287 268 279 327 415 393 370 352 341 329 321 309 297 301 309 318 349 351 336 308 308 337 303 345
215 206 208 204 211 213 213 215 218 226 219 156 202 187 223 222 192 271 319 275 271 285 340 356 333 318 318 343 332 304 296 299 306 265 347 351 355 344 307 315 310 334 310
220 204 202 209 197 214 211 213 225 215 208 222 237 225 231 247 269 310 297 266 277 333 363 336 319 310 304 302 303 307 311 318 235 340 191 344 359 351 312 331 319 310 307
246 175 190 205 207 210 206 215 215 210 222 231 228 222 248 262 285 313 261 268 309 357 352 341 350 350 348 343 339 337 336 337 236 350 209 351 367 320 322 312 338 307 276

GFSGL_2pvu_pres_036.txt.gz
Presure
244 259 293 279 291 282 279 286 290 291 293 285 277 266 262 259 259 261 257 253 241 237 234 227 217 233 223 232 232 222 226 232 215 251 228 213 220 201 229 215 213 219 209
252 287 276 274 100 293 176 294 321 304 323 320 318 319 293 272 262 253 247 250 252 257 249 240 241 245 239 238 230 235 235 222 185 208 218 226 227 181 155 217 159 167 230
274 220 289 274 280 288 268 259 254 319 270 323 316 320 309 314 320 299 264 252 246 240 248 235 224 221 216 214 221 234 236 217 234 222 200 185 163 214 195 197 202 210 238
260 280 250 247 232 230 226 470 455 422 391 367 350 336 338 340 337 337 319 276 253 247 237 175 237 230 229 187 222 191 215 214 194 180 162 213 229 196 231 217 232 236 209
267 250 263 252 243 243 255 379 368 368 370 356 352 370 373 355 349 325 335 299 267 227 124 238 236 129 165 217 221 229 236 229 208 233 238 196 223 263 241 220 221 247 250
253 244 222 246 235 230 239 365 357 365 356 360 350 340 341 339 338 350 319 325 279 256 254 252 237 138 129 227 148 230 161 257 249 273 252 187 207 247 255 252 234 243 254
245 236 230 235 245 244 217 304 322 324 323 362 351 339 330 322 324 326 321 313 275 257 250 254 260 268 246 188 192 177 161 255 222 255 253 252 248 241 222 228 235 240 231
238 240 234 230 219 226 221 202 227 229 297 299 323 341 325 318 295 314 309 297 233 247 247 250 274 260 251 244 243 229 190 254 250 222 240 230 240 237 227 222 230 243 245
228 227 223 225 238 241 245 258 238 251 253 245 234 280 296 283 288 284 271 212 251 259 256 260 202 246 250 233 230 259 230 223 219 218 249 227 220 237 234 239 245 224 232
250 238 227 242 240 246 241 203 240 247 239 263 241 246 214 234 250 274 282 293 291 294 278 273 262 261 255 219 248 246 245 244 240 219 220 231 237 248 248 235 211 246 246
251 236 239 246 246 246 246 229 230 231 229 234 237 237 241 236 232 228 229 228 226 224 225 223 221 219 218 219 206 220 227 230 237 241 235 223 212 238 249 253 262 238 247
244 262 256 242 246 215 221 235 225 219 224 223 223 223 220 221 212 208 213 209 214 212 221 221 227 228 229 229 227 228 226 223 199 235 242 201 259 271 258 249 249 256 321
236 243 253 215 228 216 219 216 229 237 243 242 244 241 239 236 230 230 229 228 226 225 223 219 219 223 226 232 238 206 245 257 258 165 240 250 260 241 245 352 351 341 337
252 235 220 226 258 212 212 206 211 222 240 242 234 233 233 231 228 224 222 219 218 217 217 218 219 219 219 215 179 236 228 173 229 248 257 275 373 360 344 337 329 329 357
226 247 238 226 213 212 210 210 216 223 230 232 228 230 227 226 227 225 224 225 225 221 220 222 224 226 226 231 234 195 243 255 326 392 373 358 348 337 328 324 344 351 382
233 221 224 226 212 206 215 212 215 216 213 216 220 224 228 227 227 217 223 222 220 226 226 226 235 205 225 153 283 292 296 363 387 368 349 339 327 320 320 323 315 394 351
225 225 229 218 214 215 222 209 212 210 211 214 214 224 216 216 220 223 224 225 226 226 232 234 238 236 152 288 283 334 386 378 363 339 332 322 312 313 317 309 304 302 330
199 235 234 216 213 209 218 217 214 205 206 215 215 221 208 218 223 226 229 228 228 227 179 236 188 328 275 284 321 399 375 362 342 328 323 312 306 314 315 306 299 291 325
213 199 211 220 216 214 214 214 212 206 211 215 210 215 219 222 220 222 192 232 220 197 230 190 328 253 276 294 379 384 365 353 337 326 318 309 300 298 316 314 302 286 326
231 227 209 214 212 211 212 212 206 210 213 215 215 216 226 221 217 219 220 125 225 145 244 328 252 271 288 375 353 334 365 351 335 323 318 313 292 296 305 313 310 312 330
188 185 235 219 202 203 197 196 208 211 209 211 214 213 221 216 216 175 215 146 193 244 327 272 265 281 349 363 338 324 314 351 339 331 319 299 299 299 319 354 354 338 326
241 229 189 191 224 211 211 205 207 208 204 213 207 209 216 189 201 193 231 240 210 317 277 264 277 339 362 338 330 324 319 309 302 296 295 298 302 298 343 339 364 342 315
251 244 238 223 185 193 204 206 210 202 204 215 211 211 216 215 215 210 235 238 240 315 271 270 287 358 334 326 322 315 323 340 332 326 319 318 247 334 260 349 371 334 313
264 258 223 247 211 242 238 172 242 232 204 216 214 212 218 221 161 219 233 240 301 266 267 277 361 329 318 362 356 353 344 298 306 347 345 239 336 203 312 363 367 328 323
248 243 250 184 208 235 198 201 213 202 214 207 213 212 226 217 225 239 244 283 286 261 269 298 336 314 347 364 364 357 354 354 357 365 362 351 346 195 356 374 328 329 308
225 245 242 238 234 226 221 217 218 224 222 221 214 229 232 226 239 257 267 296 259 263 269 352 321 307 352 354 383 383 398 364 359 370 399 363 321 356 374 329 332 314 283

GFSGL_2pvu_pres_039.txt.gz
Presure
214 220 222 225 232 234 245 260 225 299 284 306 296 264 265 268 255 255 269 273 267 257 255 253 256 255 245 237 219 207 198 188 200 211 213 212 206 227 229 228 206 225 226
212 223 236 264 264 261 255 286 285 282 266 252 250 258 252 256 248 231 284 283 291 292 280 243 249 246 243 250 236 233 219 209 212 220 221 189 147 231 183 237 218 226 216
213 265 266 267 297 276 269 133 274 249 246 250 409 361 396 441 400 321 260 294 258 289 285 276 285 260 246 238 239 221 225 230 229 225 154 188 216 161 217 226 224 225 221
263 265 292 282 264 275 269 254 250 242 226 247 400 376 373 299 361 352 337 334 311 292 285 293 257 277 264 259 172 234 223 123 177 131 228 223 210 190 232 227 230 235 168
292 276 270 255 266 267 179 239 236 247 242 221 225 335 376 353 356 356 338 329 326 322 322 303 290 288 271 258 256 226 201 229 224 225 235 234 228 232 179 240 234 255 249
256 262 248 265 261 245 264 250 251 234 232 266 253 372 364 349 344 355 351 355 360 347 320 313 308 297 258 255 262 254 243 239 238 235 233 233 234 229 179 255 263 265 261
263 274 263 254 243 258 243 243 237 252 246 237 255 239 296 326 321 316 316 315 321 326 316 309 299 295 268 250 225 172 242 244 259 260 196 254 263 254 259 251 239 251 223
260 259 261 252 240 239 235 233 259 259 263 252 252 249 250 281 295 191 298 287 280 286 297 302 288 279 268 258 248 249 250 244 254 248 232 234 256 259 248 251 234 230 232
252 269 263 250 248 241 241 240 238 242 229 230 236 233 257 241 248 259 260 279 278 274 267 262 257 254 253 254 254 256 215 234 231 264 232 228 226 225 215 224 199 240 236
258 263 258 248 253 252 248 262 243 210 227 219 233 234 233 231 230 228 253 240 237 237 231 226 228 229 228 229 228 229 228 223 222 225 223 233 238 236 239 242 250 256 257
251 250 253 243 251 266 257 243 219 216 228 237 253 253 253 251 246 242 240 239 234 230 229 229 230 230 229 228 227 227 228 228 231 234 236 235 241 244 243 241 236 243 251
247 255 265 247 229 255 230 229 209 225 204 223 237 237 237 236 236 233 232 230 229 231 225 223 222 219 220 219 217 218 222 225 229 232 234 228 229 237 212 242 253 295 385
249 259 268 250 255 239 224 233 213 211 220 218 228 224 227 228 229 232 232 232 229 226 227 229 226 225 225 223 225 226 226 229 231 237 238 233 285 298 298 296 376 369 355
245 255 280 264 218 229 238 215 209 209 218 216 214 217 215 225 225 218 217 218 220 223 221 220 221 224 226 228 229 229 235 232 233 317 274 281 295 387 381 365 354 345 333
246 228 227 230 240 235 231 222 212 223 219 207 212 210 214 216 221 211 213 216 221 221 222 223 225 226 226 230 242 228 251 325 278 268 271 371 385 369 353 342 335 325 318
258 200 236 242 224 233 233 215 218 216 221 217 211 212 217 211 210 214 216 222 219 215 216 223 217 217 235 243 242 303 277 266 286 343 375 369 365 356 340 331 321 312 306
267 249 241 181 196 234 236 222 215 213 213 220 209 208 215 215 208 211 214 216 217 217 222 216 217 234 241 163 223 273 268 305 354 370 341 347 355 342 334 325 316 303 293
296 251 227 186 229 190 200 205 215 218 208 209 205 208 210 212 212 211 207 210 214 218 199 220 201 193 161 297 274 271 316 400 355 351 328 313 353 343 334 329 317 294 298
281 197 193 216 198 224 227 222 218 205 214 211 212 212 205 208 212 211 210 207 212 154 166 218 229 256 252 275 265 294 359 333 334 325 340 324 310 304 319 314 302 302 304
273 284 266 236 190 234 190 192 202 229 212 205 218 218 206 208 204 216 217 216 214 211 231 239 240 243 285 259 282 350 330 320 315 348 335 315 332 322 313 307 306 306 317
255 270 239 253 246 197 241 240 197 194 192 195 226 235 239 244 234 217 209 130 214 228 238 228 264 302 268 272 322 331 316 352 354 352 353 348 320 304 335 327 263 319 233
214 259 248 266 266 256 250 249 246 230 229 230 205 205 206 201 210 218 198 222 229 242 250 250 245 292 264 282 343 319 313 349 359 355 359 349 347 349 354 278 345 239 319
224 223 225 245 253 257 260 259 257 198 252 247 239 233 224 227 229 232 238 240 242 252 253 253 309 269 271 291 338 311 305 334 366 379 379 367 360 355 357 364 357 352 342
218 219 222 220 226 223 221 237 239 240 240 239 238 238 239 242 248 242 236 239 251 255 247 295 304 265 277 361 344 315 300 326 362 392 455 439 424 365 363 380 361 352 373
213 221 223 221 217 216 221 225 222 222 217 224 228 231 236 240 241 244 249 255 254 243 283 313 258 274 287 355 341 316 307 338 364 390 408 439 380 379 407 372 365 375 338
228 225 224 222 218 217 215 222 224 229 238 238 240 243 241 242 243 244 252 251 250 277 323 267 267 277 324 346 325 315 314 345 370 385 397 415 416 407 370 375 335 328 284

GFSGL_2pvu_pres_042.txt.gz
Presure
203 222 211 200 202 218 220 129 220 213 226 230 273 294 275 275 265 265 261 265 268 277 246 246 257 258 253 250 242 227 258 242 239 231 225 226 225 193 195 202 203 224 213
217 247 240 226 246 237 221 223 226 227 272 304 277 275 267 268 258 259 260 250 239 259 373 342 248 239 243 230 228 242 277 241 248 226 224 210 205 199 158 208 214 213 213
232 225 225 231 221 226 225 232 272 263 279 267 270 263 259 250 262 261 356 258 365 372 396 358 337 312 291 246 238 240 259 265 262 238 225 223 221 123 222 134 134 166 218
220 227 201 231 108 232 275 281 285 270 256 241 254 255 256 259 269 278 369 371 263 353 358 350 345 331 315 293 283 270 269 274 267 263 261 239 233 228 239 226 227 219 223
219 228 236 237 273 254 288 269 285 274 266 253 243 233 272 268 279 272 332 327 337 311 362 342 339 332 326 303 290 272 269 297 261 265 258 260 244 233 229 226 224 228 230
231 273 271 248 291 269 263 276 261 261 253 246 239 249 259 250 245 254 279 299 303 311 326 333 346 318 322 303 292 300 270 266 284 265 263 250 247 252 254 249 245 236 239
256 257 278 267 270 255 271 259 262 255 251 248 250 244 229 226 249 253 224 243 281 283 280 294 318 322 311 307 304 292 295 279 274 273 257 250 259 252 242 241 250 261 277
268 264 273 276 284 264 270 263 255 257 265 243 254 225 242 264 263 259 259 237 249 244 260 262 254 271 265 280 271 262 267 265 271 249 247 246 247 248 245 243 236 236 241
251 249 247 309 274 257 269 264 261 264 246 254 224 219 228 250 242 243 243 241 244 242 243 243 231 229 245 248 244 243 231 233 231 230 228 229 231 232 238 240 238 238 239
238 251 260 237 261 262 272 264 250 265 263 214 222 227 215 242 238 234 238 240 241 242 235 234 234 234 232 230 230 230 228 228 228 228 229 229 231 234 235 237 238 242 241
236 276 247 310 252 262 254 247 238 252 213 219 214 210 216 225 224 227 235 233 228 228 230 232 233 231 230 230 230 229 229 228 230 230 231 233 235 234 226 227 221 233 248
234 280 249 315 255 262 262 253 254 245 232 220 218 206 219 217 214 216 226 228 220 217 222 227 228 223 224 224 223 225 221 215 225 228 232 237 231 232 213 258 293 232 302
239 261 250 322 257 273 271 262 245 225 239 217 205 217 218 209 220 211 217 211 215 218 218 221 218 218 218 217 220 214 211 226 226 234 246 252 314 284 291 276 273 277 377
266 252 314 319 240 231 227 227 234 240 231 227 215 221 221 218 210 208 216 217 214 209 213 213 213 216 217 220 221 225 225 227 246 247 304 277 272 270 369 394 391 348 347
257 259 320 312 254 237 221 237 223 234 233 232 219 215 215 220 212 208 213 212 213 214 212 208 205 215 218 213 226 230 233 253 213 300 280 271 355 394 345 337 340 320 359
251 246 287 305 259 247 231 235 197 201 233 211 210 222 218 204 204 211 210 208 214 214 210 220 225 226 225 218 229 251 261 256 305 280 265 362 337 323 320 331 334 318 333
249 244 266 290 287 247 242 189 234 220 191 185 222 220 211 218 218 215 222 220 210 218 246 242 219 215 217 158 250 254 259 307 283 262 354 329 316 364 361 350 326 332 316
246 254 234 269 284 293 251 195 189 192 214 200 193 212 189 226 196 199 212 236 221 252 201 225 225 176 155 251 261 270 327 292 262 355 344 312 326 357 349 354 348 340 324
230 239 251 256 268 278 285 265 228 244 198 199 211 239 237 236 236 218 224 254 219 230 226 230 245 250 248 169 267 256 303 270 282 356 338 301 307 337 357 352 349 346 339
211 225 223 235 244 260 269 275 269 262 256 247 247 248 248 250 256 256 246 237 237 238 240 250 247 248 254 265 253 327 278 271 365 352 327 300 314 343 362 366 361 352 347
219 215 219 222 220 225 226 235 256 264 264 263 262 261 240 240 241 241 242 243 242 238 241 248 247 249 263 263 302 287 267 338 350 331 323 310 337 361 375 381 406 370 360
217 220 221 220 218 213 223 221 216 221 223 222 223 217 220 218 223 217 216 234 243 245 248 251 253 264 268 288 309 265 285 371 339 320 309 334 367 380 392 403 443 431 378
214 212 202 209 219 219 217 211 224 222 217 217 218 218 226 225 230 231 232 244 244 247 246 255 262 264 310 330 267 271 347 368 327 308 325 365 383 387 416 427 384 415 375
210 213 232 238 241 237 231 229 228 226 227 222 223 220 223 228 233 240 251 250 248 247 257 261 269 305 334 271 274 296 375 359 316 313 347 383 388 380 400 427 424 403 375
227 228 223 220 230 229 228 234 237 233 234 218 224 229 227 230 235 249 252 252 257 258 261 267 293 325 257 271 278 345 382 318 311 333 350 372 388 387 380 381 381 347 329
224 223 223 221 224 225 238 235 233 224 208 223 227 228 232 237 247 254 252 256 260 262 267 288 324 264 267 274 303 379 356 313 321 344 336 342 350 351 340 319 278 280 281

GFSGL_2pvu_pres_045.txt.gz
Presure
183 184 187 194 197 198 212 223 222 236 251 88 235 228 223 233 237 288 267 260 257 256 272 322 410 397 347 342 304 308 280 250 225 232 217 213 253 221 224 230 229 232 215
198 201 202 206 220 220 213 243 251 244 233 225 217 231 233 262 237 273 268 265 248 276 264 277 380 380 361 183 382 340 315 290 289 263 259 234 206 197 202 221 221 235 220
207 217 211 220 232 199 247 241 236 230 218 225 232 282 274 279 281 271 260 249 254 239 248 236 371 372 372 208 353 342 317 298 278 273 262 255 230 249 227 231 224 235 239
224 236 250 244 237 205 240 228 232 235 228 238 260 259 260 279 268 254 242 258 234 264 270 265 352 349 344 339 355 331 308 305 299 278 262 253 266 241 252 243 251 240 227
245 235 233 239 228 228 225 239 227 237 281 278 265 250 267 273 257 245 255 238 264 256 265 265 266 264 355 326 330 346 306 304 301 289 275 260 260 263 258 248 242 251 251
229 227 225 224 226 235 235 244 251 293 281 263 293 269 268 261 257 256 231 263 253 248 257 255 263 239 271 289 319 326 319 186 321 301 284 272 259 257 264 273 290 274 266
227 227 228 233 237 237 246 287 286 262 298 282 271 275 262 261 254 230 238 246 243 247 252 251 248 252 251 228 258 257 264 267 266 266 290 297 285 280 271 269 279 263 256
229 229 227 237 242 259 266 276 257 258 279 258 275 257 270 254 238 224 226 236 230 239 237 233 236 245 246 250 252 245 245 243 242 240 239 236 235 233 229 234 235 234 233
233 239 237 263 258 280 265 253 270 264 262 266 266 259 259 243 226 223 218 216 222 220 235 232 220 236 237 237 232 231 231 231 231 231 230 230 230 230 231 231 230 233 234
250 243 252 252 274 257 245 278 272 305 255 268 239 251 244 231 218 215 221 214 215 216 222 220 218 222 222 225 224 226 223 218 223 217 217 217 216 219 227 228 229 234 237
246 239 265 257 257 248 242 269 314 281 264 265 252 252 235 228 218 211 226 221 219 220 213 220 222 215 216 218 217 217 216 217 217 218 222 224 216 233 230 227 241 250 257
255 251 241 255 241 251 285 307 313 272 272 262 266 241 236 233 224 219 223 221 221 219 208 214 214 215 219 219 215 214 224 220 225 224 220 225 244 255 267 270 303 313 302
243 239 242 238 227 239 335 323 261 236 234 237 248 232 234 238 230 224 218 220 218 214 210 215 213 216 221 217 234 256 243 222 214 230 246 249 262 279 277 310 295 282 272
235 232 238 227 223 268 316 300 256 245 235 239 222 216 228 229 222 205 226 207 205 219 224 220 221 209 219 245 232 204 219 232 225 256 250 273 267 318 304 290 268 290 332
226 248 218 242 232 262 291 301 261 249 243 244 240 199 183 235 210 198 207 210 196 202 219 197 203 238 250 219 247 232 242 255 255 128 263 268 312 299 286 272 350 335 308
242 228 221 231 233 255 266 293 280 257 248 242 241 206 196 195 196 203 234 225 236 238 234 237 237 259 250 242 245 250 252 255 204 263 278 315 298 266 294 356 338 336 300
239 223 217 237 216 253 257 264 281 299 237 249 245 224 239 239 233 213 233 236 242 248 253 259 244 244 254 236 241 251 260 261 272 150 329 299 270 286 349 343 324 303 309
217 221 218 215 228 235 242 251 257 271 290 289 276 267 256 251 247 247 249 254 260 253 239 240 226 221 244 250 254 261 263 277 278 336 301 271 299 359 336 317 310 319 337
217 214 216 213 233 218 214 220 234 234 235 242 249 260 182 265 265 262 252 233 222 226 227 231 235 244 257 256 259 260 272 278 339 294 266 286 377 343 317 313 337 364 370
212 219 215 232 221 216 219 214 221 221 219 221 225 226 223 225 226 227 225 223 222 224 223 233 235 253 258 262 265 274 280 334 279 269 279 372 360 317 317 352 384 379 383
220 211 229 226 223 225 216 219 211 210 215 217 218 219 209 230 230 231 229 223 219 229 228 236 246 259 263 262 271 278 330 254 274 277 361 375 312 321 346 388 378 408 443
230 234 224 220 214 212 210 209 211 209 238 240 244 244 238 233 231 234 232 217 227 230 235 240 257 263 265 268 278 308 253 272 276 353 391 309 324 336 346 388 373 374 391
215 214 210 210 210 215 233 219 227 225 226 222 230 237 232 232 234 227 217 224 230 232 238 254 265 266 269 277 276 257 265 280 313 410 302 310 344 332 337 362 384 386 383
215 215 216 216 221 219 221 223 221 229 228 227 227 225 228 233 228 225 225 230 231 239 256 265 265 268 278 270 301 254 277 274 385 322 296 317 351 333 326 323 331 291 288
217 218 217 222 216 214 216 223 225 225 220 218 218 235 236 228 227 231 231 235 239 258 266 268 272 275 280 284 254 269 277 288 374 287 297 324 358 333 322 277 277 280 276
216 213 210 209 213 213 216 217 222 224 223 224 235 239 238 232 235 236 236 242 263 269 273 274 276 284 269 311 262 275 281 319 374 290 309 338 375 279 281 278 273 267 266

GFSGL_2pvu_pres_048.txt.gz
Presure
188 187 186 185 186 164 187 192 183 196 197 194 202 203 187 229 254 238 241 228 244 291 267 258 265 255 253 258 269 338 377 378 370 354 347 307 291 280 260 229 198 217 202
197 189 188 190 191 190 193 196 196 193 198 204 214 175 260 249 239 237 232 249 280 267 239 273 259 256 261 261 274 360 363 366 354 409 334 305 332 321 266 252 247 236 214
211 203 201 196 194 195 196 203 207 212 219 233 263 249 245 240 235 244 257 280 258 266 268 263 253 255 262 268 262 271 362 354 356 362 296 284 275 297 278 267 259 263 231
213 213 213 215 215 223 234 238 243 246 259 246 249 241 240 237 247 280 276 271 264 271 266 247 239 256 250 246 260 276 265 347 364 353 312 292 287 286 278 272 263 265 268
249 248 248 247 239 245 257 258 253 246 244 243 237 239 240 254 286 265 283 256 279 265 250 231 246 238 240 236 230 248 263 259 263 316 343 327 311 298 272 263 253 249 255
223 227 248 244 245 257 247 240 236 97 238 240 236 243 289 281 268 275 257 267 268 254 236 236 223 223 226 230 225 234 239 234 245 250 248 263 338 331 304 294 289 276 269
239 256 249 255 244 236 229 233 236 241 241 238 271 285 267 278 248 267 273 282 259 242 229 221 220 219 222 223 229 227 229 229 232 233 231 236 237 237 240 238 237 235 236
248 248 237 239 227 229 230 247 242 237 253 276 290 255 268 252 287 272 251 267 246 230 217 219 224 217 226 218 211 223 219 219 220 227 227 229 227 227 228 227 224 224 223
242 239 232 224 225 237 235 230 246 256 271 279 253 251 255 308 260 275 246 253 234 226 221 216 227 226 224 218 213 216 218 222 222 217 249 256 230 228 226 223 221 224 225
227 231 226 232 234 229 226 247 259 277 270 251 262 265 321 267 271 249 251 247 238 229 221 223 220 220 224 217 204 221 219 229 224 250 265 258 229 220 213 216 217 234 247
249 249 246 229 224 232 238 265 283 253 243 243 297 318 267 270 267 258 253 227 240 234 227 225 222 221 212 217 224 227 202 217 251 262 218 235 235 244 249 262 256 255 255
233 236 236 236 242 254 249 269 247 238 244 329 324 265 256 282 268 238 248 249 232 182 212 199 205 220 214 196 234 226 241 256 261 252 247 249 251 254 254 261 267 278 285
231 234 248 246 236 255 254 239 240 229 304 302 273 255 248 238 236 244 189 225 192 231 195 223 232 231 238 240 245 252 260 250 244 253 228 251 259 265 264 285 338 343 325
246 233 228 248 246 248 237 254 227 242 268 306 275 255 248 244 241 242 240 234 214 198 203 206 231 237 244 251 253 247 228 227 236 255 264 269 268 284 298 352 319 288 270
251 243 239 242 243 240 246 229 237 239 259 275 296 277 258 249 245 243 240 238 223 236 236 237 250 252 255 240 226 223 230 236 238 263 270 272 283 312 326 280 268 291 351
231 234 236 237 239 230 245 217 240 225 244 256 269 280 297 294 271 262 262 260 255 258 261 262 255 233 224 225 224 227 234 235 253 267 270 280 290 313 261 284 288 381 367
228 238 235 238 230 235 229 234 225 231 223 224 227 239 245 247 247 247 246 236 243 228 224 225 223 225 220 225 226 233 237 243 266 274 275 286 316 268 284 322 390 324 312
243 232 235 238 231 240 220 223 225 216 217 208 211 215 219 223 225 220 216 217 216 217 223 231 234 236 230 222 227 236 242 263 275 270 288 306 261 278 326 403 304 325 334
229 238 239 225 240 234 216 214 223 229 215 221 218 217 217 214 210 217 235 239 238 236 236 235 236 229 220 224 233 242 259 274 272 287 284 261 275 279 416 294 317 333 338
246 235 226 237 236 228 224 230 235 227 223 219 215 214 214 214 232 227 229 229 237 240 236 233 231 219 228 234 241 242 272 275 280 281 308 265 276 310 317 295 337 326 341
246 240 228 239 235 202 216 226 233 226 217 212 207 233 221 227 224 228 224 228 227 230 229 231 225 231 236 239 241 268 275 284 287 285 267 270 277 349 292 307 337 327 325
229 234 227 241 239 216 227 231 218 213 210 215 222 219 224 222 223 223 221 209 219 238 239 237 236 235 240 242 269 282 287 282 285 317 262 277 287 386 284 317 341 333 295
233 233 234 236 235 223 221 212 212 213 216 224 220 218 220 222 217 220 224 224 236 231 233 237 241 245 244 278 285 283 277 296 323 258 273 278 305 376 291 330 367 282 279
223 227 242 215 213 215 215 214 218 219 218 216 216 214 215 218 221 229 233 235 235 241 243 249 251 263 280 279 280 282 293 316 260 276 279 290 322 335 307 355 289 278 281
218 221 224 220 218 222 224 220 215 210 211 213 217 217 219 220 230 233 237 239 249 253 262 264 277 268 280 284 287 292 298 264 282 282 289 307 340 366 425 370 279 280 260
217 220 221 219 218 217 214 212 212 215 218 217 219 222 226 229 235 238 248 252 259 268 278 272 282 287 285 286 296 279 271 282 283 307 303 337 390 418 416 290 284 262 256

GFSGL_2pvu_pres_051.txt.gz
Presure
194 186 182 186 185 184 186 188 190 190 187 187 187 177 188 191 196 199 196 204 241 252 247 246 240 273 287 279 270 266 253 253 251 246 243 316 365 366 374 336 338 277 276
191 189 189 190 192 192 187 187 192 192 191 193 199 198 203 205 207 98 266 251 251 242 244 241 280 292 275 277 269 254 243 230 243 233 230 251 379 355 320 305 311 292 281
210 205 197 190 189 192 196 196 197 198 201 222 221 216 216 223 252 242 254 246 242 241 241 280 277 278 279 272 256 242 225 221 230 232 226 235 260 311 320 311 300 317 269
216 246 237 231 229 224 228 226 230 227 227 237 230 249 258 230 260 249 242 244 244 246 279 267 268 274 275 258 245 239 224 225 228 218 229 223 231 244 247 270 306 283 296
257 249 244 246 248 248 248 248 246 246 243 261 262 222 254 253 243 239 249 245 266 279 271 285 271 282 264 249 237 216 225 218 228 222 225 228 234 223 256 234 238 260 276
261 259 257 257 216 214 217 255 243 261 249 249 262 253 248 241 240 250 251 288 281 252 263 262 266 273 252 242 224 221 226 232 228 232 232 226 232 236 265 274 258 226 230
272 272 270 263 260 238 237 240 251 251 254 239 252 240 239 242 253 259 288 269 245 258 298 272 260 262 247 229 227 213 230 224 228 221 232 230 206 209 264 271 264 223 236
267 267 266 273 263 253 251 247 245 247 238 245 239 236 246 241 263 286 256 258 264 309 260 267 242 255 235 231 221 223 226 208 223 197 204 205 205 269 264 254 249 246 232
257 273 258 248 249 247 238 251 239 240 230 233 234 247 241 263 277 254 249 278 315 281 267 256 250 248 236 222 219 226 203 215 210 206 248 258 267 253 245 242 240 242 246
257 250 242 243 248 248 239 234 227 227 228 230 252 248 277 273 248 243 324 297 265 272 263 259 259 201 248 191 202 198 214 230 235 244 259 258 241 234 231 242 250 265 269
250 251 254 249 236 230 230 223 226 248 240 238 251 269 265 248 239 293 267 260 244 258 252 234 251 203 201 199 238 236 209 239 245 257 246 237 231 235 235 239 259 276 277
247 240 238 232 225 235 228 225 242 230 233 257 266 252 243 244 295 276 258 250 246 240 238 240 234 236 237 237 230 240 243 252 256 236 233 231 231 240 241 253 281 281 287
252 252 247 241 231 248 244 227 229 247 241 253 261 240 242 270 306 278 261 251 247 247 243 240 239 238 241 248 253 185 260 239 229 228 228 229 231 239 242 276 276 292 305
247 241 242 236 238 239 235 247 238 232 250 251 255 230 237 246 268 285 298 281 267 261 257 257 260 261 259 261 240 223 224 229 237 240 234 226 233 241 264 282 285 292 280
238 236 238 244 238 240 236 235 242 242 244 237 250 239 230 226 232 236 244 247 244 238 236 232 227 220 220 218 223 233 238 239 236 229 225 234 241 250 282 285 292 321 272
238 236 235 236 226 240 244 238 235 239 243 224 235 225 232 223 217 214 217 216 219 220 220 216 216 235 241 246 233 229 232 236 232 227 235 239 247 274 291 295 304 268 271
237 244 227 242 245 237 232 231 237 240 244 228 234 219 217 216 197 207 213 213 214 214 211 232 227 228 226 231 226 228 232 235 235 240 241 249 259 292 288 300 324 266 283
257 250 252 245 237 238 237 240 246 231 219 237 227 214 232 224 209 223 217 216 213 230 227 227 229 226 225 218 219 233 238 239 242 244 251 256 288 284 304 324 259 273 306
239 239 238 231 227 230 245 260 221 240 226 240 228 215 235 230 225 220 216 217 216 223 221 220 218 217 219 222 233 239 233 247 250 253 259 281 285 295 325 255 270 281 321
257 256 254 242 242 232 232 231 236 227 241 236 233 209 232 234 225 214 213 219 223 217 218 216 218 223 233 232 239 246 251 258 259 266 278 285 293 302 264 266 277 291 326
241 245 246 246 243 240 238 231 216 230 243 233 204 224 234 222 212 215 218 223 216 213 215 219 221 230 234 239 250 251 255 260 273 278 290 294 296 267 268 286 287 303 315
261 247 242 240 238 244 218 229 239 227 240 240 219 223 214 213 216 223 223 212 213 218 218 225 230 233 239 250 254 264 266 277 280 290 297 302 267 276 310 310 302 315 349
218 216 222 226 247 244 235 226 235 238 239 241 219 205 213 218 223 219 210 215 218 220 227 233 236 245 254 263 276 278 283 292 293 296 307 301 322 332 306 303 318 368 429
223 216 220 223 229 237 244 246 222 235 228 216 217 217 222 222 216 215 218 218 226 230 236 240 250 256 272 280 287 289 291 287 311 299 311 332 329 320 306 326 384 429 422
233 223 216 222 269 274 262 258 218 227 226 222 223 222 217 217 218 219 226 228 235 241 245 254 266 280 290 289 291 286 301 305 304 339 340 345 325 310 342 407 441 433 283
236 236 234 220 279 269 265 265 222 221 220 218 217 216 218 223 226 230 237 240 244 253 264 280 287 295 290 272 303 323 331 341 348 348 339 306 317 347 396 449 302 241 231

GFSGL_2pvu_pres_054.txt.gz
Presure
184 172 166 167 171 187 169 170 169 175 175 183 186 189 193 191 189 187 187 190 197 198 231 250 250 237 254 246 254 264 281 283 277 265 254 244 223 225 237 226 229 240 249
182 188 189 190 188 185 184 186 181 179 181 183 182 180 188 190 185 193 200 199 253 257 264 251 240 253 242 252 276 270 278 273 275 259 249 234 226 226 234 231 233 242 231
176 174 175 178 194 181 185 183 185 185 184 178 194 192 186 200 198 195 242 255 247 248 264 250 245 240 252 299 268 253 282 277 267 253 242 222 225 232 229 212 240 269 239
273 253 225 194 178 230 210 252 222 264 263 224 228 249 236 254 249 234 263 246 250 259 249 243 239 251 289 273 250 274 268 272 259 247 232 219 225 226 237 230 257 205 209
264 218 263 256 258 260 256 265 262 251 249 247 247 245 249 258 261 230 250 261 251 253 245 238 249 295 265 256 248 287 263 263 249 239 231 224 226 191 235 229 247 272 257
267 266 266 258 258 261 259 247 245 249 245 256 241 252 286 257 247 255 255 245 246 240 247 259 288 264 249 284 294 259 261 246 248 237 234 234 203 227 205 246 266 248 244
310 305 290 295 279 284 280 253 238 249 265 259 266 246 251 254 243 250 244 244 246 251 279 275 256 245 269 304 273 268 250 248 235 230 194 218 202 236 213 253 266 239 236
288 277 270 263 258 262 268 266 265 271 280 264 252 249 248 252 239 244 242 248 259 282 268 251 241 316 308 280 268 262 255 235 208 205 200 237 210 228 246 266 239 238 233
278 271 271 270 282 280 278 259 257 264 254 244 245 252 240 239 238 238 262 245 270 260 252 256 273 277 265 259 264 237 230 247 235 226 239 211 249 252 266 239 230 232 233
289 282 287 276 273 251 248 237 255 239 234 242 244 242 235 231 236 251 243 129 254 298 287 268 253 250 248 243 239 240 240 240 238 242 249 260 264 236 228 232 242 247 235
251 247 244 237 240 251 256 245 235 242 246 240 236 230 236 231 252 238 265 254 253 309 285 271 258 252 248 248 248 244 246 254 261 257 250 226 224 231 241 241 241 237 236
270 259 258 265 257 244 241 236 244 246 247 241 227 231 242 239 234 261 253 243 233 265 291 297 281 272 268 265 264 269 248 233 225 228 234 238 244 242 235 241 241 240 248
247 246 264 255 243 236 242 247 248 238 230 233 238 239 234 243 242 252 243 245 238 235 237 242 241 237 230 226 222 223 218 242 244 245 230 233 235 228 246 248 243 246 255
265 261 253 242 240 239 251 250 237 235 236 230 227 233 248 229 246 243 238 231 234 228 227 223 219 217 217 220 217 229 220 223 227 227 228 226 221 241 246 236 250 257 268
262 265 266 263 257 252 241 229 227 229 228 238 234 231 225 243 240 236 234 232 234 230 207 218 215 212 217 219 228 221 228 226 224 225 224 231 234 242 251 255 262 267 279
260 254 252 248 246 238 235 229 230 230 234 231 224 236 233 240 240 236 232 235 222 234 217 209 212 221 219 218 222 223 224 220 224 222 236 236 242 252 253 256 267 273 286
238 234 229 227 223 223 229 235 234 231 228 224 239 232 238 248 228 228 235 240 216 235 226 217 225 224 220 219 222 218 217 217 223 233 235 240 249 254 260 268 275 284 294
245 241 239 240 238 236 229 228 233 238 240 245 243 236 227 246 236 223 236 240 216 222 241 231 226 217 217 223 216 214 217 221 228 232 240 247 255 265 274 279 290 301 307
255 254 254 249 246 247 252 251 242 239 241 225 227 232 236 231 230 228 238 237 235 211 245 230 209 216 223 216 213 217 222 226 232 238 246 256 269 277 282 292 305 265 309
247 247 243 239 238 235 234 233 233 235 236 232 235 233 233 239 229 231 252 241 211 224 231 212 214 223 217 212 218 222 228 235 240 249 268 278 283 286 300 318 310 306 340
252 252 249 249 250 251 251 253 255 254 255 253 244 240 239 228 240 228 238 240 225 229 212 217 219 216 216 222 224 229 240 245 258 280 280 292 294 316 329 341 340 358 340
253 262 266 263 259 254 245 242 242 243 242 241 242 233 216 235 232 237 239 245 224 218 220 224 218 219 224 226 231 244 254 274 273 295 299 298 317 294 356 347 355 337 311
239 244 248 253 257 260 263 267 269 241 226 244 237 239 245 229 222 232 246 220 224 225 219 218 221 226 229 241 251 259 277 268 301 301 296 317 308 352 359 358 331 320 351
229 229 226 225 227 224 223 221 218 217 220 224 230 245 248 248 244 227 232 228 223 218 220 225 227 238 252 252 270 269 290 298 267 318 300 288 373 363 342 315 327 360 394
240 235 230 227 227 227 228 230 230 227 219 218 223 276 267 259 244 219 220 218 220 223 227 233 245 250 256 281 268 297 294 286 282 338 294 304 355 342 312 331 362 293 292
300 293 267 246 238 236 234 233 231 234 234 236 221 270 265 265 232 220 224 222 223 234 256 250 255 277 265 288 299 290 297 297 334 293 372 355 338 308 330 359 310 283 244

GFSGL_2pvu_pres_057.txt.gz
Presure
161 170 125 168 157 164 186 181 176 176 170 154 185 187 185 187 183 172 167 192 187 186 186 169 193 200 236 229 242 264 259 258 246 253 280 257 267 279 262 252 233 226 229
198 193 162 172 176 161 168 175 161 171 165 163 171 151 163 177 188 155 186 186 185 190 192 195 217 280 240 256 242 257 252 249 264 285 256 251 275 266 253 245 232 229 233
243 218 193 189 170 174 172 173 175 165 172 178 154 175 193 191 182 190 176 186 200 235 254 229 276 235 261 240 252 250 248 267 286 254 265 288 266 261 250 238 234 236 198
263 263 232 163 163 246 180 179 191 195 182 188 180 172 176 177 241 206 238 253 220 258 264 274 247 251 256 248 250 256 276 277 255 250 297 277 264 249 249 235 234 216 238
263 262 261 245 247 284 192 248 192 191 184 185 190 232 261 186 246 243 232 251 235 270 188 256 242 253 251 247 270 297 267 251 280 267 290 268 254 250 237 207 206 199 223
276 283 286 255 273 279 278 278 282 262 249 247 239 249 214 255 278 244 244 237 254 255 244 261 248 249 241 260 280 263 251 319 311 286 271 262 256 234 257 236 231 240 245
290 308 279 315 289 279 278 270 252 276 258 244 277 265 278 255 262 255 255 252 252 245 252 244 240 248 287 277 263 297 279 258 256 262 254 238 246 240 239 241 243 255 266
320 302 308 334 316 313 292 307 279 263 250 238 269 252 241 256 246 273 251 242 237 240 242 241 245 267 267 290 282 272 254 261 250 243 246 246 243 244 247 258 257 234 228
293 300 331 298 311 305 283 289 278 257 249 263 263 250 238 267 258 240 232 245 237 239 235 258 254 263 255 294 275 263 257 253 253 251 250 253 260 257 234 226 237 250 240
302 265 268 304 280 296 291 277 276 276 264 242 236 256 243 250 241 226 240 237 233 234 241 241 261 248 230 281 303 288 281 272 265 251 236 228 227 243 246 230 226 232 228
308 308 305 295 284 273 264 281 275 277 257 253 250 243 239 235 230 232 231 237 226 235 239 249 251 245 230 236 237 240 238 234 229 221 218 223 224 226 228 228 230 227 228
279 279 278 275 273 274 262 253 247 244 237 238 252 237 232 234 238 253 231 226 240 230 246 240 245 237 230 232 228 227 221 222 213 219 226 223 227 229 228 227 226 230 240
276 265 252 252 261 264 243 242 238 253 249 248 237 236 242 235 242 234 234 232 228 236 236 241 242 232 231 226 235 213 219 222 221 225 227 222 227 225 225 224 224 234 243
274 261 265 260 282 267 252 261 243 248 236 237 233 247 244 229 234 227 232 228 234 230 243 238 241 235 243 228 221 223 218 206 223 226 224 220 223 220 222 223 229 240 248
260 261 279 261 248 250 237 247 253 242 240 227 233 253 245 225 226 229 228 230 228 241 244 239 241 229 241 238 220 238 230 228 223 220 217 224 222 217 222 228 237 248 259
261 270 267 265 262 265 259 253 248 235 232 245 248 239 230 227 229 225 224 236 230 244 226 250 240 220 243 244 217 217 242 233 218 213 224 226 215 221 228 235 247 257 269
247 247 252 253 256 262 269 262 262 260 250 244 240 234 229 233 238 235 230 238 250 234 234 233 239 232 241 246 244 209 242 221 214 216 227 214 222 229 235 249 258 283 283
249 239 237 235 230 232 230 229 230 226 224 221 220 226 230 229 230 244 243 233 228 234 238 241 241 228 245 256 209 217 224 214 217 227 218 225 230 236 251 259 285 295 306
260 255 244 242 246 243 240 238 237 237 237 237 240 239 239 250 253 242 244 243 238 230 233 240 235 233 239 241 223 225 218 220 227 218 227 230 239 253 269 282 304 314 291
250 248 254 260 257 253 251 249 250 250 250 248 250 251 243 238 237 239 240 247 252 251 240 244 239 238 240 244 218 219 227 223 221 228 230 248 257 284 278 306 312 261 308
253 252 252 257 253 248 245 245 246 246 246 243 245 248 254 256 257 255 251 248 242 233 233 226 218 244 241 227 224 227 218 226 228 235 255 258 283 282 307 264 312 274 303
248 258 262 262 261 257 255 254 250 248 247 248 246 244 242 242 247 248 239 228 231 235 240 243 249 218 221 226 221 220 227 229 246 254 271 278 305 302 266 322 269 335 351
239 239 239 238 238 242 245 249 252 258 262 264 266 266 266 239 214 216 216 218 225 241 259 261 256 256 219 218 226 227 238 256 256 283 281 304 293 315 348 318 343 364 347
241 239 238 238 239 237 235 233 231 227 226 226 226 223 223 225 228 228 223 232 219 256 271 265 261 260 249 230 242 258 252 267 279 296 301 280 310 349 290 333 360 346 321
260 263 267 265 263 258 243 239 237 234 231 226 227 227 230 231 230 232 232 236 237 230 265 264 262 258 262 257 250 260 280 280 297 287 306 357 345 292 390 361 346 317 341
268 268 267 262 261 272 275 274 297 274 253 244 240 237 237 240 241 243 247 247 242 235 231 232 236 243 250 259 276 276 288 297 293 308 362 315 302 388 361 340 316 334 369

GFSGL_2pvu_pres_060.txt.gz
Presure
235 221 213 206 196 164 187 185 168 167 152 131 129 164 153 186 159 171 157 166 149 164 163 175 186 178 184 174 229 163 248 253 252 261 257 251 256 270 281 255 253 283 266
266 266 244 220 212 208 205 205 169 172 177 170 163 146 153 161 165 164 161 169 172 181 183 180 170 183 191 192 258 219 214 259 226 261 258 255 280 288 256 247 269 276 262
247 256 262 267 252 233 204 205 216 190 175 158 157 158 163 168 167 158 171 186 181 185 185 195 227 194 198 216 237 245 216 245 260 257 261 293 272 262 271 283 279 268 253
189 261 261 259 269 268 265 234 203 201 205 178 173 190 181 190 184 185 169 200 191 193 192 170 190 194 250 262 228 262 234 254 255 285 287 304 327 313 301 274 263 258 251
250 266 256 212 121 219 274 267 266 270 276 277 245 200 200 230 218 183 196 198 252 219 196 185 236 254 252 246 262 243 251 256 285 279 294 278 302 258 271 268 258 242 240
308 303 303 278 256 270 262 269 268 261 258 272 272 242 286 275 278 275 264 241 240 288 220 251 249 260 252 228 244 253 245 279 273 297 282 265 252 266 261 249 247 246 249
328 281 167 292 244 275 285 284 246 252 244 275 278 247 173 246 240 245 291 270 251 246 249 235 252 268 249 238 245 243 253 267 257 286 270 258 253 246 249 254 256 254 236
310 317 335 304 343 299 278 214 302 276 277 274 242 241 321 302 258 239 240 266 254 245 238 236 260 241 233 242 239 240 262 255 242 278 288 278 269 261 248 237 232 221 226
335 295 297 314 313 317 326 357 308 320 303 297 314 298 297 285 278 227 257 253 242 243 257 246 239 230 233 238 230 242 255 253 240 233 223 238 235 230 225 213 220 229 224
312 323 329 353 293 279 285 290 312 305 301 306 289 280 270 266 264 252 252 240 242 252 243 241 226 228 235 240 242 238 250 250 242 234 225 230 212 220 224 220 227 227 225
321 319 311 308 332 306 303 299 306 288 287 282 276 270 266 264 261 246 251 254 246 235 236 232 236 247 235 226 236 241 243 249 240 238 228 230 222 213 207 215 225 229 216
290 307 301 295 301 300 297 284 288 280 279 277 263 256 248 258 268 257 250 236 236 229 234 229 234 235 229 238 239 246 245 237 242 246 232 226 225 227 221 228 226 218 222
276 287 292 279 287 290 281 281 282 277 270 272 269 271 264 257 239 235 247 242 235 234 235 243 235 228 237 232 236 247 236 243 243 233 245 231 216 217 239 237 227 215 219
279 265 278 276 280 266 270 264 264 262 257 256 248 241 246 238 242 233 248 233 228 230 243 239 233 231 228 234 235 247 232 232 250 224 248 246 222 216 245 241 216 218 227
274 265 276 275 260 269 267 255 248 247 240 250 237 240 246 252 240 237 238 235 223 241 240 227 226 234 227 239 238 249 238 235 241 234 242 256 235 217 236 216 218 227 224
260 267 268 261 273 269 278 272 260 262 267 257 245 248 235 239 243 238 245 229 245 241 236 231 227 231 239 240 253 238 241 235 240 225 240 243 234 227 226 223 227 224 229
249 249 249 254 258 261 261 255 258 265 255 247 260 252 254 244 233 235 241 248 242 235 232 229 238 238 240 251 250 243 227 248 241 235 239 244 234 223 222 227 223 232 237
252 242 242 249 250 244 249 248 249 250 254 253 252 252 251 250 249 241 234 230 229 228 234 240 247 260 252 246 247 236 263 229 236 236 246 249 227 229 224 226 232 240 262
269 255 247 249 245 246 253 245 244 242 242 240 236 236 234 233 229 233 236 236 238 241 246 253 243 243 255 263 253 245 234 244 241 247 239 228 225 221 229 237 250 261 286
259 263 264 263 264 264 254 242 241 242 244 246 244 241 241 240 239 241 247 251 252 251 242 246 256 255 250 240 228 234 239 249 254 265 261 218 226 231 245 260 261 295 314
255 254 252 251 252 253 255 254 253 250 253 253 253 253 252 248 246 245 245 247 249 252 252 247 250 229 222 219 218 224 262 272 274 265 265 259 251 253 259 269 302 309 303
243 244 247 250 252 254 255 258 259 256 252 250 251 251 252 251 250 251 250 251 252 255 258 244 216 222 218 224 229 224 227 268 265 265 260 259 254 261 285 300 301 311 363
243 240 239 239 241 241 240 238 237 237 241 246 247 249 250 250 252 256 257 258 254 232 219 223 228 228 232 233 237 239 232 232 239 244 250 259 275 287 304 289 312 362 314
245 246 245 244 245 246 242 240 240 241 241 241 241 239 236 232 230 225 223 223 222 225 227 228 229 231 237 248 245 248 244 243 252 260 267 283 290 305 285 326 345 363 322
260 261 262 259 259 261 264 265 263 264 265 270 274 277 276 253 242 237 231 231 231 234 237 240 243 247 253 255 253 252 255 255 264 274 282 293 301 297 325 339 362 333 340
251 259 255 261 265 264 261 271 276 283 264 282 290 291 289 288 283 289 287 270 259 257 255 255 256 255 253 251 251 254 262 268 279 283 295 285 304 331 347 369 328 348 390

GFSGL_2pvu_pres_063.txt.gz
Presure
188 190 192 198 201 200 192 191 221 220 216 210 197 126 184 152 180 185 179 171 179 167 165 137 169 148 182 157 179 189 203 195 189 199 199 235 253 268 262 271 288 287 329
192 192 191 193 196 210 210 202 191 237 228 216 218 209 197 197 198 153 178 175 155 142 165 150 171 177 184 196 174 188 220 196 226 171 252 177 251 244 268 299 302 334 320
205 201 197 201 204 208 206 216 212 196 249 242 234 219 207 212 206 196 195 167 187 163 166 169 173 195 182 192 209 203 259 224 241 246 252 253 248 261 288 314 294 281 255
229 230 225 228 226 231 235 225 217 214 204 192 267 262 252 242 219 206 206 202 199 188 221 197 209 243 212 204 245 226 251 262 252 248 250 243 249 286 272 290 274 263 255
247 244 243 251 221 258 267 254 229 174 131 124 118 167 258 250 253 260 253 248 279 246 274 257 238 266 263 260 254 244 266 254 248 249 241 246 254 277 259 286 271 259 254
279 262 259 256 256 189 244 256 239 138 228 259 250 236 265 264 267 261 160 242 249 256 264 266 240 272 250 265 240 236 253 240 246 257 244 232 238 268 251 239 268 264 260
306 285 291 309 290 253 272 156 242 165 264 260 266 181 262 246 253 238 243 184 240 249 245 248 260 236 237 238 250 242 243 255 243 239 225 241 250 262 252 237 230 226 230
296 302 216 304 291 244 269 202 252 249 291 279 284 280 289 275 274 275 278 211 205 321 286 283 259 258 246 252 239 235 250 239 232 233 228 247 244 254 256 244 237 228 227
325 346 340 345 291 299 305 310 313 308 272 261 259 263 348 346 341 281 269 281 301 272 278 267 262 245 249 226 237 251 234 229 240 247 240 235 242 255 248 248 241 237 229
312 318 318 348 339 330 337 362 348 293 293 292 295 294 341 343 334 315 299 292 279 270 196 263 250 243 238 236 250 237 227 233 232 228 240 240 243 251 242 249 243 245 238
296 294 304 321 319 312 319 323 326 314 298 288 288 273 277 290 265 213 208 273 263 256 255 247 254 232 244 233 238 233 225 233 234 235 234 235 238 251 238 246 238 223 249
278 284 291 294 314 307 306 304 328 310 314 306 294 295 286 280 256 271 264 260 260 266 259 245 253 243 248 231 233 228 234 228 227 238 233 235 236 251 240 235 238 236 244
261 273 282 292 293 303 291 292 299 288 296 277 279 283 274 284 287 269 270 264 248 242 255 258 243 231 226 229 232 228 229 250 238 232 228 235 245 255 242 244 242 231 244
264 260 271 286 276 280 288 273 277 290 285 274 292 271 261 259 254 263 265 259 249 249 242 231 238 218 221 235 227 227 226 245 237 229 231 239 254 238 245 245 244 239 240
256 255 261 262 271 275 281 281 275 271 271 262 268 265 260 263 255 238 250 241 232 240 232 225 241 232 232 235 234 225 242 245 240 237 249 256 251 250 252 247 246 237 239
272 255 260 254 269 263 269 272 275 262 259 263 249 248 248 251 248 239 244 231 230 244 246 230 232 237 236 238 231 247 247 234 235 247 253 244 257 257 236 230 230 243 235
279 264 259 250 253 263 264 258 252 256 258 266 270 266 265 256 255 263 250 249 248 229 220 221 239 226 229 248 246 237 231 242 251 247 255 258 237 236 239 243 257 277 273
269 273 264 251 249 248 246 250 253 255 258 255 253 251 250 255 255 254 247 239 257 251 250 254 258 256 245 234 229 238 246 254 249 254 240 228 227 226 235 278 276 271 269
255 264 270 266 256 251 249 245 242 246 246 241 243 246 245 246 247 249 248 249 249 245 236 232 230 230 233 245 257 252 249 253 249 229 224 218 217 222 225 227 264 253 247
257 255 251 265 267 266 256 252 250 247 239 239 240 249 242 240 237 237 237 237 238 240 241 241 250 253 248 248 250 252 250 254 214 217 221 221 229 241 245 238 239 250 258
257 256 259 253 250 252 256 259 257 255 257 256 255 254 253 253 254 256 255 252 250 250 249 248 248 252 252 252 257 266 259 218 226 227 228 231 239 256 253 255 255 260 276
247 249 248 249 249 248 249 249 249 250 252 254 255 257 257 258 257 256 257 257 257 257 256 254 251 250 252 251 233 224 226 228 228 230 238 247 255 259 255 255 264 281 290
250 242 243 245 243 243 243 241 241 241 240 240 238 239 240 239 239 239 239 239 235 234 232 232 231 228 226 226 227 228 231 237 238 245 251 254 255 254 260 271 284 289 302
250 249 248 245 245 246 245 245 243 241 242 246 246 246 244 247 249 247 251 265 267 270 268 248 237 234 234 236 239 239 241 250 255 265 264 261 265 271 282 284 291 303 300
265 265 249 246 244 239 241 244 243 245 248 249 260 263 262 261 261 278 285 282 282 299 290 282 274 269 271 274 277 277 278 283 276 272 269 275 282 283 287 298 294 315 341
259 255 259 260 259 257 257 259 261 261 263 260 267 270 263 266 273 266 306 264 357 316 299 291 283 286 284 280 273 265 256 274 274 279 280 281 281 291 301 295 321 348 357

GFSGL_2pvu_pres_066.txt.gz
Presure
182 193 203 177 179 177 180 160 185 185 186 187 188 189 188 189 188 180 178 187 198 211 209 204 203 184 201 198 198 199 192 194 181 183 211 250 214 198 264 232 253 248 269
217 195 203 217 211 191 184 182 118 184 186 185 185 183 187 190 192 202 203 191 189 186 225 219 213 211 209 206 196 205 194 199 173 208 222 249 218 265 248 248 254 260 249
231 236 242 226 212 195 192 190 190 190 191 191 190 190 191 193 190 198 200 199 207 203 189 235 186 231 223 244 217 163 238 257 258 258 271 257 260 240 244 240 242 258 249
225 202 223 232 233 229 224 217 210 202 200 205 201 198 199 203 205 208 166 162 210 193 232 181 222 231 196 203 170 226 204 261 188 258 253 229 241 254 232 252 225 250 248
232 232 231 226 229 227 229 228 227 228 222 219 219 216 218 216 220 210 222 149 218 247 249 240 161 172 177 161 268 229 242 233 281 239 230 242 245 231 253 225 238 240 251
250 247 247 144 134 239 203 241 243 243 156 238 241 102 243 239 237 243 254 251 199 241 246 224 237 252 254 249 249 253 266 293 252 267 247 256 227 239 250 241 232 249 250
311 288 284 279 284 278 267 262 255 258 221 252 254 258 191 172 269 252 262 249 243 247 272 247 262 293 235 232 267 242 197 194 262 250 254 225 245 246 233 237 238 232 240
300 289 288 303 302 291 302 311 318 313 298 293 264 269 294 205 282 264 271 249 242 293 275 273 308 298 304 271 259 312 261 259 250 251 241 236 247 229 237 229 237 244 243
278 326 324 322 326 337 342 350 296 298 320 316 309 306 299 273 269 277 256 249 244 242 245 248 257 290 303 298 275 277 249 250 248 235 229 247 243 235 233 230 235 238 235
288 291 294 308 307 320 326 325 342 353 344 339 374 348 298 312 301 296 291 294 293 308 292 305 296 264 289 282 270 263 246 242 243 234 227 235 232 230 241 239 232 246 225
279 288 289 289 294 297 305 306 326 334 334 319 347 332 327 322 315 303 306 300 279 271 284 286 262 259 262 249 250 247 239 241 244 244 237 237 227 228 238 227 245 241 236
267 274 273 274 275 281 286 300 314 315 315 305 298 311 300 296 290 286 278 284 280 272 275 263 261 261 262 239 237 243 240 254 239 233 231 225 232 237 228 228 244 238 233
265 256 254 262 265 269 268 288 290 300 299 301 299 298 295 304 304 290 270 273 258 263 258 259 243 245 258 245 245 234 251 240 228 233 227 228 234 233 236 245 233 232 256
316 293 266 260 257 255 259 262 276 276 293 281 288 276 274 282 274 267 269 264 272 271 275 263 256 260 256 247 242 242 227 236 226 232 231 235 231 244 245 229 235 255 248
297 291 277 264 261 251 265 272 276 274 279 277 268 274 283 278 265 282 268 258 252 244 254 246 253 242 238 234 229 234 233 223 236 234 236 233 232 244 229 237 255 251 254
282 287 287 278 270 266 255 255 264 269 274 274 279 265 266 256 258 260 253 255 255 247 251 247 235 243 233 229 228 237 242 242 237 236 241 247 245 236 239 256 252 248 246
273 274 272 277 279 274 260 248 255 259 264 262 266 265 254 246 243 255 243 239 244 241 234 238 228 228 231 236 243 231 237 239 251 253 230 229 238 254 251 254 256 226 223
271 265 270 264 271 275 261 247 249 241 243 253 254 259 258 253 260 267 266 261 262 262 260 249 248 246 251 252 252 252 251 240 232 240 240 243 252 252 254 265 226 215 225
253 263 258 267 262 266 269 263 254 248 246 248 242 242 245 242 245 245 245 244 244 244 242 243 246 245 243 240 238 238 237 238 243 253 250 252 257 262 263 220 221 229 230
251 253 254 256 262 257 259 268 264 264 262 253 249 247 245 243 247 247 244 238 238 244 240 236 236 241 247 252 255 256 252 251 253 256 255 256 256 230 221 226 228 234 244
261 253 250 249 259 254 257 249 250 263 263 265 266 266 265 261 258 256 256 254 252 250 250 252 252 254 255 258 259 260 253 247 239 237 230 225 225 225 229 238 242 251 269
259 265 257 251 247 250 256 255 256 251 249 250 250 251 251 252 253 254 255 256 255 253 249 244 234 238 239 240 238 236 234 234 234 236 235 237 240 242 248 258 273 280 279
259 255 268 259 251 249 244 247 249 249 247 245 245 247 246 241 241 241 242 245 247 245 245 252 261 267 275 281 278 275 273 271 273 271 270 268 269 272 278 277 276 281 284
274 257 258 269 259 251 249 244 237 239 242 244 243 241 244 243 242 247 241 240 260 264 267 274 274 284 280 289 266 263 292 285 277 277 280 280 277 274 266 266 282 282 279
276 266 258 257 266 261 251 249 247 247 246 241 239 242 247 248 251 260 263 258 260 275 274 281 263 324 325 337 363 307 297 289 286 280 280 277 272 268 273 269 283 279 290
282 270 263 257 256 254 261 264 258 252 247 247 254 256 257 255 247 254 266 259 270 264 278 331 336 331 333 334 312 291 292 285 277 276 275 275 274 274 286 281 284 296 290

GFSGL_2pvu_pres_069.txt.gz
Presure
184 184 188 200 213 196 163 163 162 162 209 163 180 177 173 180 176 172 175 179 180 171 180 181 176 176 178 167 176 178 185 188 201 189 246 193 169 258 202 266 233 197 220
190 184 181 182 182 183 234 211 206 167 182 181 173 172 174 170 173 180 176 169 174 173 173 175 179 179 181 185 190 179 191 197 203 209 163 272 243 251 253 261 266 270 196
197 199 198 198 199 199 188 185 221 225 204 203 221 234 233 226 225 196 187 185 182 184 182 184 194 189 193 174 208 178 187 207 231 240 242 235 225 215 174 229 272 226 239
211 208 206 207 208 213 215 215 225 212 221 205 208 196 225 223 219 225 212 219 209 163 203 205 187 204 123 209 212 170 227 177 242 243 250 243 272 265 267 248 222 250 244
222 226 225 224 225 150 227 232 230 228 228 227 227 227 228 232 230 135 222 218 216 216 209 214 214 214 213 198 213 230 241 150 266 249 261 240 245 218 259 257 242 228 252
246 240 235 234 233 233 228 227 230 231 232 232 233 233 237 237 237 239 238 141 232 231 230 232 231 238 240 240 265 257 259 236 214 258 271 182 275 274 259 172 246 235 232
278 240 277 277 255 251 248 245 245 244 244 244 245 246 248 251 253 260 263 263 263 260 266 256 262 264 275 259 266 245 242 239 231 267 313 310 289 252 256 241 240 229 239
284 285 287 272 220 267 266 275 267 214 296 304 302 296 292 280 280 274 297 308 294 287 269 277 331 309 307 314 261 293 244 264 250 242 243 261 263 252 239 245 229 236 238
285 289 292 292 289 282 258 256 281 275 324 304 267 274 311 361 353 330 311 305 319 316 305 300 294 297 288 301 330 318 320 305 294 285 277 258 250 244 237 232 235 232 239
282 288 291 303 302 300 304 307 306 311 314 314 319 324 352 342 339 345 377 360 348 357 295 292 300 286 283 315 295 275 291 287 278 265 263 253 237 236 239 241 225 217 235
284 287 278 277 282 290 286 290 293 292 294 296 310 317 317 317 314 347 316 318 325 313 327 305 293 293 285 276 287 281 274 256 254 243 250 241 239 226 232 243 232 237 226
277 273 278 285 285 280 278 279 278 277 279 282 292 297 295 312 303 309 304 301 294 299 286 285 282 281 287 268 270 270 260 251 248 250 232 231 243 230 247 234 238 226 229
250 256 276 282 276 269 260 265 255 257 266 266 274 280 306 294 301 301 307 300 299 279 278 284 271 268 261 252 257 258 248 243 230 242 248 229 239 243 243 231 236 226 236
265 270 257 279 284 289 286 278 273 264 265 256 260 281 278 289 284 280 281 278 266 268 272 274 279 270 272 256 250 238 254 253 246 235 243 247 243 232 235 237 236 234 234
270 271 269 272 276 307 316 304 270 268 259 258 264 251 272 274 268 264 284 286 269 280 270 262 253 271 264 259 256 246 249 250 255 238 241 231 227 226 234 242 236 244 254
276 270 264 268 276 290 291 287 274 271 263 264 256 255 271 265 273 265 262 257 258 261 263 257 259 257 252 259 255 249 245 244 235 230 227 236 238 239 243 252 246 236 242
273 267 263 264 264 277 276 277 279 277 273 266 258 250 263 261 261 253 254 255 252 243 243 243 245 246 246 246 250 240 236 242 242 246 250 249 251 250 241 239 239 244 252
267 262 261 260 252 272 268 268 275 273 270 259 251 254 249 243 256 254 261 259 253 252 259 263 256 253 252 257 262 261 256 250 249 249 244 240 237 239 248 251 251 252 256
265 261 259 261 259 255 260 266 262 263 271 260 252 249 248 245 244 242 239 240 239 239 241 243 241 240 241 238 239 241 241 239 237 243 246 250 253 252 252 254 254 250 240
262 265 269 259 255 253 254 253 258 260 261 266 263 261 259 252 245 241 241 243 244 242 239 240 240 240 248 256 254 253 252 252 253 257 256 253 249 243 241 237 235 229 228
258 254 258 264 264 259 251 254 251 255 259 252 255 267 272 267 261 259 252 249 250 252 254 252 249 250 251 254 249 240 240 240 239 242 244 244 248 245 248 254 270 275 273
255 252 257 255 256 258 260 253 250 249 254 252 257 253 250 249 250 249 251 250 250 249 251 250 243 243 246 249 247 253 273 276 278 275 274 283 289 285 274 273 274 276 276
267 265 262 258 262 258 254 259 257 251 247 249 254 251 251 249 247 244 246 243 243 244 243 243 245 247 258 269 266 267 279 273 281 281 346 381 357 265 273 280 274 281 280
272 266 271 269 267 261 257 252 260 258 249 249 246 244 244 243 241 241 241 241 234 242 248 249 255 251 260 268 264 290 318 335 341 342 347 330 329 312 296 284 281 276 275
291 282 276 274 277 267 267 261 248 259 260 252 247 246 245 245 245 241 242 242 245 252 253 252 257 258 261 275 266 305 304 304 319 325 313 306 293 286 286 273 274 279 275
304 304 299 296 285 278 270 263 254 250 259 260 251 248 248 246 243 243 253 257 252 247 252 254 256 267 279 260 297 306 294 292 302 312 302 290 282 280 278 278 276 281 279

GFSGL_2pvu_pres_072.txt.gz
Presure
207 195 182 174 177 182 179 175 173 175 180 181 188 201 207 209 183 210 182 211 206 221 222 222 196 190 211 185 176 174 176 176 168 181 131 187 155 152 205 202 157 158 257
183 214 212 208 165 206 219 184 187 185 185 186 185 190 197 206 216 222 208 193 194 217 231 225 220 224 228 232 217 218 187 169 190 203 193 196 204 200 214 206 218 234 241
186 187 191 205 206 206 202 207 211 213 189 183 171 173 176 174 175 176 178 181 206 224 216 208 206 211 212 220 226 225 223 210 215 216 212 212 217 214 215 195 247 246 261
253 237 204 196 195 194 204 207 202 201 184 184 183 141 182 184 188 191 195 196 194 208 233 229 232 215 219 225 219 218 216 214 211 218 220 218 218 226 240 249 265 258 248
224 223 218 210 207 205 215 237 234 230 226 225 201 201 202 204 210 214 217 220 228 232 229 230 229 231 231 229 233 232 231 229 213 167 230 235 256 265 263 254 255 248 253
266 270 250 239 233 229 221 215 247 248 247 217 216 218 223 226 228 230 234 239 241 238 237 240 245 244 245 251 250 253 263 261 264 263 252 250 251 253 254 266 238 241 289
290 301 295 287 264 244 239 236 235 204 130 237 237 236 169 236 237 220 238 239 240 242 162 247 252 258 267 280 289 280 279 301 303 287 286 259 251 274 250 264 295 267 260
296 283 275 276 299 299 284 279 289 283 270 263 268 262 266 269 275 276 277 283 304 295 286 303 359 337 300 278 298 315 282 294 293 282 320 301 319 312 289 292 269 256 253
285 298 291 259 301 304 277 301 295 314 319 257 167 321 262 262 264 278 261 255 274 347 351 354 371 370 375 284 272 293 291 290 291 289 316 276 303 302 284 277 269 255 247
293 287 279 277 282 286 283 305 318 298 308 304 313 305 304 315 313 319 314 325 335 328 339 367 300 341 308 354 317 316 300 283 280 278 297 268 261 281 269 255 256 239 233
266 264 279 301 308 299 297 299 296 294 287 291 290 288 295 298 290 294 304 307 328 307 335 317 314 308 311 315 315 317 327 290 268 280 270 288 270 249 246 247 236 246 236
290 288 289 287 293 288 281 281 282 286 300 286 284 283 281 279 281 274 272 295 308 305 307 297 291 294 292 292 297 279 277 290 289 273 269 259 249 242 244 239 235 227 235
273 274 277 272 269 268 263 261 259 269 283 280 273 268 272 270 259 260 267 302 292 288 305 295 295 285 274 278 277 276 263 269 263 266 260 256 248 245 233 230 234 245 244
260 260 258 254 252 250 250 251 252 257 259 281 285 277 265 266 254 261 268 290 284 285 281 278 283 276 266 264 261 260 261 258 255 252 251 242 243 247 249 247 251 245 244
245 242 246 247 247 246 256 266 275 273 273 311 321 308 275 266 254 259 253 280 275 273 272 283 273 274 268 259 260 255 263 259 252 255 253 247 246 243 235 236 238 235 227
254 252 253 252 256 261 265 270 268 270 287 296 294 286 279 266 258 257 258 266 274 269 263 262 261 260 261 260 253 257 250 251 250 251 253 248 236 239 227 230 241 244 243
273 272 273 273 272 272 277 275 265 265 267 280 279 278 277 269 266 259 249 264 260 262 251 255 253 250 253 252 250 249 245 244 239 237 239 253 254 253 252 249 246 243 239
272 273 276 274 270 273 280 272 261 265 263 276 274 281 278 276 263 256 250 250 249 254 247 249 255 253 247 249 249 250 250 249 246 244 240 239 241 243 244 246 245 245 251
265 269 270 272 280 276 270 261 258 259 257 266 264 272 271 266 256 254 251 247 248 245 244 245 244 238 237 240 242 242 241 241 243 249 253 250 248 248 248 248 247 241 235
263 266 268 268 270 268 266 263 262 256 253 259 257 259 264 263 263 255 250 249 250 248 242 243 243 242 241 241 242 249 249 248 245 239 238 238 237 238 239 243 243 240 262
260 257 258 261 265 265 262 265 263 259 253 250 255 249 254 257 262 262 261 259 258 256 252 250 249 250 253 254 246 245 243 236 237 238 246 254 276 273 273 295 285 288 286
264 261 255 252 253 254 249 250 259 269 264 257 249 250 244 248 253 254 252 252 262 263 261 257 251 246 244 247 243 239 243 248 252 253 261 268 280 276 289 332 347 354 343
281 269 261 255 252 251 251 251 250 249 251 255 261 251 244 241 247 247 249 251 252 252 251 245 244 246 243 237 236 249 251 250 259 260 264 284 276 298 307 317 333 355 325
324 289 280 266 260 252 251 250 246 247 249 249 251 253 258 247 241 240 244 243 243 246 242 239 239 238 240 244 252 247 252 255 263 285 290 270 312 304 294 306 320 304 302
305 312 336 291 283 265 257 252 249 250 243 250 257 259 254 258 252 245 242 244 244 236 239 245 249 240 255 251 250 255 247 263 265 282 265 305 302 298 291 295 301 300 289
305 306 321 322 338 284 277 267 260 259 256 252 257 255 252 246 258 258 249 244 246 248 249 243 251 257 252 251 252 260 269 270 295 321 329 313 298 289 288 291 292 298 296

GFSGL_2pvu_pres_075.txt.gz
Presure
173 178 181 182 181 183 181 177 179 173 169 175 163 166 166 178 170 180 181 181 179 179 185 184 184 185 190 193 196 192 184 218 193 221 222 208 194 203 133 216 222 221 217
207 207 206 168 191 154 185 183 188 183 182 153 182 181 173 170 176 178 177 180 183 187 184 173 192 177 172 181 181 177 183 188 191 191 233 227 203 211 214 219 215 217 218
211 202 195 188 164 174 218 205 191 203 202 195 185 169 174 175 180 181 188 190 175 187 188 188 182 183 179 180 170 188 192 194 173 231 234 225 221 227 227 225 207 226 229
221 224 201 195 193 207 205 203 198 201 213 223 225 217 198 193 200 187 217 188 185 200 177 176 171 181 184 190 197 205 214 226 230 234 232 234 235 235 239 215 251 283 251
273 247 228 225 213 210 209 222 196 196 218 220 183 182 190 194 180 184 185 202 206 207 219 149 235 225 193 217 224 231 237 243 240 241 246 257 261 263 271 301 298 288 277
279 284 311 309 241 231 224 217 214 212 213 216 232 231 254 256 204 202 205 207 132 211 249 243 225 235 237 240 242 248 249 249 261 267 308 289 320 287 329 267 287 316 302
305 285 286 287 287 291 291 292 292 246 237 228 223 222 222 220 219 223 126 226 234 202 236 241 243 249 255 258 267 276 291 278 295 266 274 312 280 311 296 279 290 309 312
278 273 275 275 281 286 289 281 276 278 280 282 314 242 296 230 272 273 271 275 283 284 279 281 288 278 277 284 271 278 289 324 329 274 320 287 278 287 290 285 282 293 307
272 264 266 257 253 253 251 262 254 255 255 257 256 261 286 260 259 286 300 277 277 308 245 256 282 323 335 340 258 290 326 339 338 321 269 291 274 275 277 270 266 293 287
285 285 285 285 284 290 255 251 250 256 280 285 290 284 304 239 259 304 296 298 307 306 303 304 248 333 322 355 340 325 329 339 332 304 325 298 290 272 271 265 282 247 276
271 275 277 282 281 281 270 282 285 282 277 310 304 294 296 302 296 272 292 297 290 286 289 281 291 318 318 310 307 306 310 313 311 305 327 292 273 267 271 274 273 265 258
274 271 267 268 265 271 266 270 280 269 285 300 298 287 284 285 283 299 279 278 276 272 269 271 295 304 302 298 294 289 285 292 288 287 282 281 289 292 278 269 262 249 244
260 263 271 273 275 264 295 293 291 289 282 279 277 274 268 266 267 280 277 271 270 271 262 268 266 286 295 299 298 287 273 265 272 262 261 261 265 257 253 262 252 251 251
287 301 289 303 297 282 275 278 278 280 269 268 263 261 261 279 272 279 284 275 269 264 261 263 289 282 279 286 280 275 265 268 265 261 253 254 244 250 244 246 244 241 237
258 255 262 261 268 269 268 268 264 263 261 258 253 253 264 277 281 277 322 307 276 268 261 256 277 274 275 272 264 269 266 262 255 258 251 253 255 248 245 244 248 254 250
255 257 257 257 259 255 252 250 251 251 250 249 248 259 273 274 283 310 299 283 272 264 260 262 279 274 263 261 263 253 255 256 260 245 249 245 243 249 241 237 235 233 238
268 262 257 254 251 251 250 250 249 251 252 253 260 270 277 271 275 283 282 270 264 261 262 252 259 265 257 252 250 247 251 254 254 260 261 259 256 254 253 250 246 243 234
267 272 273 273 272 265 262 262 262 263 269 272 272 271 274 268 270 278 279 278 268 263 257 250 256 255 254 250 247 248 250 246 240 239 243 243 241 241 244 249 250 248 248
273 267 268 269 269 273 274 276 274 272 271 271 266 276 267 264 266 266 285 272 275 262 256 253 249 247 248 246 243 241 240 242 242 242 242 246 252 247 242 240 241 240 239
276 268 266 265 266 266 269 269 271 267 274 272 269 267 261 259 260 258 270 272 273 263 258 253 249 250 249 248 245 245 250 248 245 251 254 245 240 239 237 237 238 252 263
293 277 271 265 268 266 266 266 264 266 265 265 268 263 260 261 254 256 251 252 260 259 263 258 252 251 251 253 254 251 254 258 251 243 240 241 237 239 252 255 259 269 279
323 303 283 276 265 265 263 262 269 265 264 263 263 258 254 259 255 252 251 246 245 249 251 249 249 254 258 260 256 247 245 244 243 241 243 233 247 253 254 259 268 282 292
302 325 302 283 275 264 263 260 260 262 263 265 262 262 257 252 254 249 249 247 245 242 241 241 243 247 249 248 246 243 244 239 239 243 241 255 252 256 261 275 281 309 319
303 302 321 316 285 275 264 262 257 253 253 257 253 247 244 250 251 256 252 248 244 241 241 241 242 247 240 241 243 235 240 248 243 254 255 253 253 260 277 320 380 365 337
311 306 302 319 317 287 275 269 263 260 253 252 250 248 249 245 241 247 242 244 252 251 247 244 242 240 240 239 241 247 244 245 260 255 250 254 266 280 327 317 319 283 295
320 311 305 297 310 324 300 274 273 262 257 252 251 250 249 243 241 245 242 249 259 255 252 255 251 246 243 246 244 244 253 262 250 243 251 260 277 291 310 292 293 295 290

GFSGL_2pvu_pres_078.txt.gz
Presure
173 185 164 166 178 208 209 157 152 177 181 158 184 177 172 161 157 189 190 195 185 182 189 189 190 208 205 181 192 200 170 181 191 204 183 163 193 185 186 187 166 184 195
211 210 170 183 183 170 180 176 174 177 176 187 171 183 178 177 196 195 181 190 189 187 198 168 197 192 198 191 186 198 197 180 232 238 215 241 222 235 249 184 206 218 230
200 180 171 170 175 197 167 193 186 167 180 193 177 196 178 170 160 191 176 188 197 176 197 202 189 183 204 199 232 221 231 143 177 195 177 192 229 238 229 231 242 242 243
199 179 168 181 189 197 159 156 156 195 156 186 158 179 189 189 166 177 196 194 202 202 214 223 219 207 200 204 188 167 172 213 211 210 218 239 234 234 239 242 258 269 276
152 210 217 151 211 208 210 211 154 195 194 191 163 173 195 196 188 199 207 207 203 217 201 211 212 205 208 231 157 256 234 225 239 248 246 251 256 263 272 275 296 287 257
278 261 274 232 235 215 217 127 129 213 210 212 210 205 205 206 221 196 210 217 214 231 232 229 213 251 260 241 227 251 256 258 257 253 280 295 303 287 303 264 259 309 269
263 264 280 275 278 288 269 250 233 229 230 163 210 179 218 219 227 179 226 230 237 239 239 220 247 258 254 269 280 286 289 288 254 298 309 288 292 276 314 264 299 289 288
281 279 269 295 279 277 298 291 282 292 299 276 275 281 280 270 279 282 280 283 304 302 285 280 295 316 302 288 276 258 296 327 287 338 368 355 338 351 366 331 312 304 292
279 285 282 271 250 254 272 265 296 260 286 283 294 299 287 282 294 307 281 304 310 289 285 311 306 273 237 290 254 306 303 337 345 351 327 333 345 338 327 317 291 296 280
287 291 298 267 265 267 266 266 264 264 264 253 277 266 264 265 277 300 253 254 276 272 259 279 275 251 294 256 282 289 319 315 321 319 296 314 319 324 292 323 294 307 296
291 300 299 302 300 272 274 280 277 289 291 285 283 285 276 279 261 241 245 294 301 291 311 299 295 293 281 280 279 285 317 317 297 297 299 300 300 312 312 292 284 277 285
273 273 276 276 277 272 265 263 275 273 279 296 288 287 291 280 298 278 311 303 286 289 293 286 296 278 264 274 258 269 295 296 283 290 286 280 277 282 279 300 291 291 286
279 275 269 266 266 274 270 265 268 271 276 271 269 267 269 301 300 294 288 282 276 279 268 269 278 278 266 269 265 285 289 301 294 283 264 262 270 264 260 266 263 254 252
266 257 254 259 266 275 278 268 261 254 254 254 284 302 295 283 282 278 272 269 264 268 288 274 284 280 269 259 262 274 281 280 271 269 264 268 264 264 254 253 248 247 248
278 270 269 266 263 259 264 269 253 263 281 294 298 284 275 276 274 263 261 261 256 280 284 286 302 291 270 260 262 266 279 278 267 268 268 264 262 260 261 260 260 259 252
296 287 277 268 267 267 273 265 266 280 282 267 273 268 270 265 261 256 251 253 259 280 305 313 293 275 268 261 256 271 268 263 264 254 249 248 252 250 245 246 245 241 241
341 309 292 284 275 265 266 279 276 266 255 260 258 257 255 253 250 250 249 254 273 270 290 290 277 270 268 262 254 271 263 250 258 248 250 254 249 250 243 239 239 240 237
308 311 312 301 287 274 265 266 264 256 254 258 253 252 249 247 243 247 256 270 274 266 284 276 272 265 264 262 256 253 256 250 251 249 247 247 239 239 241 244 241 249 250
306 311 295 319 300 287 277 266 261 260 258 256 255 250 250 250 249 258 271 268 274 265 270 280 275 266 264 256 251 254 245 250 248 245 247 247 250 247 249 252 248 242 239
329 308 308 300 308 292 284 276 270 266 266 272 273 272 268 268 271 270 268 265 265 263 262 274 278 271 264 256 253 251 248 249 250 252 252 252 252 253 247 239 240 239 231
338 319 308 301 312 303 289 279 273 270 268 270 272 274 276 273 270 274 267 263 260 258 257 252 261 266 263 260 258 253 252 252 258 259 257 255 249 241 240 239 230 239 238
355 346 319 306 300 310 292 283 274 267 265 262 265 267 270 269 265 272 264 255 249 253 256 256 251 251 252 249 248 250 248 246 247 246 245 247 243 236 237 245 243 254 255
323 350 340 314 303 312 304 290 278 268 265 262 263 267 266 262 262 261 260 260 251 252 251 251 249 248 244 243 243 242 241 241 242 246 243 246 238 241 247 247 259 251 247
356 395 351 330 309 301 315 297 285 277 269 264 265 264 264 264 262 255 254 255 249 249 249 248 248 247 244 245 242 242 241 240 240 242 241 241 243 245 251 260 247 245 254
538 370 357 342 320 306 300 307 289 277 272 268 264 262 260 265 260 261 261 256 253 253 253 252 249 247 246 247 248 248 248 246 246 248 248 245 250 254 253 240 253 258 270
523 432 369 341 331 315 302 316 303 290 279 273 265 260 258 258 261 256 253 246 243 244 241 242 245 244 243 245 243 251 254 258 260 254 254 256 256 248 245 242 261 264 282

GFSGL_2pvu_pres_081.txt.gz
Presure
171 191 189 146 156 171 218 169 152 159 158 159 156 161 164 169 169 192 169 178 157 172 182 152 167 176 184 155 191 180 189 209 200 192 198 186 203 226 206 209 216 227 242
174 184 213 183 188 186 191 183 216 160 162 158 179 198 169 170 189 181 158 156 222 207 222 195 184 213 221 193 185 186 194 205 199 205 218 190 217 207 237 232 232 234 228
203 213 192 174 218 192 208 189 198 189 190 183 201 192 148 169 156 186 204 205 161 185 159 204 175 193 207 184 195 174 202 192 218 196 216 221 243 222 236 239 253 249 258
223 203 205 218 200 210 224 197 226 221 177 197 215 219 152 144 177 173 179 194 178 188 197 197 189 196 202 175 188 229 194 217 235 189 227 238 240 252 275 275 263 272 274
220 220 226 205 223 196 190 222 190 175 190 198 175 181 187 189 159 173 162 152 203 194 189 178 167 202 189 239 210 230 217 232 249 235 241 250 280 297 299 292 282 306 285
210 210 210 209 204 192 190 189 187 186 153 155 184 155 199 199 133 200 198 163 194 207 200 191 237 225 229 220 214 239 178 249 250 300 279 288 330 332 273 340 322 357 366
212 219 223 213 211 211 207 198 199 195 197 201 189 187 210 200 209 206 207 208 191 197 212 202 203 229 222 220 233 281 211 297 290 294 324 275 303 325 340 377 358 357 326
264 227 219 214 213 215 215 213 213 209 205 205 203 204 207 204 201 210 223 220 227 225 225 224 228 234 261 266 290 296 314 296 255 238 263 262 308 329 336 330 343 348 329
299 300 302 282 228 225 224 224 226 229 226 226 227 227 227 230 228 232 266 303 268 284 310 275 283 296 303 289 301 266 225 285 304 295 294 304 339 320 287 321 331 324 298
297 295 292 291 290 282 265 290 296 292 319 266 270 274 271 268 298 265 268 300 272 277 301 257 288 275 240 227 242 286 309 303 290 290 289 292 310 305 309 314 324 326 310
295 301 306 318 318 311 312 301 287 291 290 285 273 258 257 285 267 250 261 255 253 264 285 269 294 252 302 268 294 300 296 293 280 282 279 290 299 302 293 283 309 308 297
303 296 291 293 288 287 289 292 291 291 291 285 284 289 276 285 266 263 278 252 247 271 257 287 307 306 294 293 287 287 290 290 276 266 277 301 306 284 278 274 274 270 287
308 309 292 285 280 288 292 289 263 306 301 299 285 263 265 256 255 276 270 281 254 280 277 270 298 287 284 275 275 263 261 267 275 271 269 287 284 278 269 266 268 262 260
301 312 314 294 286 280 273 281 280 276 271 265 265 265 271 270 277 273 267 278 267 274 302 289 280 269 274 258 274 285 273 273 269 267 268 282 273 275 268 261 268 265 254
321 302 304 315 297 281 279 271 267 267 269 269 266 265 263 264 268 266 273 263 295 301 281 277 267 257 261 261 285 298 284 276 266 265 265 277 273 278 275 266 264 261 255
329 321 306 315 313 300 286 276 271 269 265 263 263 265 265 267 263 277 261 296 294 277 273 267 255 258 254 282 320 305 289 274 264 264 269 268 270 261 255 250 255 254 252
334 334 330 325 318 305 324 292 280 270 267 264 262 260 256 256 258 263 277 281 272 269 260 260 255 250 258 275 297 286 274 267 263 262 264 262 252 263 261 257 252 251 238
339 338 332 335 319 307 307 328 309 293 280 268 266 263 263 266 277 271 265 253 259 256 250 252 248 247 272 267 284 273 273 265 262 259 254 254 241 246 247 242 239 237 239
365 339 337 342 335 317 307 308 324 315 300 289 281 276 271 264 265 273 254 251 254 251 240 243 246 251 273 266 267 271 271 266 263 259 254 249 242 245 250 253 257 258 254
421 382 359 340 341 335 314 304 308 328 314 297 289 281 276 278 266 255 247 247 247 245 240 246 249 267 266 261 257 269 264 261 261 254 253 252 248 255 263 258 258 251 247
327 373 442 395 343 339 338 314 303 309 319 307 293 286 281 278 262 255 251 248 247 244 242 249 264 270 262 254 256 247 260 263 264 254 257 259 258 250 248 249 249 246 244
459 482 315 399 413 345 335 334 306 302 303 292 292 289 280 275 264 256 255 261 262 262 265 266 267 265 253 249 244 249 253 267 260 259 256 253 250 246 244 246 244 239 241
484 496 457 317 311 432 349 333 316 304 304 313 292 286 281 271 264 262 262 263 261 264 265 263 264 260 253 242 247 252 247 249 249 246 247 245 245 244 243 240 239 239 244
467 485 483 499 332 315 373 341 328 309 305 309 298 281 278 266 261 259 257 258 257 262 262 260 263 252 247 244 248 243 242 245 250 245 245 242 242 244 247 246 249 251 250
449 449 471 509 537 336 312 354 332 312 306 301 300 280 277 265 260 254 253 255 255 255 261 254 254 253 248 244 243 244 243 243 244 246 251 250 250 257 258 256 251 254 260
428 429 453 530 524 406 323 349 333 311 305 307 295 280 274 265 257 257 253 255 255 254 258 254 251 251 245 242 243 247 249 245 243 242 246 260 267 251 249 251 253 252 255

GFSGL_2pvu_pres_084.txt.gz
Presure
190 196 209 201 195 193 178 189 174 190 188 171 178 168 159 152 184 183 172 174 174 198 167 187 186 167 181 181 189 185 193 154 212 195 177 190 199 168 186 205 203 194 214
184 195 218 208 209 207 176 185 178 176 166 175 170 187 205 203 171 186 170 171 163 185 186 193 186 206 177 145 167 157 199 207 189 211 162 203 168 212 161 207 200 216 232
199 197 194 207 196 185 201 197 187 179 178 185 172 183 168 163 173 180 179 164 180 187 189 143 178 167 189 181 146 196 181 204 203 195 183 207 195 209 215 200 237 234 273
208 203 194 200 219 210 212 177 182 182 183 172 167 174 173 177 183 189 174 182 178 203 192 178 171 173 163 160 192 197 201 209 193 176 212 204 205 189 199 246 244 329 318
217 211 215 216 190 204 190 194 191 162 182 188 181 187 187 183 150 169 147 174 152 188 187 199 193 179 196 205 201 194 195 198 198 198 213 212 220 244 236 290 317 333 268
214 235 219 211 204 221 201 209 203 204 200 182 182 176 157 185 189 189 196 186 155 199 197 162 196 203 202 187 164 192 216 197 209 211 208 228 240 249 279 289 265 248 252
221 211 220 212 216 218 209 212 223 204 199 188 189 185 193 170 193 210 195 192 185 207 202 197 213 209 203 200 199 201 201 210 208 226 217 223 314 262 276 291 296 313 343
230 218 230 219 212 193 191 207 212 214 215 221 220 196 208 197 210 207 203 210 200 189 208 203 200 208 214 196 206 213 215 226 216 232 263 277 292 256 283 272 309 297 303
235 229 234 220 224 223 224 226 217 226 214 220 205 204 204 205 211 202 211 204 209 196 193 216 213 213 181 205 200 223 228 216 248 277 260 272 294 255 293 297 292 313 312
360 357 338 245 235 236 229 226 229 222 226 226 222 221 224 224 216 209 208 213 207 204 205 206 204 209 220 197 228 218 279 274 254 305 277 280 297 296 295 286 313 304 297
305 299 310 339 344 324 329 236 237 241 238 230 230 221 224 227 207 209 194 200 217 219 223 218 217 202 217 224 272 309 294 296 294 319 259 299 293 284 277 285 280 286 283
296 301 298 319 326 314 337 317 315 296 298 287 229 233 234 229 225 219 224 221 229 217 212 219 216 258 292 262 276 269 288 299 304 293 288 284 273 266 269 272 297 283 275
302 297 292 297 300 317 304 306 323 313 302 286 295 299 295 301 296 288 279 275 274 288 280 276 301 291 267 280 288 285 284 281 289 280 280 273 287 273 269 276 280 268 274
315 305 306 290 294 281 296 228 297 326 311 298 293 282 278 286 280 277 278 289 279 272 281 265 275 275 253 278 290 276 303 286 277 273 266 282 284 276 271 271 270 267 263
346 331 315 314 297 292 284 290 301 299 304 309 298 286 285 293 285 273 273 268 281 280 275 276 271 275 268 265 292 295 285 272 268 266 291 295 286 273 269 264 274 270 275
379 367 360 339 317 308 309 291 292 296 306 299 307 294 284 278 268 274 282 280 264 269 267 266 266 272 280 285 292 280 269 266 261 260 319 298 283 273 265 267 262 251 256
367 409 389 369 364 335 329 317 307 303 296 308 302 301 290 281 277 274 266 269 267 266 263 266 273 263 267 288 274 266 260 257 252 301 295 277 271 264 261 262 257 253 257
353 342 486 425 393 363 350 343 328 314 307 304 320 305 302 283 278 269 270 266 265 256 259 263 245 253 265 272 260 254 250 247 248 276 279 271 267 262 255 256 253 247 240
398 424 331 341 467 435 368 350 346 336 325 320 324 316 315 302 283 278 268 263 264 262 258 255 261 266 264 250 252 249 243 242 247 270 264 267 262 259 255 251 252 244 241
384 401 424 329 350 446 438 365 349 346 339 334 322 314 310 306 306 287 277 270 264 255 256 254 257 266 253 249 243 244 237 242 251 268 257 270 257 255 255 252 248 246 244
405 404 412 352 323 320 397 442 360 347 338 336 320 314 308 299 295 313 290 278 271 269 264 264 265 259 248 245 240 239 238 242 255 265 256 265 256 263 260 256 251 254 260
408 410 420 439 371 317 320 323 432 354 345 338 322 313 310 298 303 303 299 290 293 283 277 276 259 247 240 241 239 239 239 258 260 260 252 259 259 256 258 257 258 252 249
421 411 425 435 489 323 330 434 318 428 347 343 324 313 306 297 298 300 290 283 281 290 276 266 255 245 242 243 242 246 251 259 261 252 247 246 241 244 244 241 239 243 242
423 425 428 467 468 473 484 523 480 304 359 345 328 323 303 304 296 307 295 289 283 275 273 257 250 246 249 254 258 263 263 259 245 252 241 247 242 244 248 251 245 248 251
425 456 452 450 437 444 454 515 536 313 376 348 340 323 300 304 301 307 292 290 278 272 264 257 252 252 256 257 260 259 256 263 250 247 243 247 245 244 243 248 245 244 253
443 437 423 419 423 441 467 533 539 322 305 349 335 318 317 304 298 299 291 279 273 265 258 255 254 254 255 254 258 257 260 249 249 246 244 242 239 243 248 244 240 241 248

GFSGL_2pvu_pres_087.txt.gz
Presure
213 183 179 195 194 208 207 202 191 206 183 201 206 192 180 168 182 170 185 158 155 154 168 155 175 189 190 155 190 206 170 195 220 185 177 196 180 175 202 196 189 201 188
200 207 196 202 202 197 201 193 183 188 197 175 186 199 198 204 172 179 198 186 204 197 174 192 178 213 177 180 205 160 190 186 186 207 168 152 146 191 192 176 206 203 181
193 188 205 207 206 201 203 190 191 195 183 178 177 185 182 178 173 178 176 190 179 183 194 179 172 176 160 187 156 191 163 173 152 172 170 217 149 196 213 212 195 203 215
188 191 187 200 214 204 200 202 200 204 210 197 205 200 195 188 193 188 191 190 184 194 196 180 175 212 161 172 184 188 164 179 195 178 204 192 193 202 198 217 215 212 221
209 190 160 214 199 199 204 200 207 166 191 211 197 197 190 182 185 187 186 202 192 204 192 182 195 161 178 172 193 152 182 195 180 188 170 186 208 205 226 221 223 215 226
203 202 188 200 219 220 215 214 203 211 178 225 203 204 193 194 183 164 190 179 195 195 191 192 191 191 192 201 184 198 172 191 178 163 200 191 218 214 217 215 197 224 197
225 207 215 222 187 173 208 203 204 196 204 195 167 207 204 191 203 186 188 190 190 195 169 197 196 189 174 198 189 189 193 185 194 202 191 192 212 223 197 236 210 215 224
213 206 221 225 220 211 212 218 210 228 222 211 211 202 203 202 203 188 199 210 181 181 204 180 177 195 191 177 184 200 198 176 195 200 181 218 224 208 226 229 229 224 232
197 215 215 210 228 198 219 214 203 212 210 207 183 185 188 207 203 207 176 202 202 165 197 196 195 192 199 202 202 176 177 178 225 216 229 209 215 241 244 227 311 304 305
224 214 225 194 227 223 217 215 229 222 227 215 187 214 202 203 212 215 210 214 215 185 185 212 205 202 204 221 176 216 213 219 208 211 230 197 220 208 227 275 295 298 291
244 230 231 232 234 228 222 221 227 228 230 228 224 214 213 214 215 212 217 216 207 199 215 209 215 223 218 204 220 201 225 204 217 225 214 231 228 196 224 281 303 291 285
302 260 285 278 276 254 243 243 246 250 261 249 226 217 231 227 219 213 222 210 233 220 201 203 219 203 206 205 219 212 205 211 213 203 224 239 245 253 273 297 288 285 274
380 231 337 263 261 259 254 269 280 302 306 308 298 283 263 224 238 244 236 236 233 227 215 237 221 228 228 227 228 224 238 204 216 240 298 295 289 279 297 284 282 271 292
364 363 356 349 349 338 318 319 315 282 250 300 296 283 286 298 293 295 328 307 294 314 239 235 235 239 262 281 258 268 280 276 271 276 287 286 280 299 283 283 274 273 281
398 395 386 390 364 356 345 327 332 320 304 294 285 283 283 284 290 305 296 289 309 292 291 299 280 278 284 276 272 266 267 262 260 267 254 297 300 286 277 272 264 298 283
467 468 452 443 424 410 395 378 371 348 333 312 295 290 273 281 281 286 293 301 291 304 290 290 289 277 270 262 270 261 288 268 263 271 275 295 284 274 266 260 308 289 275
366 356 351 349 353 391 496 459 407 382 381 335 324 299 303 282 281 270 279 282 295 293 291 288 272 280 275 275 294 278 267 273 266 267 284 278 270 262 256 250 286 274 261
344 343 344 342 330 329 332 368 456 429 407 386 372 363 321 302 294 291 280 279 281 316 284 278 284 274 277 266 253 265 261 270 264 258 273 269 260 254 249 280 266 266 262
335 326 319 318 319 320 329 339 381 402 342 420 388 373 349 329 315 292 293 292 288 284 289 277 272 273 269 267 264 258 257 258 254 251 264 256 252 247 241 273 262 262 259
328 326 331 338 348 357 363 370 389 420 355 352 411 377 359 344 333 317 302 306 295 292 299 278 277 267 267 261 257 256 256 254 262 257 250 245 246 238 240 261 262 265 257
375 397 412 405 396 390 391 398 418 414 439 323 421 385 364 350 340 323 319 319 318 314 305 308 275 269 266 257 253 254 255 253 252 256 242 243 243 235 236 259 254 261 259
480 468 458 449 440 431 421 417 422 424 463 317 401 389 366 351 337 332 321 324 322 317 293 300 281 268 264 263 258 257 256 254 259 250 241 241 238 235 238 259 248 255 259
484 475 465 458 447 438 430 430 429 448 493 318 318 397 365 351 341 327 318 321 309 298 291 282 288 284 269 264 265 257 260 266 260 243 241 237 237 234 246 258 247 253 247
475 467 352 436 436 428 426 434 476 484 496 317 314 309 368 348 344 324 312 312 297 292 284 279 282 286 288 282 273 268 267 262 247 235 234 237 239 247 251 259 245 244 242
445 438 432 426 425 437 461 462 449 461 469 311 314 305 370 353 333 321 309 304 293 287 281 282 286 286 281 281 278 272 261 249 243 238 237 239 249 258 254 240 249 239 240
462 461 452 440 438 424 427 425 434 451 465 332 384 301 373 349 328 314 308 297 292 283 285 284 283 278 275 272 267 258 254 244 242 241 248 253 252 247 256 240 246 239 243

GFSGL_2pvu_pres_093.txt.gz
Presure
152 149 148 185 150 151 152 150 152 153 160 170 163 205 175 181 188 189 210 170 189 190 169 195 171 189 181 183 195 188 204 188 175 175 210 207 200 185 208 205 174 188 189
179 171 206 163 192 169 165 164 169 219 212 202 191 179 175 192 211 190 171 174 170 169 163 170 151 160 189 182 179 205 198 193 190 195 200 201 166 151 230 179 210 211 202
251 259 240 238 231 192 198 179 183 179 191 187 201 215 215 212 190 196 196 175 195 190 185 154 200 191 189 191 191 184 211 184 192 190 185 200 197 185 213 173 210 203 205
226 224 247 227 218 228 214 202 190 188 182 189 193 183 196 168 171 188 193 188 194 198 193 192 185 191 189 191 209 193 177 183 192 206 196 207 190 150 171 180 213 199 192
242 238 211 248 242 238 202 196 203 194 208 201 192 203 204 194 210 205 188 183 196 216 187 199 172 165 194 170 169 204 220 197 159 146 149 164 201 185 203 151 158 143 191
223 208 241 230 225 230 214 236 221 221 195 191 190 192 184 175 169 178 204 199 191 201 225 216 187 207 224 205 217 185 183 186 160 162 209 202 204 164 205 185 205 200 201
246 225 223 204 206 198 223 237 227 224 200 207 210 185 208 203 213 206 213 201 205 189 192 191 192 193 185 196 190 179 195 194 217 197 192 202 207 179 196 192 187 183 198
210 222 216 229 208 237 244 245 241 233 214 207 202 228 211 204 227 213 208 200 218 206 204 209 207 181 196 193 197 198 187 197 213 202 203 175 183 191 193 197 203 196 196
234 203 191 192 222 202 222 225 211 207 236 227 227 226 219 223 227 218 214 213 182 187 194 215 190 191 189 196 200 185 203 221 214 198 200 195 184 182 192 199 188 192 194
213 205 230 200 213 202 192 193 227 227 217 215 211 223 223 225 217 218 226 218 216 219 215 222 204 211 201 210 223 212 218 206 180 206 192 188 197 203 208 204 210 203 196
220 201 224 226 233 230 221 217 229 232 213 227 236 209 229 218 247 234 237 216 232 222 198 219 223 218 197 206 211 195 192 201 210 212 189 200 202 202 198 186 187 185 205
254 250 203 203 203 239 246 253 260 250 249 223 257 231 241 240 230 229 241 218 215 221 232 224 206 203 204 213 202 204 200 208 205 215 200 194 195 198 191 200 202 198 198
251 264 277 285 279 262 214 364 409 350 372 280 239 292 260 242 238 248 237 232 247 222 222 236 216 225 219 223 205 216 218 214 211 210 202 205 200 202 202 203 203 199 194
259 275 295 324 375 463 503 492 487 490 482 481 274 233 259 280 275 253 254 251 249 251 244 241 234 230 234 230 224 205 211 214 214 217 204 213 189 204 205 211 231 284 304
277 310 395 498 471 448 434 423 426 432 420 417 434 477 465 343 265 345 291 278 297 255 266 285 274 267 262 262 270 271 263 240 274 273 274 291 233 223 248 275 261 255 267
318 457 425 421 411 407 402 398 396 392 388 388 384 394 466 452 427 406 359 263 253 251 252 334 278 277 264 256 260 257 272 279 279 275 261 259 271 265 234 254 252 262 282
453 441 427 417 406 392 379 376 376 376 373 375 365 361 363 387 438 413 398 386 369 362 347 339 340 249 238 232 223 224 240 249 228 230 256 227 238 226 290 244 281 277 265
583 561 537 478 443 421 397 375 362 366 357 354 350 349 346 344 348 370 411 391 378 366 353 343 336 317 305 283 289 272 298 285 271 263 257 258 258 264 264 262 275 265 264
618 595 570 546 527 509 479 425 390 361 357 351 344 343 334 335 337 335 340 383 392 371 350 341 334 331 310 292 276 280 284 273 268 272 278 266 257 256 256 251 274 265 261
446 584 566 549 532 517 506 501 494 483 369 349 350 347 342 335 329 330 337 325 339 390 371 352 334 326 322 310 313 299 293 278 274 272 265 269 270 264 274 281 269 266 248
412 415 485 505 498 492 487 485 487 491 491 486 357 343 342 340 331 320 314 319 317 314 393 366 355 331 323 312 308 302 308 293 290 276 268 271 280 277 268 277 267 248 241
412 418 408 419 460 477 484 483 480 486 492 489 478 468 459 383 348 337 323 317 307 309 307 344 360 339 318 321 313 304 304 293 280 275 278 275 286 279 276 264 254 244 240
430 425 416 404 407 415 457 450 462 472 478 479 478 471 462 455 438 418 395 363 342 323 324 337 358 347 322 311 307 306 289 281 284 278 277 281 270 274 261 259 245 242 238
440 432 421 407 402 409 408 456 440 438 446 456 466 464 456 454 446 429 420 401 380 364 410 387 359 340 326 310 309 292 288 282 278 270 278 276 269 260 254 251 250 240 237
438 443 438 436 418 411 412 407 417 449 433 427 432 439 446 443 440 441 431 421 411 396 413 324 347 333 323 302 295 289 279 284 281 282 283 267 256 254 252 247 246 249 241
463 450 437 430 432 423 419 409 413 418 437 443 442 457 441 433 436 442 442 429 430 440 317 356 338 326 307 302 296 295 288 281 283 278 270 262 254 253 253 249 244 254 249

GFSGL_2pvu_pres_096.txt.gz
Presure
168 186 185 157 146 174 151 235 218 170 153 208 154 162 162 149 180 150 152 144 150 160 191 184 171 192 186 185 199 190 191 205 190 197 194 190 192 196 191 161 175 190 200
190 184 175 216 246 230 166 266 222 243 217 214 179 203 166 152 175 159 160 192 159 181 189 180 165 181 192 185 182 160 183 184 200 180 184 193 169 178 178 203 197 220 203
222 203 202 186 179 186 193 239 196 211 208 236 207 215 187 203 207 197 212 204 185 186 198 191 182 181 184 179 163 150 172 189 182 182 192 178 168 197 172 215 205 178 211
251 253 255 233 193 223 213 179 176 150 158 152 221 126 195 210 172 185 183 194 180 191 193 176 190 184 188 194 187 198 194 198 171 192 194 193 196 197 205 187 165 172 185
176 237 246 248 244 247 235 233 237 202 236 197 229 200 201 198 196 194 211 198 203 222 223 219 194 194 173 203 172 210 200 203 196 193 206 190 160 187 185 144 155 202 180
241 230 204 224 236 234 203 240 226 219 217 238 194 217 187 182 217 200 181 204 201 204 200 202 213 210 204 199 189 216 205 203 205 202 206 197 200 206 172 213 206 197 211
249 242 242 240 227 243 237 245 243 237 241 239 225 225 221 224 197 207 183 193 193 208 202 199 193 209 200 198 203 192 193 202 212 222 225 182 174 233 193 215 217 186 199
256 241 236 238 218 242 239 223 200 228 224 231 240 214 194 220 224 221 217 212 204 208 215 205 211 208 213 203 206 201 224 217 189 207 236 170 211 199 220 199 199 187 201
220 203 234 166 167 234 236 208 238 213 231 190 195 225 227 216 219 228 192 222 218 220 219 210 212 212 228 201 201 192 210 215 226 211 229 211 207 219 195 189 193 192 189
169 181 218 171 198 262 190 195 165 224 234 222 230 231 198 198 205 230 227 223 222 218 233 236 185 235 206 212 199 193 208 202 218 204 195 195 195 222 202 194 210 202 204
139 143 217 200 184 182 209 236 237 241 212 218 224 232 231 227 227 225 223 227 216 217 228 233 229 206 197 209 227 239 203 207 234 198 207 201 205 202 193 199 192 194 197
178 180 210 225 178 236 241 208 260 275 235 249 250 252 246 241 237 227 248 237 238 239 234 229 214 246 237 238 238 238 238 231 225 217 208 209 214 195 213 203 197 208 191
192 243 190 243 247 263 272 290 299 331 223 223 223 228 226 229 240 275 274 281 221 243 251 251 250 237 242 229 235 233 234 236 231 230 215 220 202 194 209 211 210 207 207
248 248 242 249 253 270 290 437 467 457 444 436 429 425 309 428 456 278 332 264 253 240 248 229 248 243 219 253 243 236 234 221 216 225 222 221 222 216 211 218 208 224 270
253 249 255 260 277 352 584 554 521 485 456 434 416 404 397 407 423 432 440 456 461 439 277 274 251 307 258 263 263 260 250 241 238 235 264 233 233 237 231 225 235 252 228
250 257 266 269 319 466 462 466 541 512 477 444 418 398 383 378 396 396 396 421 460 447 429 412 358 266 269 277 304 246 250 267 268 257 269 276 257 262 229 247 252 239 257
254 270 269 302 454 439 439 437 555 509 492 464 430 403 381 366 375 379 374 379 423 463 436 416 392 380 371 358 351 344 264 253 250 250 254 257 242 220 236 242 298 214 219
265 265 290 440 426 426 446 434 553 529 497 474 457 421 391 366 360 374 364 361 364 454 444 417 393 374 362 350 342 330 323 323 267 302 308 250 287 240 267 268 250 240 264
268 277 411 421 423 446 443 427 490 525 514 494 468 455 421 378 354 355 358 353 347 347 442 418 392 373 358 347 341 325 327 319 313 304 293 296 292 273 281 278 273 270 267
266 302 418 430 443 449 439 425 413 495 492 492 484 471 459 435 360 349 338 340 342 344 342 422 389 375 356 344 342 323 315 307 299 304 298 292 288 275 289 284 276 269 267
286 414 426 442 450 446 437 430 405 412 474 479 479 481 477 471 462 354 346 329 330 328 340 333 411 371 357 343 329 310 315 302 293 289 292 281 277 272 269 262 263 266 270
295 416 448 480 470 450 441 435 407 407 441 453 472 476 486 484 479 469 349 343 330 329 326 330 326 395 360 345 333 314 301 291 290 292 279 277 276 275 274 274 273 265 273
414 439 467 483 466 452 446 434 418 412 407 441 442 465 479 489 484 477 466 342 336 328 320 312 315 318 379 348 335 318 303 296 293 286 288 281 281 270 267 266 269 264 263
411 441 427 471 456 444 438 437 426 411 411 422 435 438 459 479 483 480 473 457 344 328 322 311 302 305 308 361 340 326 319 300 301 288 292 288 279 275 267 266 265 265 261
443 434 444 464 455 445 435 433 431 422 409 413 448 426 435 453 469 472 474 463 440 406 348 325 311 298 299 332 354 333 317 301 295 303 293 282 276 267 270 264 265 265 260
446 439 466 484 472 457 461 436 429 426 408 417 432 443 433 427 447 376 377 463 447 423 386 360 334 317 306 324 353 336 313 306 295 294 289 274 271 269 260 265 266 261 256

GFSGL_2pvu_pres_099.txt.gz
Presure
260 303 284 198 277 274 276 266 174 199 218 196 179 187 206 209 229 204 223 196 222 217 209 206 170 154 191 167 202 174 175 197 190 168 191 204 190 177 184 192 185 181 181
185 243 269 264 268 258 261 268 252 231 211 212 205 193 214 221 230 219 210 189 214 216 154 219 166 207 171 161 171 189 172 167 186 197 210 194 201 193 214 185 171 172 184
248 253 252 253 264 275 191 170 217 230 170 220 241 234 205 169 237 226 210 213 201 193 199 207 212 198 186 204 197 180 173 204 206 213 183 183 182 182 193 167 188 192 207
254 204 181 239 236 240 231 233 238 224 226 239 229 189 188 200 230 205 195 173 188 197 187 193 205 191 194 201 166 190 220 200 190 204 208 188 190 185 173 186 172 201 192
258 237 249 245 239 246 253 225 218 226 219 237 210 216 200 209 219 209 216 196 187 202 181 188 203 202 213 217 208 198 189 177 189 194 187 185 198 179 198 203 200 198 201
259 246 266 243 248 263 234 245 244 233 227 234 213 215 226 252 242 239 257 223 227 182 223 206 206 204 224 179 203 171 184 171 191 203 180 179 189 191 207 193 191 212 190
260 270 256 247 250 242 224 247 238 226 234 220 211 223 225 226 212 219 217 228 236 217 207 205 203 204 211 204 203 204 209 206 209 212 213 202 204 211 212 195 202 209 198
226 270 260 236 256 234 252 244 237 220 224 242 240 226 222 211 223 234 222 198 218 221 223 222 225 224 219 198 228 212 203 203 198 180 207 222 203 210 195 222 207 194 221
160 149 181 180 158 132 153 161 196 194 192 235 162 213 212 171 202 238 238 233 229 228 226 185 199 212 215 215 203 213 177 184 200 213 215 201 193 206 208 201 208 212 224
142 184 176 142 175 155 113 172 190 218 248 247 241 217 220 186 192 228 228 230 220 202 212 235 229 229 231 218 215 214 215 213 216 220 218 227 223 221 214 195 191 193 214
127 165 184 196 175 124 163 161 215 205 194 214 230 227 223 233 235 225 203 222 239 233 227 228 217 226 220 210 227 241 236 236 232 220 218 222 217 210 209 205 209 208 201
226 227 177 155 170 178 160 176 164 243 244 125 208 242 231 238 219 229 237 246 227 224 231 242 237 245 238 234 228 229 226 226 246 242 220 220 212 203 204 204 207 221 208
180 182 237 245 243 182 163 173 257 259 257 275 297 319 386 379 381 376 275 275 256 272 241 248 243 240 238 258 245 214 246 232 235 229 242 224 230 232 227 225 221 224 223
191 203 246 169 170 162 174 248 250 261 278 309 493 488 479 469 467 479 473 462 453 449 270 252 272 277 272 264 243 244 241 225 228 236 257 234 227 235 234 223 230 239 228
153 193 201 192 259 247 249 241 271 294 447 462 454 452 458 462 461 491 462 443 431 423 426 428 433 378 248 248 256 275 245 243 244 249 244 242 247 223 233 236 228 227 218
248 190 244 163 253 242 243 264 299 436 461 475 470 479 465 469 518 477 446 428 413 402 403 406 431 456 477 442 261 337 396 250 261 254 263 243 261 255 259 258 248 246 243
164 165 212 257 266 238 265 291 456 470 464 480 473 459 448 536 504 471 435 413 397 386 384 393 401 408 425 455 432 404 398 374 355 342 266 320 246 241 241 246 244 258 248
240 250 270 268 238 272 278 351 473 502 482 463 458 442 437 529 501 467 429 406 385 376 373 380 382 382 428 417 437 416 390 363 360 347 337 344 345 338 316 262 267 253 280
219 253 274 249 261 275 313 473 462 473 473 460 446 426 431 524 509 471 431 405 381 368 363 371 365 366 441 439 437 404 384 363 348 332 320 323 311 324 316 320 250 250 255
248 273 246 240 271 307 464 413 490 478 465 452 446 423 423 493 506 491 448 409 382 363 360 367 354 349 382 445 429 399 382 362 328 319 338 321 314 311 298 292 293 302 305
265 272 235 261 287 377 460 390 482 462 454 448 434 424 425 466 486 496 484 424 389 364 357 353 342 337 349 430 410 367 381 354 332 322 322 311 301 287 292 293 293 288 287
274 228 259 274 303 469 477 493 471 457 447 447 441 425 421 447 473 485 492 483 403 366 353 349 337 335 340 419 408 377 369 350 339 308 307 308 291 289 289 285 280 276 288
228 253 258 292 469 489 380 493 470 465 443 441 431 422 418 443 454 477 488 492 461 368 351 338 329 331 331 382 404 379 354 347 323 315 304 302 291 291 284 285 288 277 277
249 253 271 303 467 501 501 504 491 468 453 432 428 420 420 447 441 463 482 489 490 368 350 336 327 325 325 327 389 376 352 339 325 312 303 292 292 277 279 279 280 284 261
253 256 290 471 485 540 516 496 503 493 459 442 423 422 432 446 438 460 476 483 486 417 353 340 329 319 324 319 390 374 345 331 319 307 298 291 289 279 279 277 286 263 267
254 266 302 473 492 527 544 522 504 491 519 439 426 427 444 447 430 450 465 473 479 485 349 346 333 316 318 308 316 372 350 326 317 301 286 286 281 290 288 283 272 265 267

GFSGL_2pvu_pres_102.txt.gz
Presure
317 315 207 208 206 314 310 249 250 287 285 277 283 280 286 275 191 245 188 219 203 195 188 203 212 171 209 193 205 214 230 225 133 206 225 171 214 180 185 203 170 178 191
292 290 288 279 290 273 269 154 250 287 280 282 274 280 273 253 269 181 212 199 203 184 188 192 206 214 225 239 236 225 235 221 184 225 208 207 211 206 163 218 175 184 190
272 277 202 247 259 166 168 257 252 252 267 266 260 260 253 248 213 204 203 221 198 157 175 190 187 207 213 206 207 206 198 184 171 178 169 179 214 207 173 170 202 190 212
243 248 257 260 259 215 271 272 259 224 242 228 246 236 256 260 239 204 193 179 191 189 178 203 176 161 184 202 202 201 200 202 200 198 183 184 186 185 193 206 216 206 183
265 174 231 234 224 253 258 247 251 254 266 229 262 239 215 232 257 244 253 232 204 210 198 206 207 208 177 202 207 223 194 205 210 191 195 200 199 209 181 194 203 198 186
266 250 270 255 262 252 237 229 242 249 238 235 221 222 240 231 253 250 234 238 249 240 184 216 181 171 178 182 203 212 207 197 197 201 193 192 186 182 176 180 205 211 169
151 215 179 244 212 227 228 264 245 258 250 242 234 218 240 238 228 229 234 234 232 233 253 218 237 225 221 220 207 204 193 189 186 202 190 195 198 197 196 207 200 194 191
137 160 181 146 157 152 148 144 240 241 244 155 213 163 135 234 170 211 230 237 223 213 224 186 187 218 225 216 187 213 207 216 208 194 191 231 215 204 197 227 212 228 206
146 141 130 157 136 139 154 202 150 151 143 145 159 168 150 151 158 134 222 243 194 229 225 225 224 229 239 237 228 226 211 205 213 218 214 203 200 207 211 227 208 197 209
135 178 202 203 204 188 213 206 195 133 200 198 145 134 163 103 169 172 190 191 228 217 218 198 233 239 195 203 236 231 233 197 220 222 203 205 196 213 208 212 193 187 219
211 205 204 131 198 200 210 244 187 201 201 165 150 131 189 225 225 225 227 239 236 246 268 258 241 255 246 225 205 228 229 205 209 217 216 219 207 202 196 202 195 203 196
215 195 193 208 195 179 237 245 236 223 260 203 202 241 264 255 226 230 239 245 251 258 253 250 249 251 262 241 249 252 249 222 247 244 221 218 229 224 214 213 221 214 206
199 217 195 191 241 233 187 169 253 247 167 163 270 277 262 267 264 253 267 149 308 404 480 463 251 256 269 273 260 263 244 238 238 237 230 248 246 242 223 227 230 227 235
203 130 172 214 231 218 234 172 234 243 255 258 270 265 270 253 266 294 510 505 495 502 479 465 455 456 462 488 311 272 256 261 270 251 249 244 235 227 225 207 215 227 220
223 234 193 214 179 178 216 254 246 265 264 272 277 267 259 281 438 508 512 508 496 486 479 469 457 444 438 464 454 453 349 268 260 245 255 250 260 259 254 237 226 222 232
186 238 179 229 197 235 183 251 259 272 235 255 262 270 312 527 438 505 492 480 468 459 455 452 493 470 448 437 429 427 429 427 420 366 258 251 252 248 273 264 250 242 231
182 174 176 247 165 163 162 263 270 248 258 255 283 329 524 515 498 481 471 453 444 508 499 485 463 439 424 415 407 406 408 477 457 408 405 379 258 251 252 250 229 269 266
245 244 219 250 253 209 273 274 245 251 254 281 411 518 502 489 478 465 447 432 519 494 479 461 432 415 403 393 386 385 389 395 409 446 434 379 365 360 279 269 253 250 248
251 251 249 254 254 273 266 249 249 259 291 435 522 495 481 471 462 452 433 433 513 485 464 439 413 398 383 374 372 379 392 406 422 447 437 388 369 325 342 380 326 334 327
253 253 251 258 267 270 248 243 262 287 441 527 507 484 471 462 455 440 427 468 499 488 455 422 400 382 369 364 368 369 377 390 408 419 425 406 356 331 329 316 317 331 348
256 256 259 259 269 252 241 263 286 326 522 517 504 482 461 457 441 427 423 458 486 500 450 410 386 370 360 361 358 359 366 424 380 433 417 396 378 358 335 316 309 299 304
259 262 261 257 265 239 259 277 324 552 524 509 509 481 451 447 438 421 433 453 481 501 451 401 376 360 359 352 346 348 459 420 403 384 390 391 365 327 324 312 316 302 310
261 252 254 265 245 254 273 295 481 513 535 512 513 481 453 438 431 427 441 453 478 498 498 394 366 352 354 340 336 339 422 376 359 355 374 352 338 325 320 308 295 292 290
251 263 259 262 249 265 279 457 437 389 548 525 525 457 437 431 431 454 441 459 483 500 502 389 356 349 341 331 331 401 396 396 365 352 365 338 326 326 327 312 304 298 291
261 263 268 240 266 269 313 474 485 373 526 530 518 443 440 442 457 435 447 470 488 499 501 372 349 335 332 326 325 414 377 364 353 369 348 322 308 313 304 290 279 276 278
270 266 242 263 265 284 452 461 486 357 350 536 523 446 439 452 454 440 459 474 487 491 491 354 337 327 323 324 323 383 381 374 356 350 335 301 312 314 297 288 289 278 279

GFSGL_2pvu_pres_105.txt.gz
Presure
148 148 148 149 150 151 288 308 244 244 270 283 285 167 145 290 238 145 258 253 242 229 238 229 217 230 164 247 223 189 212 192 210 216 206 197 196 205 205 202 204 209 207
310 218 327 323 324 326 325 323 316 318 307 282 274 272 277 270 262 255 252 249 239 203 248 279 252 246 183 222 210 194 209 201 189 190 191 206 210 209 199 190 198 213 205
270 284 288 292 284 292 295 295 292 290 287 279 277 279 286 282 279 262 238 282 253 268 253 166 165 232 226 199 184 227 215 206 182 190 171 201 197 209 228 222 194 218 199
251 280 279 190 280 256 280 222 165 171 219 200 265 265 272 274 267 260 252 250 253 255 250 247 241 208 215 215 200 203 210 189 199 190 189 169 137 185 215 213 181 207 192
276 237 275 238 244 252 264 257 234 259 262 259 267 266 267 265 268 245 249 208 198 242 251 241 230 205 211 217 202 214 207 222 208 193 226 218 217 217 200 212 211 198 210
137 179 260 266 271 260 227 228 254 253 273 216 248 246 244 259 258 242 185 240 254 194 247 244 236 241 250 228 204 215 197 198 233 215 202 214 172 165 178 194 199 200 172
249 262 229 133 150 229 148 242 153 153 260 116 153 153 252 255 260 252 254 257 198 218 203 237 236 156 234 230 241 199 199 209 234 224 214 212 215 207 201 193 184 193 195
171 181 162 152 157 154 141 156 148 149 171 196 138 154 223 203 148 261 257 189 165 201 201 151 157 169 206 244 198 231 225 224 221 224 234 202 209 202 215 217 212 212 215
169 182 174 198 168 170 188 193 148 221 140 202 229 216 143 175 225 214 142 155 196 162 161 145 183 207 231 188 199 221 221 237 233 193 225 224 220 197 213 208 221 224 193
225 222 205 221 219 219 217 218 221 194 204 218 220 193 194 166 248 216 201 179 228 169 162 208 204 203 257 229 238 243 223 225 236 233 203 198 218 220 216 206 215 202 203
226 226 228 214 225 224 190 212 221 213 207 210 217 165 168 196 231 221 222 172 134 268 239 235 245 248 225 249 255 252 229 248 233 215 230 228 211 206 198 201 210 211 207
235 238 223 238 225 237 214 200 214 209 170 155 196 189 186 255 185 191 207 229 224 226 270 252 234 237 235 240 241 232 252 227 260 257 233 244 233 232 230 223 212 229 217
236 226 229 234 232 195 236 235 220 240 190 251 205 179 188 187 261 244 268 287 288 281 275 267 283 252 291 249 247 296 276 265 261 261 245 252 248 246 229 229 229 227 213
227 214 215 213 205 206 223 217 235 251 219 251 170 211 195 198 264 278 283 277 281 282 275 283 284 303 348 454 531 513 503 490 480 300 253 250 250 246 242 252 244 238 232
219 221 218 232 170 177 173 224 211 181 212 205 189 234 256 266 279 277 283 268 264 280 307 422 530 524 524 514 508 499 486 472 459 454 496 473 450 265 253 248 243 256 238
241 237 211 180 178 159 245 247 249 240 255 264 234 266 274 276 287 263 265 285 317 467 518 510 505 495 482 475 470 467 464 455 443 436 436 479 444 422 408 310 254 248 244
240 241 240 239 241 244 249 259 265 261 264 265 266 280 281 293 263 285 315 368 505 495 490 484 475 459 450 450 446 441 438 433 427 422 420 439 456 426 398 383 365 250 243
257 258 257 258 263 266 274 269 267 260 261 262 283 282 265 270 300 352 509 499 485 475 469 459 448 500 493 479 470 463 453 443 432 427 424 431 430 430 402 372 391 339 333
268 268 274 273 286 276 271 265 258 269 269 284 281 254 280 308 444 516 494 479 470 469 454 442 506 495 469 452 440 428 417 409 406 405 405 410 412 428 397 370 360 365 338
278 289 295 293 284 277 275 275 273 271 282 259 260 283 309 416 379 497 472 469 458 443 436 471 501 477 446 427 412 402 393 389 385 383 385 389 397 396 414 362 353 352 348
292 292 291 288 288 286 285 288 286 289 256 265 286 459 451 377 520 485 463 449 445 436 454 480 492 457 425 402 390 378 367 364 364 368 377 378 377 388 410 367 354 323 323
295 302 311 316 308 298 292 290 283 258 267 292 553 560 378 348 477 459 445 440 440 451 465 495 484 432 399 383 367 359 356 355 356 366 374 383 396 413 406 385 337 333 323
311 305 297 288 277 275 276 275 257 270 297 544 560 558 354 344 460 459 460 463 450 460 482 506 469 401 380 363 353 354 346 347 349 364 368 380 397 402 371 346 324 310 318
312 297 278 277 272 275 279 246 269 296 494 528 519 546 341 459 470 469 447 456 469 482 502 500 415 377 360 351 351 337 337 341 397 364 390 391 366 386 341 326 336 316 295
291 293 289 275 273 265 243 265 286 415 453 481 508 500 466 460 461 451 463 473 482 495 512 473 374 353 357 345 330 328 334 400 385 366 362 363 392 373 358 329 317 320 300
274 275 266 266 262 244 263 276 400 402 430 457 484 486 424 459 453 456 465 475 490 503 496 368 354 350 336 327 324 354 375 374 353 346 363 339 341 341 338 343 317 318 303

GFSGL_2pvu_pres_108.txt.gz
Presure
211 193 153 288 149 148 149 147 148 148 148 296 235 212 234 186 265 258 214 240 236 230 228 216 215 219 194 202 198 218 247 237 235 201 240 224 194 220 220 212 190 211 188
154 153 150 150 148 149 149 294 145 299 307 317 302 303 286 297 304 301 298 286 289 278 255 280 246 158 252 264 251 249 247 234 225 226 214 242 200 238 219 202 221 203 199
309 270 316 288 289 315 312 308 306 304 307 303 292 291 286 292 289 281 277 279 272 256 245 278 282 269 278 249 248 242 237 233 243 220 224 251 226 238 226 209 203 214 194
268 284 285 267 282 271 300 232 222 262 251 288 293 291 293 290 289 225 218 287 288 274 273 256 254 251 275 258 250 232 250 238 228 241 207 242 235 236 224 213 204 188 171
272 158 252 261 277 198 268 268 277 277 267 164 234 274 276 208 276 229 278 275 272 263 284 263 261 262 253 251 258 240 233 244 250 241 240 241 197 229 212 192 215 221 202
273 268 272 276 150 260 201 235 243 188 155 128 261 259 256 264 262 260 266 265 271 265 264 257 249 254 253 242 172 226 241 249 243 248 191 240 232 187 207 193 207 207 210
144 162 186 174 166 229 266 267 273 225 263 140 172 150 263 151 150 250 150 246 142 154 214 253 259 250 236 197 209 239 239 209 152 127 126 144 153 156 205 181 213 213 210
207 198 189 169 159 165 163 150 156 146 154 161 126 139 200 155 132 199 239 239 226 220 242 245 246 250 251 118 147 195 246 159 159 194 230 163 229 195 237 224 215 190 208
207 213 216 220 221 222 222 211 212 222 180 139 200 199 195 211 228 220 216 209 211 217 204 204 156 177 217 224 151 221 242 214 158 222 242 232 192 189 222 226 216 192 239
240 239 236 233 232 237 232 226 225 218 211 218 223 231 227 222 221 233 231 209 217 190 173 195 199 222 184 190 210 248 227 210 166 174 173 233 223 205 233 210 223 232 221
227 228 232 231 229 228 227 226 224 224 224 227 234 225 235 229 221 214 207 180 250 207 195 178 155 158 169 158 166 162 185 243 240 239 137 249 233 222 224 221 222 209 227
235 235 233 231 220 222 227 234 235 236 233 244 237 241 243 206 200 223 202 190 198 161 190 185 168 192 163 217 223 229 235 236 203 235 234 234 236 245 232 221 208 217 225
220 197 227 180 230 230 217 216 232 236 232 233 175 188 198 175 216 233 212 206 174 268 263 209 167 271 274 279 285 285 279 226 226 286 220 260 227 231 233 250 238 256 238
244 240 208 228 170 165 230 228 239 244 234 253 249 168 245 260 258 257 267 271 279 280 279 277 277 278 283 295 295 294 265 291 292 272 297 294 257 252 251 253 246 265 263
256 252 252 250 248 248 245 243 249 253 255 253 255 204 261 264 265 274 288 279 280 284 280 279 289 293 303 291 285 282 293 306 210 416 422 427 421 407 374 277 288 262 240
275 270 268 268 264 260 258 255 241 245 262 269 276 284 288 288 282 293 285 278 278 287 293 300 310 289 295 310 328 465 519 512 508 509 510 513 516 498 480 477 471 470 456
328 316 305 289 286 279 278 283 282 285 244 291 291 273 301 305 296 291 291 292 307 311 293 285 303 328 407 382 502 494 482 473 471 469 472 474 478 477 457 446 443 446 448
347 342 333 330 321 318 313 314 306 306 309 303 306 307 295 307 313 310 303 301 282 297 318 480 384 470 498 487 473 467 472 498 496 449 445 446 447 442 434 421 395 415 455
356 341 352 341 319 319 308 306 311 294 297 317 323 302 293 290 298 296 286 307 434 518 381 364 477 474 462 461 521 495 477 467 466 466 426 424 422 417 411 405 404 402 441
375 360 341 335 334 336 340 334 330 329 311 291 292 292 293 283 284 321 556 517 495 357 444 465 455 450 471 524 486 460 444 437 432 427 423 419 407 397 395 390 388 393 413
348 357 347 320 331 313 308 320 304 291 290 290 287 281 279 312 581 501 480 476 474 469 465 457 464 474 513 481 445 426 416 408 403 400 400 400 401 401 426 397 390 379 402
336 343 346 333 322 315 304 296 287 278 282 278 266 296 523 520 487 480 487 485 475 469 466 462 475 505 476 433 412 395 385 377 375 374 375 377 380 383 389 389 375 369 381
333 320 331 334 308 293 283 278 277 274 260 277 324 427 512 494 472 473 454 469 473 476 486 491 508 467 420 396 379 368 363 359 358 360 364 365 363 364 378 380 393 393 396
330 323 299 292 278 278 272 273 273 254 278 400 425 431 499 486 472 460 462 474 485 497 507 522 437 400 379 367 361 354 349 350 353 354 364 366 374 358 381 368 372 360 362
323 293 289 277 275 270 272 264 261 272 381 318 400 433 474 481 472 465 473 488 500 511 515 406 378 365 364 350 338 338 341 347 385 352 365 372 393 374 366 353 342 343 362
299 289 270 272 267 269 256 258 267 307 365 400 389 426 466 484 476 479 488 499 498 404 375 366 357 341 332 329 333 336 383 378 358 396 394 376 340 329 333 329 326 324 324

GFSGL_2pvu_pres_111.txt.gz
Presure
350 169 170 148 249 140 140 138 135 134 149 160 160 144 146 147 149 211 147 144 146 146 141 143 203 251 244 232 233 217 207 189 206 191 205 203 209 204 219 165 229 235 231
150 214 326 319 150 149 324 335 324 154 159 162 145 144 151 161 145 141 141 143 145 144 143 150 249 255 253 278 243 240 174 233 224 220 216 216 225 236 224 239 168 164 226
277 304 309 207 278 304 152 149 151 150 144 143 143 144 145 186 311 316 320 313 175 256 281 273 232 232 233 268 215 188 262 260 181 174 287 278 161 269 254 248 233 231 221
262 194 196 271 264 275 290 302 238 297 296 292 289 287 279 290 291 295 293 293 167 178 213 272 212 283 210 267 221 163 288 275 268 269 272 256 255 244 240 235 239 232 219
100 96 134 123 261 269 279 263 268 270 270 261 267 282 288 287 286 285 290 275 286 291 289 282 283 288 282 266 278 271 270 262 260 258 247 250 247 244 236 239 234 225 225
120 222 272 270 267 251 250 248 242 252 242 236 257 266 266 266 263 270 124 128 267 271 278 269 268 276 276 270 258 252 249 262 267 254 259 255 265 262 240 137 250 241 241
221 181 174 177 181 241 147 224 239 173 227 131 134 269 185 138 239 251 173 134 251 251 259 249 260 231 141 258 135 172 151 153 237 165 248 247 233 252 163 215 206 208 175
243 243 227 217 217 216 192 196 168 170 166 168 221 265 182 160 209 145 192 160 201 138 147 159 149 155 161 217 241 240 228 248 248 234 159 242 244 196 151 150 239 164 159
238 239 239 242 245 244 235 218 210 215 221 222 220 216 214 216 163 161 162 201 182 152 228 234 237 237 241 243 243 247 186 248 200 201 179 164 204 239 224 235 211 156 198
230 227 188 233 237 237 232 229 230 236 236 238 239 238 224 221 221 215 220 208 217 228 224 223 223 227 226 224 222 248 203 169 232 185 197 195 179 148 151 220 236 240 241
242 202 240 235 228 231 235 233 236 236 237 238 240 237 232 234 235 234 235 232 233 225 227 229 229 234 240 226 176 234 173 180 175 196 180 170 175 214 184 173 185 226 200
280 262 253 250 245 240 239 235 230 229 233 236 234 230 230 231 238 228 225 231 228 225 227 195 190 188 222 215 213 186 217 195 178 176 234 183 187 209 194 187 171 163 238
317 299 298 289 278 264 258 179 251 247 201 238 235 232 237 240 242 234 232 227 231 191 220 228 184 234 216 218 227 228 241 231 168 270 277 277 255 243 265 250 243 237 225
331 309 362 387 302 300 288 287 281 274 265 261 162 169 249 180 247 250 253 255 260 264 264 263 159 268 274 278 189 283 284 296 300 291 277 284 281 273 269 273 269 259 251
327 324 328 326 329 335 371 335 304 296 288 283 278 280 274 275 274 277 278 278 263 279 285 296 301 305 308 307 307 318 310 306 297 294 289 286 289 287 281 277 281 281 280
333 313 365 392 390 393 392 369 361 365 361 339 323 306 296 298 299 303 304 310 310 314 330 335 335 331 330 329 332 330 329 326 327 326 323 310 309 307 304 304 304 298 293
317 376 397 391 389 378 381 368 371 367 354 343 331 329 324 322 336 327 328 326 331 327 337 318 317 309 315 317 312 302 302 312 324 326 327 330 333 390 391 392 393 389 384
334 401 397 397 378 366 376 365 348 357 334 324 333 338 346 344 338 329 321 315 309 310 316 315 307 312 328 377 448 504 500 492 462 371 528 522 519 494 480 481 489 497 500
420 398 403 395 366 361 351 369 338 330 331 327 319 313 306 296 293 295 301 305 306 312 335 441 500 492 487 483 482 475 473 498 519 501 494 492 492 451 449 454 460 468 453
418 405 397 353 345 337 345 342 343 330 311 296 290 287 286 290 290 289 314 464 504 496 494 493 494 490 480 474 473 484 522 496 475 466 461 463 466 428 431 433 433 437 440
407 387 348 339 328 330 318 305 299 289 284 281 282 285 280 296 365 524 505 491 483 486 494 490 483 479 476 480 501 517 460 443 434 429 429 433 429 414 415 414 415 410 400
299 353 343 330 305 295 293 282 277 276 278 276 268 279 346 415 476 504 489 479 480 491 496 499 503 502 508 526 447 422 410 404 402 402 402 403 407 411 405 402 397 401 374
289 336 339 302 294 288 281 275 278 275 270 262 280 402 365 415 507 497 488 490 495 503 508 518 530 485 424 404 392 381 374 370 370 371 375 383 389 390 393 387 387 384 386
292 331 314 297 280 276 277 279 274 265 264 276 379 401 393 466 509 506 501 504 511 522 449 406 391 382 375 370 364 357 354 355 357 362 365 363 366 381 386 401 399 407 383
292 340 314 292 279 280 279 272 264 260 272 289 380 387 395 466 500 495 416 387 379 375 369 361 354 349 346 343 342 342 344 351 362 359 365 371 366 375 374 380 398 379 371
295 350 319 297 280 279 274 267 251 268 271 367 382 372 370 368 364 363 359 353 347 341 335 332 329 330 333 337 338 341 417 363 372 398 375 346 394 365 368 355 352 373 366

GFSGL_2pvu_pres_114.txt.gz
Presure
310 322 281 157 306 305 318 204 228 268 163 133 136 149 140 132 130 132 132 132 125 121 121 141 150 233 152 144 148 148 139 136 200 231 161 198 205 210 183 194 194 194 199
288 293 172 333 326 154 147 163 187 213 304 156 154 277 185 142 138 139 141 140 142 146 155 157 144 144 145 136 135 136 142 144 143 244 260 260 250 250 283 289 246 225 216
278 195 270 297 293 296 189 160 188 294 332 188 148 152 151 155 158 153 151 151 156 186 262 170 155 145 167 167 239 228 247 243 200 171 237 192 249 249 248 261 169 242 241
121 129 119 205 118 116 111 211 293 291 205 217 264 222 160 155 231 229 224 152 237 153 156 231 298 245 226 304 302 302 232 262 243 259 208 238 210 252 283 220 272 260 247
246 204 160 135 130 232 109 218 181 149 265 285 284 281 284 290 289 285 280 276 277 280 177 173 199 196 287 292 215 279 270 276 281 281 275 195 276 257 263 269 264 267 252
244 244 245 243 168 188 146 221 271 266 263 256 260 250 263 279 278 269 284 292 289 182 277 280 278 278 277 283 131 277 256 258 235 266 257 259 261 273 263 261 267 256 229
232 228 217 240 241 245 244 231 188 207 216 240 266 265 266 256 260 254 171 257 265 265 263 255 261 270 270 170 272 278 269 177 164 273 229 147 169 245 238 223 198 154 232
269 262 258 250 239 234 239 241 244 237 226 223 201 186 193 196 251 256 260 264 266 252 248 241 249 253 257 255 258 262 208 154 153 154 164 156 161 158 245 241 245 244 236
299 278 288 276 265 262 254 161 222 240 243 245 247 243 227 225 223 225 225 216 212 209 171 172 166 168 169 165 162 162 161 237 247 253 250 249 245 250 250 242 246 238 237
272 146 281 162 137 291 277 149 144 260 252 247 240 245 242 243 242 242 234 243 228 226 228 224 232 233 232 233 232 220 215 218 229 229 244 248 248 248 248 209 254 199 241
213 162 226 187 211 293 320 301 292 279 270 264 264 256 251 245 244 246 244 247 246 243 241 240 245 234 233 229 223 225 225 248 237 233 230 234 232 234 221 205 241 222 153
201 232 239 242 252 239 344 329 329 326 299 248 169 209 271 264 260 252 248 242 240 240 234 235 237 240 241 244 242 240 238 239 239 240 207 202 237 244 246 196 219 215 194
249 250 246 281 247 281 331 331 334 322 328 320 338 301 296 288 281 273 265 248 248 243 169 225 173 233 238 241 243 192 238 237 179 172 172 237 169 219 219 200 237 228 225
227 246 258 287 271 329 348 412 412 412 325 317 333 339 322 378 355 300 292 286 277 273 269 265 261 258 256 252 250 248 249 247 250 244 165 242 241 239 237 237 237 155 237
249 248 275 276 332 436 418 409 396 387 387 395 402 387 382 352 372 345 361 356 356 321 300 294 294 294 294 294 294 293 292 294 298 300 300 297 301 312 322 305 285 267 267
260 245 275 342 457 422 401 407 400 386 366 366 387 366 350 348 347 353 367 365 350 353 365 356 345 352 348 346 345 346 345 345 344 337 338 336 332 348 345 325 314 305 302
247 246 266 339 447 421 380 357 347 354 365 367 370 368 342 336 338 332 323 316 311 314 314 313 316 318 319 324 327 329 330 334 334 334 336 340 338 329 328 325 328 333 336
248 251 260 282 324 363 335 335 330 327 326 326 319 311 306 302 297 296 296 298 302 308 315 317 320 326 369 367 371 376 373 371 373 379 378 378 384 383 380 378 376 333 320
247 250 252 280 309 354 327 312 304 300 295 290 287 287 285 285 290 294 300 305 416 519 508 498 497 505 510 507 492 496 499 491 489 498 523 518 505 500 499 505 507 502 489
244 250 242 278 314 313 318 304 295 292 283 279 278 281 281 279 277 352 474 523 516 504 501 505 512 515 516 510 509 497 497 517 512 486 474 469 469 471 473 479 461 449 455
241 252 252 281 326 290 323 306 289 286 278 285 279 269 263 277 421 479 545 533 526 524 525 531 533 537 538 532 531 484 461 450 442 441 440 440 441 447 427 426 429 434 442
239 260 268 271 301 293 323 307 291 286 282 279 271 259 273 352 394 387 398 413 433 443 444 439 437 433 427 420 410 402 398 398 400 402 405 411 418 413 411 411 420 417 426
242 260 263 268 282 298 278 323 299 287 281 275 257 264 287 394 375 366 361 361 364 364 363 363 363 368 372 373 370 368 368 368 371 372 378 388 400 400 395 396 401 406 398
247 278 265 268 283 301 273 317 307 289 279 272 258 267 312 385 364 350 339 335 333 334 335 334 335 338 342 343 348 352 358 358 358 368 368 371 384 391 384 385 380 391 385
249 275 271 267 282 307 273 322 298 287 277 268 259 273 375 387 358 346 334 323 327 325 321 323 335 354 431 361 341 404 405 362 377 364 371 368 368 380 370 365 377 377 367
248 275 271 268 281 305 273 334 304 287 275 261 260 279 373 372 355 340 337 327 321 319 314 314 364 418 443 412 382 366 356 388 363 370 401 391 381 378 381 395 382 362 375

GFSGL_2pvu_pres_117.txt.gz
Presure
242 253 264 282 330 221 260 314 274 301 277 243 148 294 283 141 139 137 136 142 294 138 133 131 128 130 197 133 132 130 129 131 135 138 167 138 152 136 135 136 135 134 152
253 227 241 253 262 277 269 318 319 274 298 260 243 296 272 276 251 159 266 279 235 281 272 283 135 136 149 133 127 141 143 272 200 129 132 180 248 247 164 162 238 150 150
253 206 158 131 127 252 253 124 127 276 206 250 176 267 142 261 252 264 257 258 165 192 356 358 309 341 305 128 142 258 152 135 282 136 136 135 138 166 247 256 265 257 244
268 265 256 220 213 184 120 237 122 188 133 195 111 110 122 204 298 304 301 284 197 235 324 151 195 145 143 142 143 142 152 144 145 149 148 150 182 288 238 251 243 237 203
275 254 268 273 267 253 180 196 253 250 218 214 147 272 263 259 265 291 289 296 298 288 288 291 288 181 152 152 152 152 166 203 304 320 294 208 245 255 247 290 156 302 228
248 176 280 243 283 252 276 267 263 255 184 192 246 241 242 253 265 269 258 256 258 282 282 291 289 283 287 287 235 203 194 294 283 276 273 273 269 265 272 276 268 296 239
286 282 276 251 177 211 301 290 261 263 267 264 261 253 202 229 196 238 249 262 266 265 265 248 272 279 286 289 281 278 276 277 274 273 179 276 272 268 264 271 261 176 268
201 256 263 250 228 245 221 257 263 296 295 277 263 259 206 260 254 252 249 237 200 233 246 257 263 267 267 268 267 275 278 279 279 278 275 273 275 275 277 269 203 152 152
258 222 252 293 246 238 141 154 244 203 157 267 274 267 261 269 264 260 257 253 250 249 244 239 235 233 222 261 267 197 183 184 198 248 261 229 171 170 188 188 169 171 243
234 228 252 246 162 259 265 246 262 291 293 256 251 243 326 305 289 269 267 255 260 252 251 249 240 241 241 242 238 256 257 254 242 254 253 256 257 259 253 259 258 262 266
208 221 282 226 252 299 236 298 286 279 356 353 339 338 344 337 337 312 296 274 272 263 254 252 256 251 249 250 243 241 244 242 240 231 232 237 240 241 248 250 249 252 246
237 269 262 252 253 263 257 261 283 473 444 426 422 427 422 329 335 337 334 332 309 289 278 272 268 261 259 254 235 223 211 176 246 222 197 215 197 199 233 231 227 225 224
225 266 258 247 251 258 255 261 351 409 436 424 422 416 407 402 403 396 311 326 329 336 343 317 292 279 277 274 267 264 261 256 252 248 244 250 245 244 221 201 246 243 237
253 258 258 253 245 251 264 267 291 375 360 358 363 367 364 368 379 394 400 392 380 386 338 312 324 335 333 310 296 288 283 278 268 264 261 254 251 249 242 240 221 243 243
239 256 260 247 239 252 279 256 293 332 341 331 329 326 325 328 335 359 362 344 340 342 346 353 357 364 371 323 339 335 337 343 315 300 288 281 273 267 262 260 256 252 250
240 250 266 239 248 251 263 256 291 314 335 325 313 305 303 297 295 296 295 297 299 300 305 311 313 318 326 332 337 344 353 361 367 373 383 393 380 363 300 291 281 276 271
232 249 249 257 249 256 254 254 287 331 298 325 316 301 298 291 287 286 287 288 291 293 298 303 310 315 320 323 326 328 330 333 335 336 338 343 346 349 356 364 374 377 375
238 251 255 260 203 258 249 283 285 301 300 354 314 293 293 290 291 291 278 273 279 334 538 559 548 540 537 537 537 536 532 524 515 514 517 514 381 378 334 330 328 329 334
233 253 243 258 256 256 251 287 282 295 305 291 332 307 292 292 288 268 269 289 403 399 396 408 439 518 533 562 555 548 537 532 523 520 525 528 529 519 512 514 516 519 525
226 251 252 256 255 251 265 285 282 283 304 284 330 309 298 288 278 262 280 377 379 368 361 359 364 374 390 411 420 428 439 448 453 455 458 461 464 468 473 478 486 494 504
227 251 214 257 256 252 258 284 283 281 305 279 323 308 295 283 267 273 291 379 364 350 346 346 345 347 350 358 367 377 379 383 389 397 410 420 429 435 447 457 437 437 438
230 253 245 258 260 250 257 284 277 284 307 276 325 308 293 281 264 281 374 373 359 344 338 336 332 333 347 359 353 354 359 365 370 375 380 389 406 414 410 418 417 424 435
255 263 238 256 260 256 272 282 264 281 298 278 320 305 285 276 272 290 389 360 360 347 334 329 323 325 446 436 414 352 412 360 369 376 376 374 393 403 403 400 406 412 430
252 268 228 251 260 254 285 276 263 281 293 354 318 295 283 271 275 335 376 382 350 346 332 324 321 403 422 399 391 381 411 396 391 379 371 377 385 400 387 388 404 385 381
254 262 229 252 277 258 285 273 263 278 290 357 313 291 280 266 280 356 370 387 347 336 326 319 320 391 383 389 392 383 382 379 381 392 376 380 391 396 380 379 387 388 364
253 270 255 259 248 257 285 284 266 276 283 353 309 283 277 266 289 351 365 371 370 330 321 316 343 360 359 379 365 355 347 354 350 348 353 360 367 403 404 370 382 354 357

GFSGL_2pvu_pres_123.txt.gz
Presure
245 249 219 266 268 185 179 135 283 291 308 286 235 256 151 198 270 286 275 160 226 249 266 250 265 252 259 254 136 263 134 177 205 179 147 147 158 128 259 134 131 130 158
141 133 137 127 128 130 127 127 135 131 133 127 141 141 216 267 263 267 268 259 253 286 268 160 257 249 251 252 255 251 143 250 167 257 158 247 173 165 163 169 152 270 156
216 245 248 242 150 150 256 263 264 234 246 154 269 246 251 158 124 261 283 272 256 284 289 260 267 265 265 249 156 247 260 262 277 268 165 143 154 164 164 205 144 141 177
236 220 225 242 247 229 193 247 259 266 270 268 257 253 260 257 245 260 192 193 202 202 128 132 133 206 252 207 207 240 221 227 206 258 204 204 151 150 152 210 257 280 198
197 223 225 239 237 248 244 231 246 269 207 179 258 243 251 256 279 277 266 242 258 278 229 229 112 111 237 218 179 118 136 263 288 250 262 293 275 299 323 347 352 343 319
195 219 236 240 220 240 247 237 253 242 261 276 257 267 254 129 244 253 278 273 251 267 252 261 281 303 260 265 260 275 266 268 284 280 274 314 305 315 304 334 331 328 321
209 212 218 245 237 220 236 252 240 258 246 257 277 280 261 285 260 277 262 259 245 270 290 298 319 268 271 279 293 266 252 290 293 277 287 265 277 288 299 309 305 297 292
212 213 220 212 247 235 245 233 253 247 248 256 262 272 292 272 268 319 273 264 370 412 331 142 232 229 295 296 271 279 199 222 270 256 262 277 278 268 277 265 296 278 298
214 194 244 242 240 235 251 242 231 260 238 239 265 263 267 297 256 315 314 336 354 340 347 416 459 454 354 313 130 259 141 248 269 269 271 256 254 249 236 269 269 285 284
189 223 193 237 241 245 238 255 229 236 251 259 239 273 251 299 277 302 308 297 341 344 337 340 352 385 432 454 343 351 280 268 294 254 277 270 267 267 253 245 229 263 265
243 201 240 230 255 245 230 242 253 235 264 282 241 267 266 276 288 289 305 292 330 353 332 324 317 317 329 342 403 438 371 343 321 284 283 278 272 267 265 260 254 247 235
237 233 239 242 245 254 247 239 247 249 259 281 256 250 214 261 276 301 307 289 319 373 337 321 310 306 303 307 314 321 329 355 392 328 344 309 294 285 268 262 261 257 249
224 233 236 245 242 237 249 255 242 251 255 251 256 247 277 256 288 272 278 281 337 369 353 324 313 302 300 296 296 305 306 312 323 320 335 342 322 331 301 289 274 269 254
248 217 235 226 254 246 241 243 243 240 257 249 287 270 279 258 285 291 299 273 307 360 339 334 313 305 302 297 296 298 302 300 309 304 315 322 323 341 315 352 330 295 269
236 235 238 239 265 247 260 257 242 238 248 257 265 265 276 260 281 303 299 279 296 355 330 313 306 301 299 298 295 292 292 294 299 376 387 391 421 440 332 342 341 398 351
232 223 211 234 268 248 251 261 257 237 242 257 260 276 278 260 269 272 291 281 315 339 320 305 294 290 280 277 333 384 378 372 365 365 366 379 417 489 571 525 336 341 365
230 229 213 261 271 248 251 262 258 230 246 252 258 279 279 263 272 254 279 295 376 335 305 293 286 276 319 409 398 373 367 356 352 348 347 394 386 407 452 544 538 529 333
252 254 228 270 273 240 264 242 252 268 257 254 260 277 275 276 267 256 262 291 369 321 292 282 292 386 409 419 370 367 361 348 343 340 373 410 373 385 404 439 480 501 528
308 261 289 276 268 240 265 243 250 253 262 263 262 271 273 278 273 268 260 281 361 303 288 294 366 398 399 354 353 343 335 337 412 426 424 382 391 382 388 403 434 463 479
278 299 288 284 260 202 272 238 275 271 258 270 260 280 269 280 265 291 266 284 347 302 282 304 390 416 351 341 336 381 386 391 401 405 394 389 389 393 388 395 430 437 460
323 310 287 263 258 263 254 247 271 270 273 268 262 281 264 272 250 269 289 290 319 288 294 370 406 388 412 415 385 372 376 375 377 380 378 414 410 396 400 409 405 410 434
297 302 273 262 265 275 242 247 266 267 274 263 275 275 274 265 270 252 282 358 306 280 295 374 384 393 381 362 355 352 344 342 347 358 364 372 411 404 388 396 412 430 435
167 282 205 271 289 275 240 262 272 252 269 261 281 271 275 263 263 263 270 359 296 281 295 389 370 373 355 343 332 325 333 341 347 350 358 364 383 380 392 405 424 412 398
277 275 288 297 283 268 212 269 247 271 264 266 278 269 264 269 288 280 269 350 289 285 295 381 362 351 339 326 312 331 330 321 326 334 346 361 375 398 393 380 373 374 363
288 303 313 287 271 278 270 272 246 274 264 284 272 270 261 249 261 288 281 317 279 285 347 373 352 351 335 321 331 318 306 310 319 322 342 352 379 392 365 361 359 361 358
306 318 307 290 294 282 277 243 276 263 285 277 273 264 253 251 254 278 329 301 274 286 344 369 347 351 324 325 313 302 308 314 301 324 343 358 385 338 347 348 343 348 360